[[{"header":{"parameterUnit":"m.s-1","parameterCategory":1,"la1":31.0,"la2":29.5877,"lo1":-88.7671,"lo2":-86.6584,"dx":0.0162,"dy":0.0185,"nx":115,"ny":88,"refTime":"2022-11-22T06:00:00:Z","depth":0,"parameterNumber":2,"parameterNumberName":"U-component_of_WINDS"},"data":[0.0,0.0,0.0,0.0,0.0,0.0,0.0,0.0,0.0,0.0,0.0,0.0,0.0,0.0,0.0,0.0,0.0,0.0,0.0,0.0,0.0,0.0,0.0,0.0,0.0,0.0,0.0,0.0,0.0,0.0,0.0,0.0,0.0,0.0,0.0,0.0,0.0,0.0,0.0,0.0,0.0,0.0,0.0,0.0,0.0,0.0,0.0,0.0,0.0,0.0,0.0,0.0,0.0,0.0,0.0,0.0,0.0,0.0,0.0,0.0,0.0,0.0,0.0,0.0,0.0,0.0,0.0,0.0,0.0,0.0,0.0,0.0,0.0,0.0,0.0,0.0,0.0,0.0,0.0,0.0,0.0,0.0,0.0,0.0,0.0,0.0,0.0,0.0,0.0,0.0,0.0,0.0,0.0,0.0,0.0,0.0,0.0,0.0,0.0,0.0,0.0,0.0,0.0,0.0,0.0,0.0,0.0,0.0,0.0,0.0,0.0,0.0,0.0,0.0,0.0,0.0,0.0,0.0,0.0,0.0,0.0,0.0,0.0,0.0,0.0,0.0,0.0,0.0,0.0,0.0,0.0,0.0,0.0,0.0,0.0,0.0,0.0,0.0,0.0,0.0,0.0,0.0,0.0,0.0,0.0,0.0,0.0,0.0,0.0,0.0,0.0,0.0,0.0,0.0,0.0,0.0,0.0,0.0,0.0,0.0,0.0,0.0,0.0,0.0,0.0,0.0,0.0,0.0,0.0,0.0,0.0,0.0,0.0,0.0,0.0,0.0,0.0,0.0,0.0,0.0,0.0,0.0,0.0,0.0,0.0,0.0,0.0,0.0,0.0,0.0,0.0,0.0,0.0,0.0,0.0,0.0,0.0,0.0,0.0,0.0,0.0,0.0,0.0,0.0,0.0,0.0,0.0,0.0,0.0,0.0,0.0,0.0,0.0,0.0,0.0,0.0,0.0,0.0,0.0,0.0,0.0,0.0,0.0,0.0,0.0,0.0,0.0,0.0,0.0,0.0,0.0,0.0,0.0,0.0,0.0,0.0,0.0,0.0,0.0,0.0,0.0,0.0,0.0,0.0,0.0,0.0,0.0,0.0,0.0,0.0,0.0,0.0,0.0,0.0,0.0,0.0,0.0,0.0,0.0,0.0,0.0,0.0,0.0,0.0,0.0,0.0,0.0,0.0,0.0,0.0,0.0,0.0,0.0,0.0,0.0,0.0,0.0,0.0,0.0,0.0,0.0,0.0,0.0,0.0,0.0,0.0,0.0,0.0,0.0,0.0,0.0,0.0,0.0,0.0,0.0,0.0,0.0,0.0,0.0,0.0,0.0,0.0,0.0,0.0,0.0,0.0,0.0,0.0,0.0,0.0,0.0,0.0,0.0,0.0,0.0,0.0,0.0,0.0,0.0,0.0,0.0,0.0,0.0,0.0,0.0,0.0,0.0,0.0,0.0,0.0,0.0,0.0,0.0,0.0,0.0,0.0,0.0,0.0,0.0,0.0,0.0,0.0,0.0,0.0,0.0,0.0,0.0,0.0,0.0,0.0,0.0,0.0,0.0,0.0,0.0,0.0,0.0,0.0,0.0,0.0,0.0,0.0,0.0,0.0,0.0,0.0,0.0,0.0,0.0,0.0,0.0,0.0,0.0,0.0,0.0,0.0,0.0,0.0,0.0,0.0,0.0,0.0,0.0,0.0,0.0,0.0,0.0,0.0,0.0,0.0,0.0,0.0,0.0,0.0,0.0,0.0,0.0,0.0,0.0,0.0,0.0,0.0,0.0,0.0,0.0,0.0,0.0,0.0,0.0,0.0,0.0,0.0,0.0,0.0,0.0,0.0,0.0,0.0,0.0,0.0,0.0,0.0,0.0,0.0,0.0,0.0,0.0,0.0,0.0,0.0,0.0,0.0,0.0,0.0,0.0,0.0,0.0,0.0,0.0,0.0,0.0,0.0,0.0,0.0,0.0,0.0,0.0,0.0,0.0,0.0,0.0,0.0,0.0,0.0,0.0,0.0,0.0,0.0,0.0,0.0,0.0,0.0,0.0,0.0,0.0,0.0,0.0,0.0,0.0,0.0,0.0,0.0,0.0,0.0,0.0,0.0,0.0,0.0,0.0,0.0,0.0,0.0,0.0,0.0,0.0,0.0,0.0,0.0,0.0,0.0,0.0,0.0,0.0,0.0,0.0,0.0,0.0,0.0,0.0,0.0,0.0,0.0,0.0,0.0,0.0,0.0,0.0,0.0,0.0,0.0,0.0,0.0,0.0,0.0,0.0,0.0,0.0,0.0,0.0,0.0,0.0,0.0,0.0,0.0,0.0,0.0,0.0,0.0,0.0,0.0,0.0,0.0,0.0,0.0,0.0,0.0,0.0,0.0,0.0,0.0,0.0,0.0,0.0,0.0,0.0,0.0,0.0,0.0,0.0,0.0,0.0,0.0,0.0,0.0,0.0,0.0,0.0,0.0,0.0,0.0,0.0,0.0,0.0,0.0,0.0,0.0,0.0,0.0,0.0,0.0,0.0,0.0,0.0,0.0,0.0,0.0,0.0,0.0,0.0,0.0,0.0,0.0,0.0,0.0,0.0,0.0,0.0,0.0,0.0,0.0,0.0,0.0,0.0,0.0,0.0,0.0,0.0,0.0,0.0,0.0,0.0,0.0,0.0,0.0,0.0,0.0,0.0,0.0,0.0,0.0,0.0,0.0,0.0,0.0,0.0,0.0,0.0,0.0,0.0,0.0,0.0,0.0,0.0,0.0,0.0,0.0,0.0,0.0,0.0,0.0,0.0,0.0,0.0,0.0,0.0,0.0,0.0,0.0,0.0,0.0,0.0,0.0,0.0,0.0,0.0,0.0,0.0,0.0,0.0,0.0,0.0,0.0,0.0,0.0,0.0,0.0,0.0,0.0,0.0,0.0,0.0,0.0,0.0,0.0,0.0,0.0,0.0,0.0,0.0,0.0,0.0,0.0,0.0,0.0,0.0,0.0,0.0,0.0,0.0,0.0,0.0,0.0,0.0,0.0,0.0,0.0,0.0,0.0,0.0,0.0,0.0,0.0,0.0,0.0,0.0,0.0,0.0,0.0,0.0,0.0,0.0,0.0,0.0,0.0,0.0,0.0,0.0,0.0,0.0,0.0,0.0,0.0,0.0,0.0,0.0,0.0,0.0,0.0,0.0,0.0,0.0,0.0,0.0,0.0,0.0,0.0,0.0,0.0,0.0,0.0,0.0,0.0,0.0,0.0,0.0,0.0,0.0,0.0,0.0,0.0,0.0,0.0,0.0,0.0,0.0,0.0,0.0,0.0,0.0,0.0,0.0,0.0,0.0,0.0,0.0,0.0,0.0,0.0,0.0,0.0,0.0,0.0,0.0,0.0,0.0,0.0,0.0,0.0,0.0,0.0,0.0,0.0,0.0,0.0,0.0,0.0,0.0,0.0,0.0,0.0,0.0,0.0,0.0,0.0,0.0,0.0,0.0,0.0,0.0,0.0,0.0,0.0,0.0,0.0,0.0,0.0,0.0,0.0,0.0,0.0,0.0,0.0,0.0,0.0,0.0,0.0,0.0,0.0,0.0,0.0,0.0,0.0,0.0,0.0,0.0,0.0,0.0,0.0,0.0,0.0,0.0,0.0,0.0,0.0,0.0,0.0,0.0,0.0,0.0,0.0,0.0,0.0,0.0,0.0,0.0,0.0,0.0,0.0,0.0,0.0,0.0,0.0,0.0,0.0,0.0,0.0,0.0,0.0,0.0,0.0,0.0,0.0,0.0,0.0,0.0,0.0,0.0,0.0,0.0,0.0,0.0,0.0,0.0,0.0,0.0,0.0,0.0,0.0,0.0,0.0,0.0,0.0,0.0,0.0,0.0,0.0,0.0,0.0,0.0,0.0,0.0,0.0,0.0,0.0,0.0,0.0,0.0,0.0,0.0,0.0,0.0,0.0,0.0,0.0,0.0,0.0,0.0,0.0,0.0,0.0,0.0,0.0,0.0,0.0,0.0,0.0,0.0,0.0,0.0,0.0,0.0,0.0,0.0,0.0,0.0,0.0,0.0,0.0,0.0,0.0,0.0,0.0,0.0,0.0,0.0,0.0,0.0,0.0,0.0,0.0,0.0,0.0,0.0,0.0,0.0,0.0,0.0,0.0,0.0,0.0,0.0,0.0,0.0,0.0,0.0,0.0,0.0,0.0,0.0,0.0,0.0,0.0,0.0,0.0,0.0,0.0,0.0,0.0,0.0,0.0,0.0,0.0,0.2688,0.0,0.0,0.0,0.2688,0.0,0.0,0.0,0.0,0.0,0.0,0.0,0.0,0.0,0.0,0.0,0.0,0.0,0.0,0.0,0.0,0.0,0.0,0.0,0.0,0.0,0.0,0.0,0.0,0.0,0.0,0.0,0.0,0.0,0.0,0.0,0.0,0.0,0.0,0.0,0.0,0.0,0.0,0.0,0.0,0.0,0.0,0.0,0.0,0.0,0.0,0.0,0.0,0.0,0.0,0.0,0.0,0.0,0.0,0.0,0.0,0.0,0.0,0.0,0.0,0.0,0.0,0.0,0.0,0.0,0.0,0.0,0.0,0.0,0.0,0.0,0.0,0.0,0.0,0.0,0.0,0.0,0.0,0.0,0.0,0.0,0.0,0.0,0.0,0.0,0.0,0.0,0.0,0.0,0.0,0.0,0.0,0.0,0.0,0.0,0.0,0.0,0.0,0.0,0.0,0.0,0.0,0.0,0.0,0.0,0.0,0.0,0.0,0.0,0.0,0.2688,0.2688,0.2688,0.2688,0.2688,0.0,0.0,0.0,0.0,0.0,0.0,0.0,0.0,0.0,0.0,0.0,0.0,0.0,0.0,0.0,0.0,0.0,0.0,0.0,0.0,0.0,0.0,0.0,0.0,0.0,0.0,0.0,0.0,0.0,0.0,0.0,0.0,0.0,0.0,0.0,0.0,0.0,0.0,0.0,0.0,0.0,0.0,0.0,0.0,0.0,0.0,0.0,0.0,0.0,0.0,0.0,0.0,0.0,0.0,0.0,0.0,0.0,0.0,0.0,0.0,0.0,0.0,0.0,0.0,0.0,0.0,0.0,0.0,0.0,0.0,0.0,0.0,0.0,0.0,0.0,0.0,0.0,0.0,0.0,0.0,0.0,0.0,0.0,0.0,0.0,0.0,0.0,0.0,0.0,0.0,0.0,0.0,0.0,0.0,0.0,0.0,0.0,0.0,0.0,0.0,0.0,0.0,0.0,0.0,0.0,0.0,0.0,0.0,0.0,0.0,0.0,0.0,0.2688,0.2688,0.2688,0.0,0.0,0.0,0.0,0.0,0.0,0.0,0.0,0.0,0.0,0.0,0.0,0.0,0.0,0.0,0.0,0.0,0.0,0.0,0.0,0.0,0.0,0.0,0.0,0.0,0.0,0.0,0.0,0.0,0.0,0.0,0.0,0.0,0.0,0.0,0.0,0.0,0.0,0.0,0.0,0.0,0.0,0.0,0.0,0.0,0.0,0.0,0.0,0.0,0.0,0.0,0.0,0.0,0.0,0.0,0.0,0.0,0.0,0.0,0.0,0.0,0.0,0.0,0.0,0.0,0.0,0.0,0.0,0.0,0.0,0.0,0.0,0.0,0.0,0.0,0.0,0.0,0.0,0.0,0.0,0.0,0.0,0.0,0.0,0.0,0.0,0.0,0.0,0.0,0.0,0.0,0.0,0.0,0.0,0.0,0.0,0.0,0.0,0.0,0.0,0.0,0.0,0.0,0.0,0.0,0.0,0.0,0.0,0.0,0.0,0.2688,0.2688,0.2688,0.0,0.2688,0.0,0.0,0.0,0.0,0.0,0.0,0.0,0.0,0.0,0.0,0.0,0.0,0.0,0.0,0.0,0.0,0.0,0.0,0.0,0.0,0.0,0.0,0.0,0.0,0.0,0.0,0.0,0.0,0.0,0.0,0.0,0.0,0.0,0.0,0.0,0.0,0.0,0.0,0.0,0.0,0.0,0.0,0.0,0.0,0.0,0.0,0.0,0.0,0.0,0.0,0.0,0.0,0.0,0.0,0.0,0.0,0.0,0.0,0.0,0.0,0.0,0.0,0.0,0.0,0.0,0.0,0.0,0.0,0.0,0.0,0.0,0.0,0.0,0.0,0.0,0.0,0.0,0.0,0.0,0.0,0.0,0.0,0.0,0.0,0.0,0.0,0.0,0.0,0.0,0.0,0.0,0.0,0.0,0.0,0.0,0.0,0.0,0.0,0.0,0.0,0.0,0.0,0.0,0.0,0.0,0.0,0.0,0.0,0.0,0.0,0.2856,0.2928,0.2862,0.2774,0.0,0.0,0.0,0.0,0.0,0.0,0.0,0.0,0.0,0.0,0.0,0.0,0.0,0.0,0.0,0.0,0.0,0.0,0.0,0.0,0.0,0.0,0.0,0.0,0.0,0.0,0.0,0.0,0.0,0.0,0.0,0.0,0.0,0.0,0.0,0.0,0.0,0.0,0.0,0.0,0.0,0.0,0.0,0.0,0.0,0.0,0.0,0.0,0.0,0.0,0.0,0.0,0.0,0.0,0.0,0.0,0.0,0.0,0.0,0.0,0.0,0.0,0.0,0.0,0.0,0.0,0.0,0.0,0.0,0.0,0.0,0.0,0.0,0.0,0.0,0.0,0.0,0.0,0.0,0.0,0.0,0.0,0.0,0.0,0.0,0.0,0.0,0.0,0.0,0.0,0.0,0.0,0.0,0.0,0.0,0.0,0.0,0.0,0.0,0.0,0.0,0.0,0.0,0.0,0.0,0.0,0.0,0.0,0.0,0.0,0.3038,0.3037,0.3087,0.2975,0.2856,0.2756,0.0,0.0,0.0,0.0,0.0,0.0,0.0,0.0,0.0,0.0,0.0,0.0,0.0,0.0,0.0,0.0,0.0,0.0,0.0,0.0,0.0,0.0,0.0,0.0,0.0,0.0,0.0,0.0,0.0,0.0,0.0,0.0,0.0,0.0,0.0,0.0,0.0,0.0,0.0,0.0,0.0,0.0,0.0,0.0,0.0,0.0,0.0,0.0,0.0,0.0,0.0,0.0,0.0,0.0,0.0,0.0,0.0,0.0,0.0,0.0,0.0,0.0,0.0,0.0,0.0,0.0,0.0,0.0,0.0,0.0,0.0,0.0,0.0,0.0,0.0,0.0,0.0,0.0,0.0,0.0,0.0,0.0,0.0,0.0,0.0,0.0,0.0,0.0,0.0,0.0,0.0,0.0,0.0,0.0,0.0,0.0,0.0,0.0,0.0,0.0,0.0,0.0,0.0,0.0,0.0,0.0,0.0,0.0,0.3306,0.3294,0.3226,0.3101,0.2966,0.2894,0.0,0.0,0.0,0.0,0.0,0.0,0.0,0.0,0.0,0.0,0.0,0.0,0.0,0.0,0.0,0.0,0.0,0.0,0.0,0.0,0.0,0.0,0.0,0.0,0.0,0.0,0.0,0.0,0.0,0.0,0.0,0.0,0.0,0.0,0.0,0.0,0.0,0.0,0.0,0.0,0.0,0.0,0.0,0.0,0.0,0.0,0.0,0.0,0.0,0.0,0.0,0.0,0.0,0.0,0.0,0.0,0.0,0.0,0.0,0.0,0.0,0.0,0.0,0.0,0.0,0.0,0.0,0.0,0.0,0.0,0.0,0.0,0.0,0.0,0.0,0.0,0.0,0.0,0.0,0.0,0.0,0.0,0.0,0.0,0.0,0.0,0.0,0.0,0.0,0.0,0.0,0.0,0.0,0.0,0.0,0.0,0.0,0.0,0.0,0.0,0.0,0.0,0.0,0.0,0.0,0.0,0.0,0.0,0.0,0.3605,0.3586,0.3441,0.3229,0.3185,0.3071,0.0,0.0,0.0,0.0,0.0,0.0,0.0,0.0,0.0,0.0,0.0,0.0,0.0,0.0,0.0,0.0,0.0,0.0,0.0,0.0,0.0,0.0,0.0,0.0,0.0,0.0,0.0,0.0,0.0,0.0,0.0,0.0,0.0,0.0,0.0,0.0,0.0,0.0,0.0,0.0,0.0,0.0,0.0,0.0,0.0,0.0,0.0,0.0,0.0,0.0,0.0,0.0,0.0,0.0,0.0,0.0,0.0,0.0,0.0,0.0,0.0,0.0,0.0,0.0,0.0,0.0,0.0,0.0,0.0,0.0,0.0,0.0,0.0,0.0,0.0,0.0,0.0,0.0,0.0,0.0,0.0,0.0,0.0,0.0,0.0,0.0,0.0,0.0,0.0,0.0,0.0,0.0,0.0,0.0,0.0,0.0,0.0,0.0,0.0,0.0,0.0,0.0,0.0,0.0,0.0,0.0,0.0,0.0,0.0,0.3896,0.386,0.3753,0.3546,0.3451,0.331,0.0,0.0,0.0,0.0,0.0,0.0,0.0,0.0,0.0,0.0,0.0,0.0,0.0,0.0,0.0,0.0,0.0,0.0,0.0,0.0,0.0,0.0,0.0,0.0,0.0,0.0,0.0,0.0,0.0,0.0,0.0,0.0,0.0,0.0,0.0,0.0,0.0,0.0,0.0,0.0,0.0,0.0,0.0,0.0,0.0,0.0,0.0,0.0,0.0,0.0,0.0,0.0,0.0,0.0,0.0,0.0,0.0,0.0,0.0,0.0,0.0,0.0,0.0,0.0,0.0,0.0,0.0,0.0,0.0,0.0,0.0,0.0,0.0,0.0,0.0,0.0,0.0,0.0,0.0,0.0,0.0,0.0,0.0,0.0,0.0,0.0,0.0,0.0,0.0,0.0,0.0,0.0,0.0,0.0,0.0,0.0,0.0,0.0,0.0,0.0,0.0,0.0,0.0,0.0,0.0,0.0,0.0,0.0,0.4064,0.4104,0.4167,0.4147,0.4009,0.3744,0.361,0.0,0.0,0.0,0.0,0.0,0.0,0.0,0.0,0.0,0.0,0.0,0.0,0.0,0.0,0.0,0.0,0.0,0.0,0.0,0.0,0.0,0.0,0.0,0.0,0.0,0.0,0.0,0.0,0.0,0.0,0.0,0.0,0.0,0.0,0.0,0.0,0.0,0.0,0.0,0.0,0.0,0.0,0.0,0.0,0.0,0.0,0.0,0.0,0.0,0.0,0.0,0.0,0.0,0.0,0.0,0.0,0.0,0.0,0.0,0.0,0.0,0.0,0.0,0.0,0.0,0.0,0.0,0.0,0.0,0.0,0.0,0.0,0.0,0.0,0.0,0.0,0.0,0.0,0.0,0.0,0.0,0.0,0.0,0.0,0.0,0.0,0.0,0.0,0.0,0.0,0.0,0.0,0.0,0.0,0.0,0.0,0.0,0.0,0.0,0.0,0.0,0.0,0.0,0.0,0.0,0.0,0.0,0.0,0.0,0.4466,0.46,0.4498,0.4153,0.4065,0.3894,0.0,0.0,0.0,0.0,0.0,0.0,0.0,0.0,0.0,0.0,0.0,0.0,0.0,0.0,0.0,0.0,0.0,0.0,0.0,0.0,0.0,0.0,0.0,0.0,0.0,0.0,0.0,0.0,0.0,0.0,0.0,0.0,0.0,0.0,0.0,0.0,0.0,0.0,0.0,0.0,0.0,0.0,0.0,0.0,0.0,0.0,0.0,0.0,0.0,0.0,0.0,0.0,0.0,0.0,0.0,0.0,0.0,0.0,0.0,0.0,0.0,0.0,0.0,0.0,0.0,0.0,0.0,0.0,0.0,0.0,0.0,0.0,0.0,0.0,0.0,0.0,0.0,0.0,0.0,0.0,0.0,0.0,0.0,0.0,0.0,0.0,0.0,0.0,0.0,0.0,0.0,0.0,0.0,0.0,0.0,0.0,0.0,0.0,0.0,0.0,0.0,0.0,0.0,0.0,0.0,0.0,0.0,0.0,0.0,0.527,0.5314,0.5121,0.4652,0.4523,0.4287,0.3899,0.0,0.0,0.0,0.0,0.0,0.0,0.0,0.0,0.0,0.0,0.0,0.0,0.0,0.0,0.0,0.0,0.0,0.0,0.0,0.0,0.0,0.0,0.0,0.0,0.0,0.0,0.0,0.0,0.0,0.0,0.0,0.0,0.0,0.0,0.0,0.0,0.0,0.0,0.0,0.0,0.0,0.0,0.0,0.0,0.0,0.0,0.0,0.0,0.0,0.0,0.0,0.0,0.0,0.0,0.0,0.0,0.0,0.0,0.0,0.0,0.0,0.0,0.0,0.0,0.0,0.0,0.0,0.0,0.0,0.0,0.0,0.0,0.0,0.0,0.0,0.0,0.0,0.0,0.0,0.0,0.0,0.0,0.0,0.0,0.0,0.0,0.0,0.0,0.0,0.0,0.0,0.0,0.0,0.0,0.0,0.0,0.0,0.0,0.0,0.0,0.0,0.0,0.0,0.0,0.0,0.0,0.0,0.0,0.636,0.6235,0.5928,0.5426,0.5092,0.4785,0.0,0.0,0.0,0.0,0.0,0.0,0.0,0.0,0.0,0.0,0.0,0.0,0.0,0.0,0.0,0.0,0.0,0.0,0.0,0.0,0.0,0.0,0.0,0.0,0.0,0.0,0.0,0.0,0.0,0.0,0.0,0.0,0.0,0.0,0.0,0.0,0.0,0.0,0.0,0.0,0.0,0.0,0.0,0.0,0.0,0.0,0.0,0.0,0.0,0.0,0.0,0.0,0.0,0.0,0.0,0.0,0.0,0.0,0.0,0.0,0.0,0.0,0.0,0.0,0.0,0.0,0.0,0.0,0.0,0.0,0.0,0.0,0.0,0.0,0.0,0.0,0.0,0.0,0.0,0.0,0.0,0.0,0.0,0.0,0.0,0.0,0.0,0.0,0.0,0.0,0.0,0.0,0.0,0.0,0.0,0.0,0.0,0.0,0.0,0.0,0.0,0.0,0.0,0.0,0.0,0.0,0.0,0.0,0.0,0.7036,0.7099,0.6717,0.5874,0.5569,0.5267,0.0,0.0,0.0,0.0,0.0,0.0,0.0,0.0,0.0,0.0,0.0,0.0,0.0,0.0,0.0,0.0,0.0,0.0,0.0,0.0,0.0,0.0,0.0,0.0,0.0,0.0,0.0,0.0,0.0,0.0,0.0,0.0,0.0,0.0,0.0,0.0,0.0,0.0,0.0,0.0,0.0,0.0,0.0,0.0,0.0,0.0,0.0,0.0,0.0,0.0,0.0,0.0,0.0,0.0,0.0,0.0,0.0,0.0,0.0,0.0,0.0,0.0,0.0,0.0,0.0,0.0,0.0,0.0,0.0,0.0,0.0,0.0,0.0,0.0,0.0,0.0,0.0,0.0,0.0,0.0,0.0,0.0,0.0,0.0,0.0,0.0,0.0,0.0,0.0,0.0,0.0,0.0,0.0,0.0,0.0,0.0,0.0,0.0,0.0,0.0,0.0,0.0,0.0,0.0,0.0,0.0,0.0,0.0,0.7572,0.744,0.7503,0.7199,0.6472,0.6091,0.5683,0.0,0.0,0.0,0.0,0.0,0.0,0.0,0.0,0.0,0.0,0.0,0.0,0.0,0.0,0.0,0.0,0.0,0.0,0.0,0.0,0.0,0.0,0.0,0.0,0.0,0.0,0.0,0.0,0.0,0.0,0.0,0.0,0.0,0.0,0.0,0.0,0.0,0.0,0.0,0.0,0.0,0.0,0.0,0.0,0.0,0.0,0.0,0.0,0.0,0.0,0.0,0.0,0.0,0.0,0.0,0.0,0.0,0.0,0.0,0.0,0.0,0.0,0.0,0.0,0.0,0.0,0.0,0.0,0.0,0.0,0.0,0.0,0.0,0.0,0.0,0.0,0.0,0.0,0.0,0.0,0.0,0.0,0.0,0.0,0.0,0.0,0.0,0.0,0.0,0.0,0.0,0.0,0.0,0.0,0.0,0.0,0.0,0.0,0.0,0.0,0.0,0.0,0.0,0.0,0.0,0.0,0.0,0.0,0.7969,0.7641,0.7781,0.7634,0.7168,0.662,0.6121,0.0,0.0,0.0,0.0,0.0,0.0,0.0,0.0,0.0,0.0,0.0,0.0,0.0,0.0,0.0,0.0,0.0,0.0,0.0,0.0,0.0,0.0,0.0,0.0,0.0,0.0,0.0,0.0,0.0,0.0,0.0,0.0,0.0,0.0,0.0,0.0,0.0,0.0,0.0,0.0,0.0,0.0,0.0,0.0,0.0,0.0,0.0,0.0,0.0,0.0,0.0,0.0,0.0,0.0,0.0,0.0,0.0,0.0,0.0,0.0,0.0,0.0,0.0,0.0,0.0,0.0,0.0,0.0,0.0,0.0,0.0,0.0,0.0,0.0,0.0,0.0,0.0,0.0,0.0,0.0,0.0,0.0,0.0,0.0,0.0,0.0,0.0,0.0,0.0,0.0,0.0,0.0,0.0,0.0,0.0,0.0,0.0,0.0,0.0,0.0,0.0,0.0,0.0,0.0,0.0,0.0,0.0,0.0,0.8123,0.7862,0.8933,0.8852,0.7532,0.6979,0.6556,0.0,0.0,0.0,0.0,0.0,0.0,0.0,0.0,0.0,0.0,0.0,0.0,0.0,0.0,0.0,0.0,0.0,0.0,0.0,0.0,0.0,0.0,0.0,0.0,0.0,0.0,0.0,0.0,0.0,0.0,0.0,0.0,0.0,0.0,0.0,0.0,0.0,0.0,0.0,0.0,0.0,0.0,0.0,0.0,0.0,0.0,0.0,0.0,1.0635,0.0,0.0,0.0,0.0,0.0,0.0,0.0,0.0,0.0,0.0,0.0,0.0,0.0,0.0,0.0,0.0,0.0,0.0,0.0,0.0,0.0,0.0,0.0,0.0,0.0,0.0,0.0,0.0,0.0,0.0,0.0,0.0,0.0,0.0,0.0,0.0,0.0,0.0,0.0,0.0,0.0,0.0,0.0,0.0,0.0,0.0,0.0,0.0,0.0,0.0,0.0,0.0,0.0,0.0,0.0,0.0,0.0,0.0,0.0,0.9089,1.0126,1.0181,1.0092,0.9832,0.9455,0.843,0.0,0.0,0.0,0.0,0.0,0.0,0.0,0.0,0.0,0.0,0.0,0.0,0.0,0.0,0.0,0.0,0.0,0.0,0.0,0.0,0.0,0.0,0.0,0.0,0.0,0.0,0.0,0.0,0.0,0.0,0.0,0.0,0.0,0.0,0.0,0.0,0.0,0.0,0.0,0.0,0.0,0.0,0.0,0.0,0.0,0.0,0.0,0.0,0.0,0.0,0.0,0.0,0.0,0.0,0.0,0.0,0.0,0.0,0.0,0.0,0.0,0.0,0.0,0.0,0.0,0.0,0.0,0.0,0.0,0.0,0.0,0.0,0.0,0.0,0.0,0.0,0.0,0.0,0.0,0.0,0.0,0.0,0.0,0.0,0.0,0.0,0.0,0.0,0.0,0.0,0.0,0.0,0.0,0.0,0.0,0.0,0.0,0.0,0.0,0.0,0.0,0.0,0.0,0.0,0.0,0.0,0.0,0.948,0.9977,1.1909,1.0986,1.0876,1.1746,1.1778,1.0277,0.7186,0.0,0.0,0.0,0.0,0.0,0.0,0.0,0.0,0.0,0.0,0.0,0.0,0.0,0.0,0.0,0.0,0.0,0.0,0.0,0.0,0.0,0.0,0.0,0.0,0.0,0.0,0.0,0.0,0.0,0.0,0.0,0.0,0.0,0.0,0.0,0.0,0.0,0.0,0.8657,0.9673,0.0,0.0,0.0,0.0,0.0,0.0,0.0,0.0,1.2543,0.0,0.0,0.0,0.0,0.0,0.0,0.0,0.0,0.0,0.0,0.0,0.0,0.0,0.0,0.0,0.0,0.0,0.0,0.0,0.0,0.0,0.0,0.0,0.0,0.0,0.0,0.0,0.0,0.0,0.0,0.0,0.0,0.0,0.0,0.0,0.0,0.0,0.0,0.0,0.0,0.0,0.0,0.0,0.0,0.0,0.0,0.0,0.0,0.0,0.0,0.0,0.0,0.0,0.0,0.0,0.0,0.8879,0.9169,0.9281,0.9194,1.0146,1.0116,0.9066,1.0118,0.9922,0.8267,0.0,0.0,0.0,0.0,0.0,0.0,0.0,0.0,0.0,0.0,0.0,0.0,0.0,0.0,0.0,0.0,0.0,0.0,0.0,0.0,0.0,0.0,0.0,0.0,0.0,0.0,0.0,0.0,0.0,0.0,0.0,0.0,0.0,0.0,0.0,0.0,0.0,0.0,0.0,1.0942,1.1516,0.0,0.0,0.0,0.0,0.0,0.0,0.0,0.0,1.3193,0.0,0.0,0.0,0.0,0.0,0.0,0.0,0.0,0.0,0.0,0.0,0.0,0.0,0.0,0.0,0.0,0.0,0.0,0.0,0.0,0.0,0.0,0.0,0.0,0.0,0.0,0.0,0.0,0.0,0.0,0.0,0.0,0.0,0.0,0.0,0.0,0.0,0.0,0.0,0.0,0.0,0.0,0.0,0.0,0.0,0.0,0.0,0.0,0.0,0.0,0.0,0.0,0.0,0.0,0.0,0.9831,0.9502,0.9856,1.0928,1.0923,1.089,1.0888,1.1491,1.1154,0.0,0.0,0.0,0.0,0.0,0.0,0.0,0.0,0.0,0.0,0.0,0.0,0.0,0.0,0.0,0.0,0.0,0.0,0.0,0.0,0.0,0.0,0.0,0.0,0.0,0.0,0.0,0.0,0.0,0.0,0.0,0.0,0.0,0.0,0.0,0.0,0.0,0.0,0.0,0.0,1.1824,1.251,1.3541,0.0,0.0,0.0,0.0,0.0,0.0,1.4367,1.398,0.0,0.0,0.0,0.0,0.0,0.0,0.0,0.0,0.0,0.0,0.0,0.0,0.0,0.0,0.0,0.0,0.0,0.0,0.0,0.0,0.0,0.0,0.0,0.0,0.0,0.0,0.0,0.0,0.0,0.0,0.0,0.0,0.0,0.0,0.0,0.0,0.0,0.0,0.0,0.0,0.0,0.0,0.0,0.0,0.0,0.0,0.0,0.0,0.0,0.0,0.0,0.0,0.0,0.0,0.0,1.0683,0.979,1.0321,1.2338,1.1357,1.133,1.2467,1.2365,1.18,0.0,0.0,0.0,0.0,0.0,0.0,0.0,0.0,0.0,0.0,0.0,0.0,0.0,0.0,0.0,0.0,0.0,0.0,0.0,0.0,0.0,0.0,0.0,0.0,0.0,0.0,0.0,0.0,0.0,0.0,0.0,0.0,0.0,0.0,0.0,0.0,0.0,0.0,0.0,0.0,0.0,1.3554,1.4696,1.4683,0.0,0.0,0.0,0.0,1.5498,1.5177,0.0,0.0,0.0,0.0,0.0,0.0,0.0,0.0,0.0,0.0,0.0,0.0,0.0,0.0,0.0,0.0,0.0,0.0,0.0,0.0,0.0,0.0,0.0,0.0,0.0,0.0,0.0,0.0,0.0,0.0,0.0,0.0,0.0,0.0,0.0,0.0,0.0,0.0,0.0,0.0,0.0,0.0,0.0,0.0,0.0,0.0,0.0,0.0,0.0,0.0,0.0,0.0,0.0,0.0,0.0,0.0,0.9249,0.9527,0.969,0.9824,0.9666,0.9673,0.986,0.9942,0.9841,0.0,0.0,0.0,0.0,0.0,0.0,0.0,0.0,0.0,0.0,0.0,0.0,0.0,0.0,0.0,0.0,0.0,0.0,0.0,0.0,0.0,0.0,0.0,0.0,0.0,0.0,0.0,0.0,0.0,0.0,0.0,0.0,0.0,0.0,0.0,0.0,0.0,0.0,0.0,0.0,0.0,1.475,1.5936,1.607,1.607,0.0,0.0,1.611,1.619,1.6136,0.0,0.0,0.0,0.0,0.0,0.0,0.0,0.0,0.0,0.0,0.0,0.0,0.0,0.0,0.0,0.0,0.0,0.0,0.0,0.0,0.0,0.0,0.0,0.0,0.0,0.0,0.0,0.0,0.0,0.0,0.0,0.0,0.0,0.0,0.0,0.0,0.0,0.0,0.0,0.0,0.0,0.0,0.0,0.0,0.0,0.0,0.0,0.0,0.0,0.0,0.0,0.0,0.0,0.0,0.0,0.915,0.9168,0.9405,0.9474,0.9403,0.941,0.941,0.941,0.9597,0.9533,0.0,0.0,0.0,0.0,0.0,0.0,0.0,0.0,0.0,0.0,0.0,0.0,0.0,0.0,0.0,0.0,0.0,0.0,0.0,0.0,0.0,0.0,0.0,0.0,0.0,0.0,0.0,0.0,0.0,0.0,0.0,0.0,0.0,0.0,0.0,0.0,0.0,0.0,0.0,0.0,0.0,0.0,1.6147,1.6585,0.0,0.0,0.0,1.6538,1.6513,0.0,0.0,0.0,0.0,0.0,0.0,0.0,0.0,0.0,0.0,0.0,0.0,0.0,0.0,0.0,0.0,0.0,0.0,0.0,0.0,0.0,0.0,0.0,0.0,0.0,0.0,0.0,0.0,0.0,0.0,0.0,0.0,0.0,0.0,0.0,0.0,0.0,0.0,0.0,0.0,0.0,0.0,0.0,0.0,0.0,0.0,0.0,0.0,0.0,0.0,0.0,0.0,0.0,0.0,0.0,0.0,0.0,0.9345,0.9405,0.9456,0.949,0.9519,0.949,0.9512,0.9681,0.0,0.0,0.0,0.0,0.0,0.0,0.0,0.0,0.0,0.0,0.0,0.0,0.0,0.0,0.0,0.0,0.0,0.0,0.0,0.0,0.0,0.0,0.0,0.0,0.0,0.0,0.0,0.8113,0.0,0.0,0.0,0.0,0.0,0.0,0.0,0.0,0.0,0.0,0.0,0.0,0.0,0.0,1.5532,1.6315,1.708,1.7582,0.0,0.0,1.6927,1.6927,1.6927,1.6677,0.0,0.0,0.0,0.0,0.0,0.0,0.0,0.0,0.0,0.0,0.0,0.0,0.0,0.0,0.0,0.0,0.0,0.0,0.0,0.0,0.0,0.0,0.0,0.0,0.0,0.0,0.0,0.0,0.0,0.0,0.0,0.0,0.0,0.0,0.0,0.0,0.0,0.0,0.0,0.0,0.0,0.0,0.0,0.0,0.0,0.0,0.0,0.0,0.0,0.0,0.0,0.0,0.0,0.0,0.916,0.9479,0.9573,0.9629,0.9781,0.9788,0.9795,0.9788,0.9797,0.9678,0.0,0.0,0.0,0.0,0.0,0.0,0.0,0.0,0.0,0.0,0.0,0.0,0.0,0.0,0.0,0.0,0.0,0.0,0.0,0.0,0.0,0.0,0.0,0.0,0.0,0.0,0.0,0.0,0.0,0.0,0.0,0.0,0.0,0.0,0.0,0.0,0.0,0.0,0.0,0.0,0.0,1.5843,1.6676,1.7698,1.8397,0.0,1.7943,1.7528,1.7528,1.7541,1.725,1.6402,0.0,0.0,0.0,0.0,0.0,0.0,0.0,0.0,0.0,0.0,0.0,0.0,0.0,0.0,0.0,0.0,0.0,0.0,0.0,0.0,0.0,0.0,0.0,0.0,0.0,0.0,0.0,0.0,0.0,0.0,0.0,0.0,0.0,0.0,0.0,0.0,0.0,0.0,0.0,0.0,0.0,0.0,0.0,0.0,0.0,0.0,0.0,0.0,0.0,0.0,0.0,0.0,0.0,0.9295,0.949,0.9649,0.9737,0.9785,0.9792,0.9792,0.9792,0.9893,0.9738,0.0,0.0,0.0,0.0,0.0,0.0,0.0,0.0,0.0,0.0,0.0,0.0,0.0,0.0,0.0,0.0,0.0,0.0,0.0,0.0,0.0,0.0,0.0,0.0,0.0,0.0,0.0,0.0,1.2184,1.2562,1.2091,0.0,0.0,0.0,0.0,0.0,0.0,0.0,0.0,0.0,0.0,1.4461,1.555,1.6377,0.0,0.0,1.801,1.7662,1.7832,1.7524,1.7061,1.6366,1.543,0.0,0.0,0.0,0.0,0.0,0.0,0.0,0.0,0.0,0.0,0.0,0.0,0.0,0.0,0.0,0.0,0.0,0.0,0.0,0.0,0.0,0.0,0.0,0.0,0.0,0.0,0.0,0.0,0.0,0.0,0.0,0.0,0.0,0.0,0.0,0.0,0.0,0.0,0.0,0.0,0.0,0.0,0.0,0.0,0.0,0.0,0.0,0.0,0.0,0.0,0.0,0.0,0.9376,0.9556,0.9697,0.9792,0.9792,0.9792,0.9792,0.9785,0.9901,0.9776,0.0,0.0,0.0,0.0,0.0,0.0,0.0,0.0,0.0,0.0,0.0,0.0,0.0,0.0,0.0,0.0,0.0,0.0,0.0,0.0,0.0,0.0,0.0,0.0,0.0,0.0,0.0,0.0,1.2866,1.3054,1.2258,0.0,0.0,0.0,0.0,0.0,0.0,0.0,0.0,0.0,0.0,1.3371,1.4516,1.5343,1.6378,1.7746,1.7569,1.7347,1.7429,1.7079,1.6539,1.5795,0.0,0.0,0.0,0.0,0.0,0.0,0.0,0.0,0.0,0.0,0.0,0.0,0.0,0.0,0.0,0.0,0.0,0.0,0.0,0.0,0.0,0.0,0.0,0.0,0.0,0.0,0.0,0.7457,0.0,0.0,0.7414,0.0,0.0,0.0,0.0,0.0,0.0,0.0,0.0,0.0,0.0,0.0,0.0,0.0,0.0,0.0,0.0,0.0,0.0,0.0,0.0,0.0,0.0,0.9369,0.9699,0.9782,0.9792,0.9792,0.9792,0.9792,0.9792,0.9815,0.9792,0.9759,0.0,0.0,0.0,0.0,0.0,0.0,0.0,0.0,0.0,0.0,0.0,0.0,0.0,0.0,0.0,0.0,0.0,0.0,0.0,0.0,0.0,0.0,0.0,0.0,0.0,0.0,1.1775,1.286,1.3177,0.0,0.0,0.0,0.0,0.0,0.0,0.0,0.0,0.0,1.0469,1.1706,1.2916,1.3798,1.4974,1.5909,1.657,1.6625,1.6514,1.6212,1.6133,1.5756,0.0,0.0,0.0,0.0,0.0,0.0,0.0,0.0,0.0,0.0,0.0,0.0,0.0,0.0,0.0,0.0,0.0,0.0,0.0,0.0,0.0,0.0,0.0,0.0,0.0,0.0,0.0,0.797,0.7934,0.0,0.0,0.0,0.0,0.0,0.0,0.0,0.0,0.0,0.0,0.0,0.9632,0.9616,0.0,0.0,0.0,0.0,0.0,0.0,0.0,0.0,0.0,0.0,0.0,0.0,0.9561,0.9896,0.9837,0.9792,0.9792,0.9792,0.9792,0.9792,0.9792,0.971,0.949,0.0,0.0,0.0,0.0,0.0,0.0,0.0,0.0,0.0,0.0,0.0,0.0,0.0,0.0,0.0,0.0,0.0,0.0,0.0,0.0,0.0,0.0,0.0,0.0,0.0,1.1105,0.0,0.0,0.0,0.0,0.0,0.0,0.0,0.0,0.0,0.0,0.0,1.0004,1.0091,1.0635,1.1483,1.2784,1.3353,1.4102,0.0,0.0,0.0,0.0,0.0,0.0,0.0,0.0,0.0,0.0,0.0,0.0,0.0,0.0,1.2908,1.4315,1.5134,1.5768,1.6233,0.0,0.0,0.0,0.0,0.0,0.0,0.0,0.0,0.0,0.0,0.0,0.0,0.0,0.0,0.8537,0.8479,0.8354,0.0,0.0,0.0,0.0,0.0,0.0,0.0,0.0,0.9369,0.9504,0.9701,0.9701,0.9621,0.0,0.9504,0.9402,0.0,0.0,0.0,0.0,0.0,0.0,0.0,0.0,0.9704,0.9916,0.9882,0.9893,0.9978,0.9978,0.9958,0.9873,0.9819,0.9678,0.9412,0.9132,0.8837,0.0,0.0,0.0,0.0,0.0,0.0,0.0,0.0,0.0,0.0,0.0,0.0,0.0,0.0,0.0,0.0,0.0,0.0,0.0,0.0,0.0,0.0,0.0,1.1315,0.0,0.0,0.0,0.0,0.0,0.0,0.0,0.0,0.0,1.0143,1.0023,0.9946,0.9931,1.0133,1.077,1.1979,0.0,0.0,0.0,0.0,0.0,0.0,0.0,1.3911,1.3182,1.2795,1.241,1.1943,1.2011,1.2233,1.258,0.0,0.0,1.4955,1.5765,1.6566,1.7755,1.7524,1.7576,1.8977,1.8826,1.8821,0.0,0.0,0.0,0.0,0.0,0.0,0.0,0.0,0.9272,0.9191,0.0,0.8979,0.0,0.0,0.0,0.0,0.9207,0.9244,0.0,0.0,0.9455,0.9368,0.9328,0.9328,0.9321,0.9334,0.9326,0.9379,0.9502,0.9371,0.0,0.0,0.0,0.0,0.0,0.0,0.9735,0.9823,0.9943,1.0089,1.0274,1.0295,1.0195,1.0008,0.9866,0.9724,0.9598,0.9412,0.9138,0.8848,0.8668,0.0,0.0,0.0,0.0,0.0,0.0,0.0,0.0,0.0,0.0,0.0,0.0,0.0,0.0,0.0,0.0,0.0,0.0,0.0,0.0,1.057,0.0,0.0,0.0,0.0,0.0,0.0,0.0,0.0,0.0,0.0,1.0076,0.9981,0.9932,1.0021,0.0,0.0,0.0,0.0,1.2541,1.3029,1.3384,1.3482,1.3145,1.3104,1.283,1.2056,0.0,0.0,1.1484,1.1866,1.2201,1.2227,1.3137,1.4382,1.541,1.5758,1.6588,1.867,1.7935,1.7888,1.9921,1.9435,1.9104,0.9289,0.0,0.0,0.0,0.0,0.9521,0.9486,0.9492,0.9502,0.9472,0.9421,0.9278,0.0,0.0,0.0,0.0,0.0,0.0,0.9089,0.9363,0.9404,0.9424,0.9538,0.9605,0.966,0.9646,0.9652,0.9667,0.9724,0.9693,0.9658,0.9625,0.0,0.0,0.0,0.0,0.9838,0.9934,0.9968,0.9988,0.9927,1.0028,1.0015,0.9859,0.9812,0.9724,0.9612,0.9541,0.9425,0.9179,0.8991,0.0,0.0,0.0,0.0,0.0,0.0,0.0,0.0,0.0,0.0,0.0,0.0,0.0,0.0,0.0,0.0,0.0,0.0,0.0,0.9283,0.9906,1.0402,0.0,0.0,0.0,0.0,0.0,0.0,0.0,0.0,0.0,1.063,1.0367,1.0284,0.0,0.0,1.1028,1.1687,1.1933,1.2195,1.2555,1.2798,0.0,1.2634,1.2735,1.264,1.2122,1.1938,1.1794,1.1722,1.1921,1.2107,1.2136,1.2294,1.2939,1.4439,1.5308,1.6068,1.6977,1.6871,1.7427,1.9731,1.9989,2.0348,0.939,0.9631,0.9553,0.9597,0.9644,0.9518,0.9486,0.9511,0.9588,0.9559,0.9447,0.9418,0.9468,0.9509,0.9512,0.0,0.0,0.0,0.9279,0.9439,0.9475,0.949,0.9523,0.9605,0.968,0.9704,0.9734,0.9795,0.991,0.9879,0.9882,0.993,0.0,0.0,1.0004,1.001,1.0047,1.0121,1.0169,1.0177,1.0181,1.0123,1.0035,0.9886,0.9819,0.9751,0.9663,0.9609,0.9569,0.9494,0.9391,0.9142,0.0,0.0,0.0,0.0,0.0,0.0,0.0,0.0,0.0,0.0,0.0,0.7893,0.8533,0.0,0.0,0.0,0.9394,0.9264,0.9444,0.9837,0.0,0.0,0.0,0.0,0.0,0.0,0.0,1.1144,1.1058,1.1102,1.1221,1.1034,1.0921,1.0975,1.113,1.1397,1.1788,0.0,1.2047,1.2265,1.24,1.2408,1.2309,1.2363,1.2379,1.2161,1.201,1.1918,1.1925,1.2036,1.2098,1.2084,1.1986,1.227,1.3347,1.3993,1.4929,1.6397,1.6091,1.6461,1.8799,1.8759,1.8974,0.9403,0.9391,0.9334,0.9316,0.93,0.9321,0.9335,0.9424,0.9537,0.9478,0.9247,0.9496,0.9435,0.9178,0.9401,0.0,0.9801,0.9801,0.9703,0.9612,0.9632,0.9571,0.9464,0.9449,0.953,0.9666,0.9666,0.9802,1.009,1.0066,1.0109,1.0295,1.0107,1.0017,1.0054,1.0212,1.0307,1.0308,1.0444,1.0561,1.069,1.0426,1.0209,1.0042,0.99,0.9839,0.9839,0.9741,0.9697,0.9856,0.9842,0.9751,0.9525,0.0,0.0,0.0,0.0,0.0,0.0,0.0,0.0,0.0,0.0,0.0,0.0,0.0,0.0,0.9774,0.9824,0.0,0.9934,1.0176,0.0,0.0,0.0,1.0729,1.0775,1.0884,1.1038,1.1239,0.0,0.0,1.1705,1.1778,1.1775,1.1511,1.1658,1.1813,1.1827,1.2023,1.2118,1.2139,1.2139,1.2132,1.2183,1.2176,1.2207,1.2169,1.2132,1.2139,1.2139,1.2145,1.2139,1.2152,1.2139,1.221,1.2315,1.2454,1.3266,1.6222,1.5432,1.4939,1.6948,1.6527,1.6235,0.9301,0.9396,0.9368,0.9382,0.938,0.9264,0.9297,0.9424,0.9544,0.9571,0.9517,0.9663,0.9716,0.9639,0.9588,0.9595,0.9646,0.9639,0.963,0.9625,0.9812,0.9862,0.9866,1.0012,1.0118,1.012,1.012,1.0193,1.0254,1.0261,1.0243,1.0276,1.0231,1.0214,1.0246,1.028,1.0303,1.0308,1.0451,1.0507,1.0541,1.0371,1.0295,1.0222,1.022,1.0222,1.0324,1.0195,1.0188,1.0317,1.0224,1.0067,0.9733,0.9601,0.0,0.0,0.0,0.0,0.0,0.0,0.0,0.0,0.0,0.8787,0.9401,0.0,1.0263,0.0,1.0475,1.0231,0.9598,1.0183,0.0,0.0,1.1009,1.1239,1.156,1.154,1.1564,1.1729,1.1734,1.1789,1.1976,1.2115,1.2196,1.2223,1.2101,1.2091,1.2162,1.221,1.2277,1.2366,1.2386,1.24,1.2393,1.24,1.24,1.24,1.24,1.24,1.24,1.24,1.24,1.2393,1.24,1.2413,1.2447,1.2454,1.2664,1.3451,1.3246,1.355,1.5556,1.5666,1.6004,0.9335,0.941,0.941,0.941,0.9403,0.9322,0.9328,0.9424,0.9544,0.9571,0.951,0.9591,0.97,0.9785,0.9741,0.9781,0.9903,0.991,0.991,0.9917,1.0042,1.0154,1.0154,1.0243,1.0344,1.0473,1.0405,1.0473,1.0689,1.0541,1.0541,1.0703,1.0609,1.0609,1.0696,1.0506,1.0439,1.0575,1.0588,1.0561,1.0493,1.0412,1.0344,1.0315,1.0308,1.0349,1.0392,1.0356,1.0376,1.048,1.0412,1.0324,1.0222,1.0067,0.9749,0.0,0.0,0.0,0.0,0.0,0.0,0.0,0.0,0.0,0.0,0.0,1.0545,1.0686,1.0721,1.0568,1.024,1.0655,1.1002,1.126,1.1344,1.1462,1.1726,1.1762,1.1775,1.1865,1.196,1.2067,1.2193,1.2291,1.2413,1.2488,1.2366,1.2291,1.2366,1.2386,1.2413,1.2488,1.2501,1.2528,1.2589,1.2664,1.2705,1.2705,1.2705,1.2705,1.2705,1.2705,1.2705,1.2705,1.2744,1.2744,1.2705,1.2705,1.2705,1.2705,1.2705,1.3081,1.3937,1.4176,1.459,0.9449,0.9469,0.9519,0.9526,0.9526,0.9496,0.9485,0.9424,0.9564,0.9585,0.9526,0.9526,0.9639,0.9876,0.9876,1.0025,1.0308,1.0329,1.0335,1.0342,1.0351,1.0365,1.0365,1.0385,1.0527,1.0765,1.0643,1.0778,1.1179,1.09,1.0907,1.1186,1.1002,1.1016,1.12,1.0785,1.0711,1.0934,1.0813,1.0711,1.0582,1.0575,1.0521,1.0431,1.0424,1.0437,1.0458,1.0437,1.0492,1.0595,1.0621,1.0629,1.0704,1.0507,1.0229,0.0,0.9573,0.0,0.0,0.0,0.0,0.0,0.0,0.0,0.0,1.0434,1.0772,1.0806,1.0792,1.0941,1.1234,1.1274,1.139,1.1577,1.1667,1.1681,1.1708,1.178,1.1861,1.1874,1.2155,1.2318,1.2352,1.2454,1.2535,1.2576,1.2576,1.2569,1.2562,1.2549,1.2542,1.2556,1.2562,1.2637,1.2745,1.2868,1.2982,1.2989,1.2975,1.3003,1.2982,1.2982,1.2989,1.2989,1.2982,1.2982,1.3003,1.2989,1.2989,1.2975,1.2975,1.294,1.2768,1.2777,1.2562,0.9778,0.9907,1.0059,1.0138,1.0145,1.0145,0.9866,0.943,0.9666,0.9903,1.0138,1.0107,1.0172,1.0227,1.0195,1.0254,1.0315,1.0431,1.0453,1.0466,1.0677,1.0792,1.0792,1.0941,1.1057,1.1111,1.1084,1.1111,1.1193,1.1145,1.1138,1.1193,1.1172,1.1234,1.1328,0.0,0.0,0.0,1.1125,1.1097,1.107,1.107,1.1057,1.1029,1.1029,0.0,1.1172,1.1097,1.1097,1.1206,1.1138,0.0,0.0,0.0,0.0,0.0,0.0,0.0,0.0,0.0,0.0,0.0,1.0587,1.0689,1.0542,1.0989,1.1267,1.1267,1.134,1.147,1.1525,1.1604,1.1692,1.1753,1.1904,1.2064,1.2149,1.2189,1.2244,1.2366,1.2427,1.2508,1.2623,1.2671,1.2732,1.2834,1.2907,1.2914,1.2907,1.2766,1.2739,1.2887,1.2854,1.2921,1.2915,1.2989,1.303,1.3003,1.3003,1.3009,1.3016,1.3016,1.3009,1.3009,1.3003,1.3009,1.3009,1.3003,1.3016,1.3003,1.3003,1.2982,1.2921,1.2914,1.2914,1.0093,1.0168,1.0249,1.0308,0.0,1.0308,1.0138,0.9866,0.9985,1.0165,1.0308,1.0308,1.0349,1.0385,1.0385,1.0466,1.0616,1.065,1.0758,1.0866,1.0982,1.1056,1.1056,1.1131,1.1234,1.1308,1.1234,1.1274,1.1375,1.1268,1.1274,1.1389,1.1349,1.1355,1.1497,1.1423,1.1349,1.12,1.12,1.12,1.12,1.12,1.12,1.12,1.12,0.0,0.0,0.0,0.0,0.0,0.0,0.0,0.0,0.0,0.0,1.0941,1.0799,1.0751,1.0819,1.0758,1.0779,1.1036,1.1328,1.1402,1.1179,1.1436,1.164,1.1751,1.1796,1.187,1.1945,1.2013,1.2088,1.2118,1.223,1.2349,1.2386,1.2467,1.2535,1.2603,1.2684,1.2799,1.2834,1.284,1.2874,1.2989,1.3003,1.303,1.3077,1.2935,1.2881,1.2996,1.3071,1.3105,1.3111,1.318,1.322,1.318,1.322,1.318,1.318,1.318,1.318,1.318,1.322,1.318,1.318,1.318,1.322,1.322,1.322,1.322,1.3166,1.3105,1.3003,1.0317,1.0324,1.0378,1.0399,1.0399,1.0458,1.0465,1.0465,0.0,0.0,0.0,1.0399,1.048,1.0642,1.0609,1.0751,1.0948,1.0955,1.105,1.12,1.1227,1.124,1.124,1.1268,1.1307,1.1423,1.1336,1.141,1.1606,1.1362,1.1369,1.155,1.1491,1.1491,1.1613,1.1584,1.1497,1.1288,1.1281,1.1274,1.1281,1.1281,1.1281,1.1281,1.1281,1.1281,1.1281,1.1281,1.1281,1.1281,1.1302,1.1302,1.1281,1.1329,1.1404,1.145,1.1232,1.1212,1.1484,1.128,1.1266,1.1674,1.1952,1.1979,1.1681,1.178,1.1965,1.2132,1.2166,1.2241,1.2352,1.2366,1.2427,1.2569,1.2583,1.2583,1.2589,1.2691,1.2726,1.2747,1.2874,1.3009,1.303,1.3037,1.305,1.3077,1.3105,1.3132,1.3241,1.318,1.3091,1.3118,1.32,1.3214,1.3275,1.3336,1.3431,1.3431,1.3458,1.3478,1.3478,1.3478,1.3478,1.3478,1.3478,1.3478,1.3478,1.3478,1.3478,1.3478,1.3478,1.3478,1.3458,1.3288,1.3132,1.0466,1.0487,1.0711,1.0819,1.0826,1.0982,1.107,1.1036,1.0662,1.0609,1.0819,1.0819,1.0934,1.1104,1.1104,1.1125,1.1166,1.1166,1.1179,1.1206,1.1336,1.1362,1.1369,1.1497,1.1565,1.1586,1.1565,1.1579,1.1606,1.1572,1.1579,1.1613,1.1599,1.1556,1.1584,1.1584,1.1599,1.1558,1.1558,1.1552,1.1558,1.1552,1.1523,1.1558,1.1552,1.1523,1.1558,1.1552,1.1558,1.1558,1.1638,1.1681,1.1572,1.1826,1.1928,1.1753,1.185,1.1962,1.1996,1.1962,1.1968,1.2036,1.22,1.2128,1.1807,1.206,1.2237,1.2264,1.2372,1.2501,1.2651,1.2664,1.2718,1.2861,1.2935,1.2935,1.2921,1.2948,1.2969,1.2969,1.2982,1.3064,1.318,1.3193,1.3248,1.3302,1.3342,1.339,1.3485,1.3437,1.3349,1.3342,1.3349,1.337,1.3397,1.3498,1.3587,1.3558,1.3653,1.37,1.37,1.37,1.37,1.3727,1.3707,1.3714,1.372,1.3734,1.3714,1.37,1.37,1.3707,1.37,1.3646,1.3565,1.0663,1.0751,1.0853,1.0961,1.107,1.1172,1.12,1.1179,1.0982,1.0961,1.1056,1.1063,1.1104,1.1193,1.12,1.1247,1.1322,1.1322,1.1335,1.1409,1.1484,1.1518,1.1525,1.155,1.1584,1.1584,1.1584,1.1584,1.1584,1.1584,1.1584,1.1584,1.1584,1.1584,1.1584,1.1584,1.1584,1.1584,1.1584,1.1584,1.1584,1.1584,1.1584,1.1584,1.1584,1.1584,1.1584,1.1584,1.1617,1.1698,1.1759,1.1837,1.1864,1.203,1.2104,1.2081,1.2104,1.2139,1.2182,1.2295,1.2264,1.2241,1.252,1.2562,1.23,1.2447,1.2562,1.2644,1.2718,1.2819,1.2847,1.2854,1.2881,1.2996,1.3003,1.3003,1.3009,1.3077,1.3111,1.3125,1.3186,1.3254,1.3403,1.3424,1.3478,1.3607,1.3641,1.3626,1.3687,1.3688,1.3599,1.3641,1.3641,1.3599,1.3641,1.3653,1.3693,1.37,1.3754,1.3795,1.3795,1.3802,1.3802,1.3795,1.3802,1.3795,1.3802,1.3795,1.3795,1.3795,1.3795,1.3795,1.3795,1.3795,1.3747,1.0853,1.0961,1.1002,1.1131,1.1295,1.1302,1.1267,1.1302,1.1302,1.1302,1.1295,1.1268,1.1268,1.1302,1.1302,1.1328,1.143,1.1443,1.1504,1.1606,1.1584,1.1584,1.1584,1.1584,1.1584,1.1584,1.1584,1.1584,1.1584,1.1584,1.1584,1.1584,1.1584,1.1584,1.1584,1.1584,1.1584,1.1584,1.1584,1.1584,1.1584,1.1584,1.1584,1.1584,1.1584,1.1584,1.1584,1.1584,1.1638,1.1739,1.1773,1.1847,1.2036,1.2077,1.2166,1.2302,1.2247,1.2268,1.2379,1.2488,1.2501,1.2406,1.2678,1.2847,1.2834,1.28,1.2827,1.2982,1.2982,1.3003,1.3043,1.305,1.3064,1.3091,1.3098,1.3132,1.3119,1.3254,1.3295,1.3322,1.3431,1.3546,1.3599,1.3632,1.3666,1.3754,1.3795,1.3802,1.3835,1.3892,1.3856,1.3876,1.3849,1.3781,1.3802,1.3835,1.3892,1.3849,1.3889,1.3923,1.3923,1.391,1.3903,1.3923,1.3916,1.393,1.391,1.391,1.3923,1.393,1.3937,1.3923,1.393,1.393,1.3869,1.1159,1.12,1.1315,1.1436,1.1558,1.1565,1.1565,1.1565,1.1572,1.1579,1.1545,1.143,1.1443,1.1565,1.1529,1.1572,1.1592,1.1599,1.1606,1.1613,1.1584,1.1584,1.1584,1.1584,1.1584,1.1584,1.1584,1.1584,1.1584,1.1584,1.1584,1.1584,1.1584,1.1584,1.1584,1.1584,1.1584,1.1584,1.1584,1.1584,1.1584,1.1584,1.1584,1.1584,1.1584,1.1584,1.1584,1.1584,1.159,1.1647,1.1739,1.1807,1.184,1.1986,1.2173,1.2322,1.2393,1.2528,1.2625,1.2659,1.2652,1.2645,1.2603,1.2732,1.3098,1.305,1.2982,1.3016,1.3009,1.3077,1.3173,1.32,1.3261,1.3329,1.3356,1.3417,1.3519,1.3538,1.3592,1.3727,1.3707,1.3768,1.3774,1.3788,1.3795,1.3842,1.3856,1.3889,1.4027,1.4048,1.4089,1.4156,1.3998,1.3835,1.3842,1.3966,1.4034,1.4105,1.4163,1.4204,1.4204,1.4217,1.4251,1.417,1.4217,1.4211,1.4224,1.4251,1.4231,1.419,1.4204,1.4238,1.4251,1.4231,1.4136,1.1247,1.1342,1.1362,1.1477,1.1606,1.1584,1.1584,1.1584,1.1584,1.1584,1.1613,1.1516,1.1565,1.1584,1.1584,1.1584,1.1584,1.1584,1.1584,1.1584,1.1584,1.1584,1.1584,1.1584,1.1584,1.1584,1.1584,1.1584,1.1584,1.1584,1.1584,1.1584,1.1584,1.1584,1.1584,1.1584,1.1584,1.1584,1.1584,1.1584,1.1584,1.1584,1.1584,1.1584,1.1584,1.1584,1.1626,1.1665,1.1789,1.1877,1.202,1.2142,1.2223,1.2291,1.2345,1.2413,1.2467,1.2528,1.2551,1.2638,1.2693,1.2693,1.2759,1.2861,1.3064,1.3111,1.3159,1.3207,1.3261,1.3247,1.3308,1.339,1.3471,1.3532,1.3565,1.3639,1.37,1.3714,1.3741,1.3788,1.3795,1.3835,1.3966,1.4055,1.4102,1.4109,1.4109,1.4129,1.4197,1.4211,1.4231,1.4272,1.4183,1.4129,1.4109,1.4156,1.4197,1.4217,1.4251,1.4299,1.4312,1.4299,1.4299,1.4306,1.4319,1.4319,1.4285,1.4299,1.4299,1.4312,1.4306,1.4299,1.4299,1.4299,1.4224,1.1355,1.1443,1.1457,1.1518,1.1584,1.1584,1.1584,1.1584,1.1584,1.1584,1.1584,1.1584,1.1584,1.1584,1.1584,1.1584,1.1584,1.1584,1.1584,1.1584,1.1584,1.1584,1.1584,1.1584,1.1584,1.1584,1.1584,1.1584,1.1584,1.1584,1.1584,1.1584,1.1584,1.1584,1.1584,1.1584,1.1604,1.1638,1.1644,1.1694,1.1735,1.1742,1.1721,1.1651,1.1721,1.1742,1.1742,1.1837,1.1945,1.2091,1.2207,1.2277,1.2372,1.2379,1.242,1.2501,1.2542,1.2562,1.2569,1.2632,1.2693,1.2693,1.2807,1.2928,1.3043,1.3118,1.3241,1.337,1.3397,1.341,1.3532,1.362,1.3626,1.3605,1.3714,1.3795,1.3795,1.3795,1.3829,1.3903,1.391,1.3939,1.4061,1.4183,1.4265,1.4217,1.4258,1.4299,1.4299,1.4292,1.4292,1.4299,1.4326,1.4333,1.4312,1.4285,1.4306,1.4353,1.4367,1.4387,1.4401,1.4421,1.4421,1.4502,1.4441,1.4428,1.4475,1.4448,1.4414,1.4421,1.4414,1.4421,1.4455,1.4407,1.4387,1.1606,1.1606,1.1606,1.1606,1.1584,1.1584,1.1584,1.1584,1.1584,1.1584,1.1584,1.1584,1.1584,1.1584,1.1584,1.1584,1.1584,1.1584,1.1584,1.1584,1.1584,1.1584,1.1584,1.1584,1.1584,1.1584,1.1584,1.1626,1.159,1.159,1.1584,1.1633,1.1647,1.1597,1.1611,1.1611,1.1658,1.1773,1.1823,1.1884,1.205,1.207,1.2002,1.1827,1.1959,1.2057,1.2064,1.2084,1.2098,1.2098,1.2132,1.2139,1.2139,1.2145,1.2237,1.2474,1.263,1.2672,1.2659,1.2679,1.2693,1.2679,1.2651,1.2712,1.3111,1.3098,1.3173,1.3376,1.341,1.3519,1.37,1.3727,1.37,1.3612,1.3714,1.3788,1.3795,1.3795,1.3937,1.4143,1.4095,1.4027,1.4061,1.4204,1.4211,1.4163,1.4211,1.4299,1.4299,1.4299,1.4299,1.434,1.4401,1.4455,1.434,1.4367,1.4407,1.4455,1.4516,1.4536,1.4599,1.4674,1.466,1.4647,1.4613,1.4613,1.4654,1.466,1.4633,1.462,1.4606,1.4606,1.4566,1.4518,1.455,1.1584,1.1584,1.1584,1.1584,1.1584,1.1584,1.1584,1.1584,1.1584,1.1584,1.1584,1.1584,1.1584,1.1584,1.1584,1.1584,1.1584,1.1584,1.1584,1.1584,1.1584,1.1584,1.1584,1.1584,1.1584,1.1584,1.1584,1.1631,1.1712,1.1719,1.1809,1.1928,1.1904,1.1904,1.1904,1.1898,1.1932,1.1972,1.1979,1.2006,1.2111,1.2193,1.2176,1.2128,1.2118,1.2098,1.2098,1.2193,1.2247,1.221,1.2291,1.2345,1.2345,1.2383,1.2386,1.2488,1.2556,1.2583,1.2589,1.2678,1.2693,1.2693,1.2779,1.2887,1.3043,1.3118,1.318,1.3363,1.3498,1.3599,1.372,1.372,1.3646,1.3619,1.3707,1.3795,1.3795,1.3795,1.3849,1.393,1.391,1.3926,1.396,1.4055,1.4122,1.4139,1.4197,1.4278,1.4299,1.4299,1.4326,1.4414,1.4475,1.4529,1.4552,1.4539,1.4559,1.4586,1.462,1.4626,1.474,1.4728,1.4714,1.4735,1.4741,1.4741,1.4755,1.4748,1.4794,1.4741,1.4735,1.4801,1.4687,1.4699,1.4654,1.1584,1.1584,1.1584,1.1584,1.1584,1.1584,1.1584,1.1584,1.1584,1.1584,1.1584,1.1584,1.1584,1.1584,1.1584,1.1584,1.1584,1.1584,1.1584,1.1584,1.1584,1.1584,1.1584,1.1584,1.1647,1.1658,1.1742,1.1789,1.1793,1.1884,1.1959,1.2091,1.2098,1.2098,1.2098,1.2098,1.2118,1.2159,1.2135,1.2193,1.2247,1.2305,1.2359,1.2345,1.2295,1.2241,1.2247,1.2305,1.2359,1.2372,1.2454,1.2501,1.2501,1.2501,1.2501,1.2508,1.2556,1.2576,1.2557,1.2718,1.2807,1.2807,1.2895,1.3016,1.3064,1.3159,1.3282,1.3383,1.3485,1.3607,1.3612,1.3565,1.3573,1.3592,1.3714,1.3774,1.3741,1.3727,1.3727,1.3741,1.3788,1.3781,1.3754,1.3912,1.3953,1.3939,1.4055,1.4156,1.4211,1.4278,1.4353,1.4489,1.4611,1.4706,1.4787,1.4828,1.4808,1.4828,1.4775,1.4821,1.4841,1.4809,1.4816,1.4823,1.4829,1.4875,1.4882,1.4882,1.4875,1.4823,1.4923,1.497,1.4909,1.4855,1.4862,1.1584,1.1584,1.1584,1.1584,1.1584,1.1584,1.1584,1.1584,1.1584,1.1584,1.1584,1.1584,1.1584,1.1584,1.1584,1.1584,1.1584,1.1584,1.1584,1.1584,1.1584,1.1584,1.1584,1.1604,1.1678,1.1837,1.1979,1.1972,1.1847,1.2036,1.2111,1.2118,1.2145,1.2159,1.2118,1.2152,1.22,1.2295,1.2291,1.2352,1.2481,1.2481,1.2481,1.2488,1.2474,1.2467,1.2481,1.2488,1.2481,1.2488,1.2494,1.2501,1.2515,1.2522,1.2515,1.2562,1.2618,1.2686,1.2745,1.2874,1.3003,1.3009,1.3016,1.3098,1.32,1.3234,1.3295,1.337,1.341,1.3424,1.3431,1.3431,1.3471,1.3607,1.3673,1.3687,1.3619,1.3585,1.3585,1.3599,1.3673,1.372,1.3653,1.3707,1.3761,1.372,1.3838,1.3987,1.4129,1.4258,1.4367,1.4529,1.4719,1.4875,1.5023,1.5112,1.5038,1.5011,1.4991,1.4977,1.5038,1.5059,1.5045,1.5052,1.5045,1.5045,1.5045,1.5045,1.5065,1.5072,1.512,1.5106,1.5059,1.5018,1.5038,1.1584,1.1584,1.1584,1.1584,1.1584,1.1584,1.1584,1.1584,1.1584,1.1584,1.1584,1.1584,1.1584,1.1584,1.1584,1.1584,1.1584,1.1584,1.1584,1.159,1.1584,1.159,1.1611,1.1685,1.1843,1.1979,1.2033,1.2132,1.2142,1.2196,1.2264,1.2383,1.2397,1.2366,1.2352,1.2366,1.24,1.2427,1.244,1.2461,1.2501,1.2501,1.2501,1.2501,1.2501,1.2501,1.2501,1.2501,1.2501,1.2508,1.2501,1.2549,1.2637,1.2618,1.2705,1.2846,1.2901,1.2888,1.2941,1.3017,1.3146,1.3166,1.3193,1.3275,1.3322,1.3322,1.3342,1.3397,1.3397,1.3397,1.3397,1.3397,1.3424,1.3464,1.3512,1.3539,1.3498,1.3478,1.3471,1.3478,1.3512,1.3512,1.3519,1.3614,1.3687,1.3741,1.3892,1.4034,1.4197,1.4333,1.4496,1.4613,1.4855,1.5057,1.5132,1.5173,1.5113,1.5092,1.5086,1.5079,1.5147,1.5181,1.5181,1.5181,1.5181,1.5181,1.5181,1.5181,1.5181,1.5181,1.516,1.516,1.5174,1.5167,1.5147,1.1584,1.1584,1.1584,1.1584,1.1584,1.1584,1.1584,1.1584,1.1584,1.1584,1.1584,1.1584,1.1584,1.1597,1.1638,1.1665,1.1708,1.1755,1.1782,1.1769,1.1678,1.1692,1.1796,1.1932,1.2006,1.2111,1.2213,1.2281,1.2291,1.2345,1.2413,1.2488,1.2501,1.2494,1.2501,1.2501,1.2501,1.2501,1.2501,1.2501,1.2501,1.2501,1.2501,1.2501,1.2501,1.2501,1.2508,1.2549,1.2583,1.2596,1.2637,1.2718,1.2807,1.282,1.2861,1.2982,1.305,1.3077,1.3098,1.3173,1.3261,1.3322,1.3349,1.3397,1.3397,1.3397,1.3397,1.3397,1.3397,1.3397,1.3397,1.3397,1.3397,1.3397,1.341,1.3397,1.3397,1.3397,1.3403,1.3424,1.3464,1.3478,1.3512,1.3614,1.3693,1.3802,1.3883,1.4041,1.4204,1.4387,1.4505,1.4649,1.4936,1.5065,1.5153,1.5174,1.5174,1.5167,1.516,1.5153,1.5174,1.5181,1.5181,1.5181,1.5181,1.5181,1.5181,1.5181,1.5181,1.5181,1.5181,1.5181,1.5181,1.5181,1.5167,1.1584,1.1584,1.1584,1.1584,1.1584,1.1584,1.1584,1.1584,1.1584,1.1584,1.1584,1.1584,1.159,1.1624,1.1726,1.178,1.1827,1.1959,1.207,1.205,1.1945,1.1938,1.2098,1.2176,1.2234,1.2213,1.2359,1.2413,1.2338,1.2427,1.2501,1.2501,1.2501,1.2501,1.2501,1.2501,1.2501,1.2501,1.2501,1.2501,1.2501,1.2501,1.2515,1.2522,1.2528,1.2542,1.2589,1.2705,1.2759,1.2759,1.2861,1.2969,1.3003,1.3009,1.3016,1.3064,1.3159,1.3214,1.3214,1.3295,1.3376,1.3376,1.3383,1.3397,1.3397,1.3397,1.3397,1.3397,1.3397,1.3397,1.3397,1.3024,1.2893,1.2893,1.2602,1.2775,1.2912,1.2669,1.223,1.2464,1.3043,1.3085,1.253,1.2679,1.2778,1.2828,1.2761,1.2712,1.3467,1.3547,1.4235,1.4616,1.4904,1.5079,1.516,1.5181,1.5181,1.5181,1.5181,1.5181,1.5181,1.5181,1.5181,1.5181,1.5181,1.5181,1.5181,1.5181,1.5181,1.5181,1.5181,1.5181,1.5181,1.5181,1.5181,1.1584,1.1584,1.1584,1.1584,1.1584,1.1584,1.1584,1.1584,1.1584,1.159,1.1584,1.1584,1.1651,1.1739,1.178,1.1891,1.1993,1.2054,1.2173,1.2216,1.2196,1.2182,1.2261,1.2271,1.2325,1.2379,1.2447,1.2481,1.2447,1.2481,1.2501,1.2501,1.2501,1.2501,1.2501,1.2501,1.2501,1.2501,1.2501,1.2501,1.2501,1.2501,1.2562,1.2625,1.2664,1.2725,1.2873,1.3016,1.3043,1.2908,1.2975,1.305,1.3146,1.3159,1.32,1.3254,1.3302,1.3336,1.3342,1.3376,1.3397,1.3397,1.3397,1.3397,1.3397,1.3397,1.3397,1.3397,1.3397,1.3314,1.3106,1.1843,1.0419,0.8957,0.9795,1.02,0.9123,0.8437,0.8459,0.8484,0.868,0.8873,0.8968,0.8994,0.9034,0.9126,0.9327,0.9699,1.1092,1.1749,1.2057,1.4023,1.4751,1.4992,1.514,1.5167,1.5181,1.5181,1.5181,1.5181,1.5181,1.5181,1.5181,1.5181,1.5181,1.5181,1.5181,1.5181,1.5181,1.5181,1.5181,1.5181,1.5181,1.5181,1.5181,1.1584,1.1584,1.1584,1.1584,1.1584,1.1584,1.1584,1.1597,1.1687,1.1708,1.1721,1.1782,1.185,1.1932,1.1999,1.2074,1.2155,1.2223,1.2298,1.2359,1.2372,1.2379,1.2379,1.2379,1.2427,1.2488,1.2501,1.2501,1.2494,1.2501,1.2501,1.2501,1.2501,1.2501,1.2501,1.2501,1.2501,1.2501,1.2501,1.2501,1.2501,1.2501,1.2589,1.2659,1.2699,1.282,1.3064,1.3173,1.3173,1.3118,1.3152,1.3186,1.3295,1.3268,1.3308,1.3397,1.3397,1.3397,1.3397,1.3397,1.3397,1.3397,1.3397,1.3397,1.3397,1.3397,1.3397,1.3397,1.2602,1.2056,1.1635,0.9961,0.7744,0.6035,0.6491,0.7056,0.6596,0.6919,0.6744,0.6709,0.6759,0.6755,0.6758,0.6735,0.6814,0.7112,0.7434,0.8079,0.8926,0.9285,0.9921,1.1627,1.2305,1.1962,1.2383,1.261,1.3469,1.3711,1.4657,1.4751,1.5181,1.5181,1.5181,1.5181,1.5181,1.5181,1.5181,1.5181,1.5181,1.5181,1.5181,1.5181,1.5181,1.5181,1.5181,1.1584,1.1584,1.1584,1.1584,1.1584,1.1633,1.1617,1.1638,1.1796,1.1857,1.1877,1.2036,1.2077,1.2132,1.2189,1.2291,1.2318,1.2406,1.2461,1.2481,1.2481,1.2481,1.2474,1.2474,1.2481,1.2501,1.2501,1.2501,1.2501,1.2501,1.2501,1.2501,1.2501,1.2501,1.2501,1.2501,1.2501,1.2501,1.2501,1.2522,1.2542,1.2562,1.2651,1.2813,1.2835,1.2976,1.318,1.3254,1.3241,1.32,1.3329,1.337,1.339,1.3397,1.3397,1.3397,1.3397,1.3397,1.3397,1.3397,1.3397,1.3397,1.3397,1.3189,1.2899,1.2685,1.2478,1.189,1.0757,0.9665,0.8832,0.7372,0.5457,0.3619,0.3157,0.4078,0.5435,0.6023,0.602,0.5998,0.6019,0.6153,0.6224,0.0,0.6165,0.4404,0.4858,0.5397,0.6177,0.6809,0.7467,0.8457,0.859,0.8115,0.8872,0.9728,1.0913,1.1909,1.3328,1.4087,1.504,1.5181,1.5181,1.5181,1.5181,1.5181,1.5181,1.5181,1.5181,1.5181,1.5181,1.5181,1.5181,1.5181,1.5181,1.1584,1.1584,1.1584,1.1584,1.1597,1.1735,1.1746,1.1766,1.1945,1.205,1.2057,1.2091,1.2179,1.2244,1.2291,1.2345,1.2433,1.2488,1.2501,1.2501,1.2501,1.2501,1.2501,1.2501,1.2501,1.2501,1.2501,1.2501,1.2501,1.2501,1.2501,1.2501,1.2501,1.2501,1.2501,1.2501,1.2501,1.2501,1.2501,1.2576,1.2618,1.2645,1.28,1.303,1.3166,1.3261,1.3322,1.3349,1.3349,1.3363,1.3376,1.3397,1.3397,1.3397,1.3397,1.3397,1.3397,1.3397,1.3355,1.3189,1.3314,1.2982,1.2727,1.2644,1.084,1.0798,0.992,0.8665,0.7618,0.6703,0.5198,0.4444,0.3116,0.1568,0.0,0.0,0.0,0.0,0.0,0.0,0.0,0.0,0.0,0.0,0.0,0.0,0.0,0.0,0.0,0.0,0.4957,0.5686,0.5883,0.5706,0.6177,0.7437,0.9204,1.0725,1.2286,1.3758,1.4704,1.5181,1.5181,1.5181,1.5181,1.5181,1.5181,1.5181,1.5181,1.5181,1.5181,1.5181,1.5181,1.5181,1.5181,1.1584,1.1584,1.1584,1.166,1.1685,1.1803,1.187,1.1959,1.2139,1.2207,1.2227,1.2268,1.2318,1.2386,1.2393,1.244,1.2481,1.2501,1.2501,1.2501,1.2501,1.2501,1.2501,1.2501,1.2501,1.2501,1.2501,1.2501,1.2501,1.2501,1.2501,1.2501,1.2501,1.2501,1.2501,1.2508,1.2501,1.2522,1.2576,1.2651,1.2679,1.2807,1.2929,1.3193,1.3315,1.3397,1.3397,1.3397,1.3397,1.3397,1.3397,1.3397,1.3397,1.3397,1.3397,1.3397,1.3397,1.2727,1.2181,1.1766,1.1303,1.0424,1.0299,0.9628,0.879,0.8498,0.804,0.6825,0.57,0.4237,0.21,0.1764,0.0,0.0,0.0,0.0,0.0,0.0,0.0,0.0,0.0,0.0,0.0,0.0,0.0,0.0,0.0,0.0,0.0,0.0,0.0,0.2833,0.3279,0.3543,0.3813,0.5252,0.7687,0.9582,1.1621,1.3281,1.4751,1.504,1.5181,1.5181,1.5181,1.5181,1.5181,1.5181,1.5181,1.5181,1.5181,1.5181,1.5181,1.5181,1.5181,1.1597,1.1653,1.1617,1.1698,1.182,1.1861,1.1986,1.2108,1.2295,1.2356,1.2338,1.2454,1.2467,1.2494,1.2488,1.2501,1.2501,1.2501,1.2501,1.2501,1.2501,1.2501,1.2501,1.2501,1.2501,1.2501,1.2501,1.2501,1.2501,1.2501,1.2501,1.2501,1.2501,1.2501,1.2501,1.2535,1.2556,1.2576,1.2698,1.2793,1.2834,1.2942,1.3105,1.322,1.3322,1.3397,1.3397,1.3397,1.3397,1.3397,1.3397,1.3397,1.3397,1.3397,1.3397,1.3355,1.2941,1.189,1.0632,0.9836,0.879,0.6787,0.6871,0.6578,0.6369,0.6118,0.5742,0.4947,0.3734,0.2184,0.0,0.0,0.0,0.0,0.0,0.0,0.0,0.0,0.0,0.0,0.0,0.0,0.0,0.0,0.0,0.0,0.0,0.0,0.0,0.0,0.0,0.0,0.0,0.0,0.0,0.2512,0.4988,0.7595,0.9964,1.2051,1.3899,1.4852,1.504,1.5181,1.5181,1.5181,1.5181,1.5181,1.5181,1.5181,1.5181,1.5181,1.5181,1.5181,1.5181,1.1651,1.1759,1.1759,1.1847,1.2033,1.2118,1.2141,1.2309,1.24,1.2461,1.2467,1.2488,1.2501,1.2501,1.2501,1.2501,1.2501,1.2501,1.2501,1.2501,1.2501,1.2501,1.2501,1.2501,1.2501,1.2501,1.2501,1.2501,1.2501,1.2501,1.2501,1.2501,1.2501,1.2501,1.2549,1.2617,1.2678,1.2712,1.284,1.3003,1.3084,1.3152,1.32,1.3322,1.3383,1.3397,1.3397,1.3397,1.3397,1.3397,1.3397,1.3397,1.3314,1.3314,1.3148,1.281,1.1677,1.0549,0.9332,0.8081,0.7288,0.6787,0.6285,0.5365,0.4402,0.386,0.3316,0.0,0.0,0.0,0.0,0.0,0.0,0.0,0.0,0.0,0.0,0.0,0.0,0.0,0.0,0.0,0.0,0.0,0.0,0.0,0.0,0.0,0.0,0.0,0.0,0.0,0.0,0.0,0.0,0.0,0.2096,0.4798,0.7261,0.9728,1.1715,1.3993,1.4852,1.504,1.5181,1.5181,1.5181,1.5181,1.5181,1.5181,1.5181,1.5181,1.5181,1.5181,1.5181,0.9265,1.0187,0.9181,1.0076,1.1792,1.11,1.1403,1.233,1.2474,1.2501,1.2501,1.2501,1.2501,1.2501,1.2501,1.2501,1.2501,1.2501,1.2501,1.2501,1.2501,1.2501,1.2501,1.2501,1.2501,1.2501,1.2501,1.2508,1.2501,1.2501,1.2508,1.2501,1.2501,1.2535,1.2617,1.2691,1.2779,1.2854,1.3037,1.3146,1.322,1.3234,1.3336,1.3376,1.3397,1.3397,1.3397,1.3397,1.3397,1.3397,1.3397,1.3397,1.3065,1.2353,1.1635,1.1386,1.046,0.8749,0.7118,0.5365,0.4486,0.3274,0.0,0.2813,0.1974,0.1513,0.0,0.0,0.0,0.0,0.0,0.0,0.0,0.0,0.0,0.0,0.0,0.0,0.0,0.0,0.0,0.0,0.0,0.0,0.0,0.0,0.0,0.0,0.0,0.0,0.0,0.0,0.0,0.0,0.0,0.0,0.0,0.2713,0.4941,0.7359,0.9823,1.2239,1.404,1.4993,1.5087,1.5181,1.5181,1.5181,1.5181,1.5181,1.5181,1.5181,1.5181,1.5181,1.5181,0.6768,0.8168,0.654,0.7882,1.0506,0.9354,0.9559,1.1115,1.1637,1.176,1.1953,1.2308,1.2501,1.2501,1.2501,1.2501,1.2501,1.2501,1.2501,1.2501,1.2501,1.2501,1.2508,1.2535,1.2562,1.2576,1.263,1.2556,1.2515,1.2549,1.2556,1.2583,1.2576,1.2644,1.2759,1.284,1.2941,1.3043,1.318,1.3254,1.3295,1.3329,1.3397,1.3397,1.3397,1.3397,1.3397,1.3397,1.3397,1.3397,1.3355,1.3148,1.2519,1.1006,0.967,0.8874,0.8749,0.6575,0.4612,0.2771,0.2058,0.0,0.0,0.0,0.0,0.0,0.0,0.0,0.0,0.0,0.0,0.0,0.0,0.0,0.0,0.0,0.0,0.0,0.0,0.0,0.0,0.0,0.0,0.0,0.0,0.0,0.0,0.0,0.0,0.0,0.0,0.0,0.0,0.0,0.0,0.0,0.0,0.1667,0.3567,0.5605,0.8069,1.0583,1.2187,1.3739,1.5134,1.5181,1.5181,1.5181,1.5181,1.5181,1.5181,1.5181,1.5181,1.5181,1.5181,0.6022,0.6319,0.6014,0.6403,0.7049,0.6781,0.6789,0.7423,0.91,0.9765,0.9881,1.1482,1.2147,1.2069,1.2108,1.2308,1.2237,1.1934,1.1908,1.2044,1.216,1.2316,1.2542,1.2651,1.2652,1.2718,1.282,1.2732,1.263,1.2664,1.2698,1.2686,1.2807,1.2915,1.2969,1.305,1.3125,1.3173,1.3295,1.3363,1.3363,1.3383,1.3397,1.3397,1.3397,1.3397,1.3314,1.3189,1.3065,1.3106,1.3189,1.2305,1.0798,1.0294,0.7748,0.5533,0.4111,0.3902,0.2939,0.1681,0.0,0.0,0.0,0.0,0.0,0.0,0.0,0.0,0.0,0.0,0.0,0.0,0.0,0.0,0.0,0.0,0.0,0.0,0.0,0.0,0.0,0.0,0.0,0.0,0.0,0.0,0.0,0.0,0.0,0.0,0.0,0.0,0.0,0.0,0.0,0.0,0.0,0.0,0.0,0.0,0.5999,0.8344,1.0314,1.1867,1.3445,1.4631,1.4424,1.4477,1.4979,1.5181,1.5181,1.5181,1.5181,1.5181,1.5181,0.3247,0.4229,0.3106,0.4087,0.602,0.5045,0.5201,0.6332,0.7228,0.7661,0.7777,0.8517,0.8983,0.9187,0.8983,0.8944,0.9022,0.9154,0.9785,1.0702,1.095,1.1509,1.2582,1.2827,1.2861,1.2556,1.2915,1.2941,1.2767,1.2694,1.2861,1.2874,1.2975,1.3043,1.3111,1.318,1.322,1.3288,1.337,1.3397,1.3397,1.3355,1.3314,1.3314,1.3272,1.3189,1.2982,1.2015,1.1594,1.122,1.0507,0.9249,0.804,0.6996,0.5114,0.3902,0.21,0.1555,0.1262,0.0,0.0,0.0,0.0,0.0,0.0,0.0,0.0,0.0,0.0,0.0,0.0,0.0,0.0,0.0,0.0,0.0,0.0,0.0,0.0,0.0,0.0,0.0,0.0,0.0,0.0,0.0,0.0,0.0,0.0,0.0,0.0,0.0,0.0,0.0,0.0,0.0,0.0,0.0,0.0,0.0,0.0,0.5893,0.7831,0.9692,1.1257,1.2245,1.3046,1.4224,1.508,1.5181,1.5181,1.5181,1.5181,1.5181,1.5181,0.0941,0.2155,0.0667,0.1881,0.4539,0.2975,0.3171,0.4615,0.5279,0.5513,0.5675,0.6118,0.6413,0.6309,0.6559,0.6749,0.647,0.6274,0.7229,0.8317,0.8943,0.9657,1.0346,1.1016,1.1097,1.1426,1.079,1.0831,1.1033,1.1311,1.1468,1.2936,1.3132,1.3139,1.3207,1.3206,1.3089,1.2281,1.2299,1.2015,1.1511,1.1427,1.1469,1.1552,1.1724,1.1718,1.1469,1.0294,0.9249,0.8874,0.7998,0.6992,0.5867,0.4779,0.3442,0.231,0.0925,0.0,0.0,0.0,0.0,0.0,0.0,0.0,0.0,0.0,0.0,0.0,0.0,0.0,0.0,0.0,0.0,0.0,0.0,0.0,0.0,0.0,0.0,0.0,0.0,0.0,0.0,0.0,0.0,0.0,0.0,0.0,0.0,0.0,0.0,0.0,0.0,0.0,0.0,0.0,0.0,0.0,0.0,0.0,0.0,0.0,0.5301,0.7137,0.8839,1.0603,1.1783,1.3588,1.5181,1.5181,1.5181,1.5181,1.5181,1.5174,1.5174,0.0079,0.0196,0.0,0.0,0.0,0.0,0.0,0.1137,0.2624,0.3292,0.3579,0.5063,0.5716,0.591,0.5552,0.5641,0.6022,0.6223,0.624,0.6324,0.6596,0.6985,0.7616,0.7823,0.7528,0.7536,0.8024,0.7945,0.7467,0.8264,1.0056,1.2568,1.2045,1.2875,1.2819,1.209,1.147,1.0632,1.0294,0.9378,0.8373,0.7831,0.7789,0.7664,0.7414,0.7201,0.7201,0.7076,0.6909,0.6867,0.6073,0.5114,0.3734,0.3149,0.21,0.0967,0.0,0.0,0.0,0.0,0.0,0.0,0.0,0.0,0.0,0.0,0.0,0.0,0.0,0.0,0.0,0.0,0.0,0.0,0.0,0.0,0.0,0.0,0.0,0.0,0.0,0.0,0.0,0.0,0.0,0.0,0.0,0.0,0.0,0.0,0.0,0.0,0.0,0.0,0.0,0.0,0.0,0.0,0.0,0.0,0.0,0.0,0.0,0.4382,0.6095,0.8347,1.062,1.2303,1.3774,1.4759,1.516,1.5079,1.5086,1.5099,1.512,0.0,0.0,0.0,0.0,0.0,0.0,0.0,0.0,0.083,0.1195,0.0,0.0,0.0,0.0,0.0,0.2445,0.2417,0.2419,0.329,0.4172,0.4551,0.5294,0.5884,0.6343,0.6701,0.6452,0.6565,0.6703,0.6864,0.6244,0.7194,0.8884,0.9234,0.9198,0.9249,0.9711,0.8915,0.8457,0.7998,0.7368,0.7121,0.6703,0.6703,0.6703,0.6703,0.6703,0.6617,0.5282,0.4863,0.4363,0.3441,0.0,0.0,0.0,0.0,0.0,0.0,0.0,0.0,0.0,0.0,0.0,0.0,0.0,0.0,0.0,0.0,0.0,0.0,0.0,0.0,0.0,0.0,0.0,0.0,0.0,0.0,0.0,0.0,0.0,0.0,0.0,0.0,0.0,0.0,0.0,0.0,0.0,0.0,0.0,0.0,0.0,0.0,0.0,0.0,0.0,0.0,0.0,0.0,0.0,0.0,0.0,0.0,0.0,0.3338,0.5401,0.7763,1.0543,1.2373,1.374,1.452,1.4889,1.493,1.5004,1.5031,0.0,0.0,0.0,0.0,0.0,0.0,0.0,0.0,0.0,0.0,0.0,0.0,0.0,0.0,0.0,0.0,0.0,0.0,0.0,0.1842,0.2557,0.3357,0.4235,0.4484,0.4061,0.0,0.0,0.4444,0.4237,0.4614,0.4568,0.4568,0.4821,0.524,0.6992,0.6662,0.6408,0.5867,0.57,0.5156,0.4821,0.4528,0.4446,0.4363,0.4279,0.4237,0.3902,0.2939,0.2436,0.1975,0.0,0.0,0.0,0.0,0.0,0.0,0.0,0.0,0.0,0.0,0.0,0.0,0.0,0.0,0.0,0.0,0.0,0.0,0.0,0.0,0.0,0.0,0.0,0.0,0.0,0.0,0.0,0.0,0.0,0.0,0.0,0.0,0.0,0.0,0.0,0.0,0.0,0.0,0.0,0.0,0.0,0.0,0.0,0.0,0.0,0.0,0.0,0.0,0.0,0.0,0.0,0.0,0.0,0.0,0.1904,0.2821,0.4737,0.7292,1.0163,1.2946,1.3775,1.4714,1.4755,1.4875,1.4889,0.0,0.0,0.0,0.0,0.0,0.0,0.0,0.0,0.0,0.0,0.0,0.0,0.0,0.0,0.0,0.0,0.0,0.0,0.0,0.0,0.0,0.0,0.0,0.0,0.0,0.0,0.0,0.0,0.0,0.0,0.0,0.0,0.0,0.2603,0.6244,0.6536,0.5491,0.3776,0.3442,0.2352,0.0,0.0,0.0,0.0,0.0,0.0,0.0,0.0,0.0,0.0,0.0,0.0,0.0,0.0,0.0,0.0,0.0,0.0,0.0,0.0,0.0,0.0,0.0,0.0,0.0,0.0,0.0,0.0,0.0,0.0,0.0,0.0,0.0,0.0,0.0,0.0,0.0,0.0,0.0,0.0,0.0,0.0,0.0,0.0,0.0,0.0,0.0,0.0,0.0,0.0,0.0,0.0,0.0,0.0,0.0,0.0,0.0,0.0,0.0,0.0,0.0,0.0,0.0,0.0,0.054,0.1536,0.2611,0.39,0.754,1.1158,1.3595,1.4633,1.4674,1.4687,1.474,0.0,0.0,0.0,0.0,0.0,0.0,0.0,0.0,0.0,0.0,0.0,0.0,0.0,0.0,0.0,0.0,0.0,0.0,0.0,0.0,0.0,0.0,0.0,0.0,0.0,0.0,0.0,0.0,0.0,0.0,0.0,0.0,0.0,0.0,0.1849,0.2226,0.1639,0.1262,0.1051,0.0,0.0,0.0,0.0,0.0,0.0,0.0,0.0,0.0,0.0,0.0,0.0,0.0,0.0,0.0,0.0,0.0,0.0,0.0,0.0,0.0,0.0,0.0,0.0,0.0,0.0,0.0,0.0,0.0,0.0,0.0,0.0,0.0,0.0,0.0,0.0,0.0,0.0,0.0,0.0,0.0,0.0,0.0,0.0,0.0,0.0,0.0,0.0,0.0,0.0,0.0,0.0,0.0,0.0,0.0,0.0,0.0,0.0,0.0,0.0,0.0,0.0,0.0,0.0,0.0,0.0,0.0314,0.1479,0.3001,0.6183,0.9366,1.186,1.397,1.4509,1.4543,1.459,0.0,0.0,0.0,0.0,0.0,0.0,0.0,0.0,0.0,0.0,0.0,0.0,0.0,0.0,0.0,0.0,0.0,0.0,0.0,0.0,0.0,0.0,0.0,0.0,0.0,0.0,0.0,0.0,0.0,0.0,0.0,0.0,0.0,0.0,0.0,0.0,0.0,0.0,0.0,0.0,0.0,0.0,0.0,0.0,0.0,0.0,0.0,0.0,0.0,0.0,0.0,0.0,0.0,0.0,0.0,0.0,0.0,0.0,0.0,0.0,0.0,0.0,0.0,0.0,0.0,0.0,0.0,0.0,0.0,0.0,0.0,0.0,0.0,0.0,0.0,0.0,0.0,0.0,0.0,0.0,0.0,0.0,0.0,0.0,0.0,0.0,0.0,0.0,0.0,0.0,0.0,0.0,0.0,0.0,0.0,0.0,0.0,0.0,0.0,0.0,0.0,0.0,0.0,0.0,0.0,0.0,0.0,0.2375,0.4975,0.7613,1.0303,1.2233,1.3856,1.4367,1.4455,0.0,0.0,0.0,0.0,0.0,0.0,0.0,0.0,0.0,0.0,0.0,0.0,0.0,0.0,0.0,0.0,0.0,0.0,0.0,0.0,0.0,0.0,0.0,0.0,0.0,0.0,0.0,0.0,0.0,0.0,0.0,0.0,0.0,0.0,0.0,0.0,0.0,0.0,0.0,0.0,0.0,0.0,0.0,0.0,0.0,0.0,0.0,0.0,0.0,0.0,0.0,0.0,0.0,0.0,0.0,0.0,0.0,0.0,0.0,0.0,0.0,0.0,0.0,0.0,0.0,0.0,0.0,0.0,0.0,0.0,0.0,0.0,0.0,0.0,0.0,0.0,0.0,0.0,0.0,0.0,0.0,0.0,0.0,0.0,0.0,0.0,0.0,0.0,0.0,0.0,0.0,0.0,0.0,0.0,0.0,0.0,0.0,0.0,0.0,0.0,0.0,0.0,0.0,0.0,0.0,0.0,0.0,0.0,0.3095,0.573,0.8071,1.0476,1.2144,1.3951,1.436,0.0,0.0,0.0,0.0,0.0,0.0,0.0,0.0,0.0,0.0,0.0,0.0,0.0,0.0,0.0,0.0,0.0,0.0,0.0,0.0,0.0,0.0,0.0,0.0,0.0,0.0,0.0,0.0,0.0,0.0,0.0,0.0,0.0,0.0,0.0,0.0,0.0,0.0,0.0,0.0,0.0,0.0,0.0,0.0,0.0,0.0,0.0,0.0,0.0,0.0,0.0,0.0,0.0,0.0,0.0,0.0,0.0,0.0,0.0,0.0,0.0,0.0,0.0,0.0,0.0,0.0,0.0,0.0,0.0,0.0,0.0,0.0,0.0,0.0,0.0,0.0,0.0,0.0,0.0,0.0,0.0,0.0,0.0,0.0,0.0,0.0,0.0,0.0,0.0,0.0,0.0,0.0,0.0,0.0,0.0,0.0,0.0,0.0,0.0,0.0,0.0,0.0,0.0,0.0,0.0,0.0,0.0,0.0,0.0,0.3116,0.5331,0.7971,1.0426,1.2307,1.4069,0.0,0.0,0.0,0.0,0.0,0.0,0.0,0.0,0.0,0.0,0.0,0.0,0.0,0.0,0.0,0.0,0.0,0.0,0.0,0.0,0.0,0.0,0.0,0.0,0.0,0.0,0.0,0.0,0.0,0.0,0.0,0.0,0.0,0.0,0.0,0.0,0.0,0.0,0.0,0.0,0.0,0.0,0.0,0.0,0.0,0.0,0.0,0.0,0.0,0.0,0.0,0.0,0.0,0.0,0.0,0.0,0.0,0.0,0.0,0.0,0.0,0.0,0.0,0.0,0.0,0.0,0.0,0.0,0.0,0.0,0.0,0.0,0.0,0.0,0.0,0.0,0.0,0.0,0.0,0.0,0.0,0.0,0.0,0.0,0.0,0.0,0.0,0.0,0.0,0.0,0.0,0.0,0.0,0.0,0.0,0.0,0.0,0.0,0.0,0.0,0.0,0.0,0.0,0.0,0.0,0.0,0.0,0.0,0.0773,0.1913,0.3286,0.5882,0.8557,1.0861,1.2599,0.0,0.0,0.0,0.0,0.0,0.0,0.0,0.0,0.0,0.0,0.0,0.0,0.0,0.0,0.0,0.0,0.0,0.0,0.0,0.0,0.0,0.0,0.0,0.0,0.0,0.0,0.0,0.0,0.0,0.0,0.0,0.0,0.0,0.0,0.0,0.0,0.0,0.0,0.0,0.0,0.0,0.0,0.0,0.0,0.0,0.0,0.0,0.0,0.0,0.0,0.0,0.0,0.0,0.0,0.0,0.0,0.0,0.0,0.0,0.0,0.0,0.0,0.0,0.0,0.0,0.0,0.0,0.0,0.0,0.0,0.0,0.0,0.0,0.0,0.0,0.0,0.0,0.0,0.0,0.0,0.0,0.0,0.0,0.0,0.0,0.0,0.0,0.0,0.0,0.0,0.0,0.0,0.0,0.0,0.0,0.0,0.0,0.0,0.0,0.0,0.0,0.0,0.0,0.0,0.0,0.0,0.0,0.0,0.0,0.0599,0.2123,0.4157,0.6552,0.9161,1.1883,0.0,0.0,0.0,0.0,0.0,0.0,0.0,0.0,0.0,0.0,0.0,0.0,0.0,0.0,0.0,0.0,0.0,0.0,0.0,0.0,0.0,0.0,0.0,0.0,0.0,0.0,0.0,0.0,0.0,0.0,0.0,0.0,0.0,0.0,0.0,0.0,0.0,0.0,0.0,0.0,0.0,0.0,0.0,0.0,0.0,0.0,0.0,0.0,0.0,0.0,0.0,0.0,0.0,0.0,0.0,0.0,0.0,0.0,0.0,0.0,0.0,0.0,0.0,0.0,0.0,0.0,0.0,0.0,0.0,0.0,0.0,0.0,0.0,0.0,0.0,0.0,0.0,0.0,0.0,0.0,0.0,0.0,0.0,0.0,0.0,0.0,0.0,0.0,0.0,0.0,0.0,0.0,0.0,0.0,0.0,0.0,0.0,0.0,0.0,0.0,0.0,0.0,0.0,0.0,0.0,0.0,0.0,0.0,0.0,0.0,0.0841,0.2809,0.5008,0.7473,1.0784,0.0,0.0,0.0,0.0,0.0,0.0,0.0,0.0,0.0,0.0,0.0,0.0,0.0,0.0,0.0,0.0,0.0,0.0,0.0,0.0,0.0,0.0,0.0,0.0,0.0,0.0,0.0,0.0,0.0,0.0,0.0,0.0,0.0,0.0,0.0,0.0,0.0,0.0,0.0,0.0,0.0,0.0,0.0,0.0,0.0,0.0,0.0,0.0,0.0,0.0,0.0,0.0,0.0,0.0,0.0,0.0,0.0,0.0,0.0,0.0,0.0,0.0,0.0,0.0,0.0,0.0,0.0,0.0,0.0,0.0,0.0,0.0,0.0,0.0,0.0,0.0,0.0,0.0,0.0,0.0,0.0,0.0,0.0,0.0,0.0,0.0,0.0,0.0,0.0,0.0,0.0,0.0,0.0,0.0,0.0,0.0,0.0,0.0,0.0,0.0,0.0,0.0,0.0,0.0,0.0,0.0,0.0,0.0,0.0,0.0,0.0,0.1425,0.3696,0.6188,0.9658,0.0,0.0,0.0,0.0,0.0,0.0,0.0,0.0,0.0,0.0,0.0,0.0,0.0,0.0,0.0,0.0,0.0,0.0,0.0,0.0,0.0,0.0,0.0,0.0,0.0,0.0,0.0,0.0,0.0,0.0,0.0,0.0,0.0,0.0,0.0,0.0,0.0,0.0,0.0,0.0,0.0,0.0,0.0,0.0,0.0,0.0,0.0,0.0,0.0,0.0,0.0,0.0,0.0,0.0,0.0,0.0,0.0,0.0,0.0,0.0,0.0,0.0,0.0,0.0,0.0,0.0,0.0,0.0,0.0,0.0,0.0,0.0,0.0,0.0,0.0,0.0,0.0,0.0,0.0,0.0,0.0,0.0,0.0,0.0,0.0,0.0,0.0,0.0,0.0,0.0,0.0,0.0,0.0,0.0,0.0,0.0,0.0,0.0,0.0,0.0,0.0,0.0,0.0,0.0,0.0,0.0,0.0,0.0,0.0,0.0,0.0,0.0,0.2995,0.5642,0.8956,0.0,0.0,0.0,0.0,0.0,0.0,0.0,0.0,0.0,0.0,0.0,0.0,0.0,0.0,0.0,0.0,0.0,0.0,0.0,0.0,0.0,0.0,0.0,0.0,0.0,0.0,0.0,0.0,0.0,0.0,0.0,0.0,0.0,0.0,0.0,0.0,0.0,0.0,0.0,0.0,0.0,0.0,0.0,0.0,0.0,0.0,0.0,0.0,0.0,0.0,0.0,0.0,0.0,0.0,0.0,0.0,0.0,0.0,0.0,0.0,0.0,0.0,0.0,0.0,0.0,0.0,0.0,0.0,0.0,0.0,0.0,0.0,0.0,0.0,0.0,0.0,0.0,0.0,0.0,0.0,0.0,0.0,0.0,0.0,0.0,0.0,0.0,0.0,0.0,0.0,0.0,0.0,0.0,0.0,0.0,0.0,0.0,0.0,0.0,0.0,0.0,0.0,0.0,0.0,0.0,0.0,0.0,0.0,0.0,0.0,0.0,0.0,0.0,0.5275,0.8731]},{"header":{"parameterUnit":"m.s-1","parameterCategory":1,"la1":31.0,"la2":29.5877,"lo1":-88.7671,"lo2":-86.6584,"dx":0.0162,"dy":0.0185,"nx":115,"ny":88,"refTime":"2022-11-22T06:00:00:Z","depth":0,"parameterNumber":3,"parameterNumberName":"V-component_of_WINDS"},"data":[0.0,0.0,0.0,0.0,0.0,0.0,0.0,0.0,0.0,0.0,0.0,0.0,0.0,0.0,0.0,0.0,0.0,0.0,0.0,0.0,0.0,0.0,0.0,0.0,0.0,0.0,0.0,0.0,0.0,0.0,0.0,0.0,0.0,0.0,0.0,0.0,0.0,0.0,0.0,0.0,0.0,0.0,0.0,0.0,0.0,0.0,0.0,0.0,0.0,0.0,0.0,0.0,0.0,0.0,0.0,0.0,0.0,0.0,0.0,0.0,0.0,0.0,0.0,0.0,0.0,0.0,0.0,0.0,0.0,0.0,0.0,0.0,0.0,0.0,0.0,0.0,0.0,0.0,0.0,0.0,0.0,0.0,0.0,0.0,0.0,0.0,0.0,0.0,0.0,0.0,0.0,0.0,0.0,0.0,0.0,0.0,0.0,0.0,0.0,0.0,0.0,0.0,0.0,0.0,0.0,0.0,0.0,0.0,0.0,0.0,0.0,0.0,0.0,0.0,0.0,0.0,0.0,0.0,0.0,0.0,0.0,0.0,0.0,0.0,0.0,0.0,0.0,0.0,0.0,0.0,0.0,0.0,0.0,0.0,0.0,0.0,0.0,0.0,0.0,0.0,0.0,0.0,0.0,0.0,0.0,0.0,0.0,0.0,0.0,0.0,0.0,0.0,0.0,0.0,0.0,0.0,0.0,0.0,0.0,0.0,0.0,0.0,0.0,0.0,0.0,0.0,0.0,0.0,0.0,0.0,0.0,0.0,0.0,0.0,0.0,0.0,0.0,0.0,0.0,0.0,0.0,0.0,0.0,0.0,0.0,0.0,0.0,0.0,0.0,0.0,0.0,0.0,0.0,0.0,0.0,0.0,0.0,0.0,0.0,0.0,0.0,0.0,0.0,0.0,0.0,0.0,0.0,0.0,0.0,0.0,0.0,0.0,0.0,0.0,0.0,0.0,0.0,0.0,0.0,0.0,0.0,0.0,0.0,0.0,0.0,0.0,0.0,0.0,0.0,0.0,0.0,0.0,0.0,0.0,0.0,0.0,0.0,0.0,0.0,0.0,0.0,0.0,0.0,0.0,0.0,0.0,0.0,0.0,0.0,0.0,0.0,0.0,0.0,0.0,0.0,0.0,0.0,0.0,0.0,0.0,0.0,0.0,0.0,0.0,0.0,0.0,0.0,0.0,0.0,0.0,0.0,0.0,0.0,0.0,0.0,0.0,0.0,0.0,0.0,0.0,0.0,0.0,0.0,0.0,0.0,0.0,0.0,0.0,0.0,0.0,0.0,0.0,0.0,0.0,0.0,0.0,0.0,0.0,0.0,0.0,0.0,0.0,0.0,0.0,0.0,0.0,0.0,0.0,0.0,0.0,0.0,0.0,0.0,0.0,0.0,0.0,0.0,0.0,0.0,0.0,0.0,0.0,0.0,0.0,0.0,0.0,0.0,0.0,0.0,0.0,0.0,0.0,0.0,0.0,0.0,0.0,0.0,0.0,0.0,0.0,0.0,0.0,0.0,0.0,0.0,0.0,0.0,0.0,0.0,0.0,0.0,0.0,0.0,0.0,0.0,0.0,0.0,0.0,0.0,0.0,0.0,0.0,0.0,0.0,0.0,0.0,0.0,0.0,0.0,0.0,0.0,0.0,0.0,0.0,0.0,0.0,0.0,0.0,0.0,0.0,0.0,0.0,0.0,0.0,0.0,0.0,0.0,0.0,0.0,0.0,0.0,0.0,0.0,0.0,0.0,0.0,0.0,0.0,0.0,0.0,0.0,0.0,0.0,0.0,0.0,0.0,0.0,0.0,0.0,0.0,0.0,0.0,0.0,0.0,0.0,0.0,0.0,0.0,0.0,0.0,0.0,0.0,0.0,0.0,0.0,0.0,0.0,0.0,0.0,0.0,0.0,0.0,0.0,0.0,0.0,0.0,0.0,0.0,0.0,0.0,0.0,0.0,0.0,0.0,0.0,0.0,0.0,0.0,0.0,0.0,0.0,0.0,0.0,0.0,0.0,0.0,0.0,0.0,0.0,0.0,0.0,0.0,0.0,0.0,0.0,0.0,0.0,0.0,0.0,0.0,0.0,0.0,0.0,0.0,0.0,0.0,0.0,0.0,0.0,0.0,0.0,0.0,0.0,0.0,0.0,0.0,0.0,0.0,0.0,0.0,0.0,0.0,0.0,0.0,0.0,0.0,0.0,0.0,0.0,0.0,0.0,0.0,0.0,0.0,0.0,0.0,0.0,0.0,0.0,0.0,0.0,0.0,0.0,0.0,0.0,0.0,0.0,0.0,0.0,0.0,0.0,0.0,0.0,0.0,0.0,0.0,0.0,0.0,0.0,0.0,0.0,0.0,0.0,0.0,0.0,0.0,0.0,0.0,0.0,0.0,0.0,0.0,0.0,0.0,0.0,0.0,0.0,0.0,0.0,0.0,0.0,0.0,0.0,0.0,0.0,0.0,0.0,0.0,0.0,0.0,0.0,0.0,0.0,0.0,0.0,0.0,0.0,0.0,0.0,0.0,0.0,0.0,0.0,0.0,0.0,0.0,0.0,0.0,0.0,0.0,0.0,0.0,0.0,0.0,0.0,0.0,0.0,0.0,0.0,0.0,0.0,0.0,0.0,0.0,0.0,0.0,0.0,0.0,0.0,0.0,0.0,0.0,0.0,0.0,0.0,0.0,0.0,0.0,0.0,0.0,0.0,0.0,0.0,0.0,0.0,0.0,0.0,0.0,0.0,0.0,0.0,0.0,0.0,0.0,0.0,0.0,0.0,0.0,0.0,0.0,0.0,0.0,0.0,0.0,0.0,0.0,0.0,0.0,0.0,0.0,0.0,0.0,0.0,0.0,0.0,0.0,0.0,0.0,0.0,0.0,0.0,0.0,0.0,0.0,0.0,0.0,0.0,0.0,0.0,0.0,0.0,0.0,0.0,0.0,0.0,0.0,0.0,0.0,0.0,0.0,0.0,0.0,0.0,0.0,0.0,0.0,0.0,0.0,0.0,0.0,0.0,0.0,0.0,0.0,0.0,0.0,0.0,0.0,0.0,0.0,0.0,0.0,0.0,0.0,0.0,0.0,0.0,0.0,0.0,0.0,0.0,0.0,0.0,0.0,0.0,0.0,0.0,0.0,0.0,0.0,0.0,0.0,0.0,0.0,0.0,0.0,0.0,0.0,0.0,0.0,0.0,0.0,0.0,0.0,0.0,0.0,0.0,0.0,0.0,0.0,0.0,0.0,0.0,0.0,0.0,0.0,0.0,0.0,0.0,0.0,0.0,0.0,0.0,0.0,0.0,0.0,0.0,0.0,0.0,0.0,0.0,0.0,0.0,0.0,0.0,0.0,0.0,0.0,0.0,0.0,0.0,0.0,0.0,0.0,0.0,0.0,0.0,0.0,0.0,0.0,0.0,0.0,0.0,0.0,0.0,0.0,0.0,0.0,0.0,0.0,0.0,0.0,0.0,0.0,0.0,0.0,0.0,0.0,0.0,0.0,0.0,0.0,0.0,0.0,0.0,0.0,0.0,0.0,0.0,0.0,0.0,0.0,0.0,0.0,0.0,0.0,0.0,0.0,0.0,0.0,0.0,0.0,0.0,0.0,0.0,0.0,0.0,0.0,0.0,0.0,0.0,0.0,0.0,0.0,0.0,0.0,0.0,0.0,0.0,0.0,0.0,0.0,0.0,0.0,0.0,0.0,0.0,0.0,0.0,0.0,0.0,0.0,0.0,0.0,0.0,0.0,0.0,0.0,0.0,0.0,0.0,0.0,0.0,0.0,0.0,0.0,0.0,0.0,0.0,0.0,0.0,0.0,0.0,0.0,0.0,0.0,0.0,0.0,0.0,0.0,0.0,0.0,0.0,0.0,0.0,0.0,0.0,0.0,0.0,0.0,0.0,0.0,0.0,0.0,0.0,0.0,0.0,0.0,0.0,0.0,0.0,0.0,0.0,0.0,0.0,0.0,0.0,0.0,0.0,0.0,0.0,0.0,0.0,0.0,0.0,0.0,0.0,0.0,0.0,0.0,0.0,0.0,0.0,0.0,0.0,0.0,0.0,0.0,0.0,0.0,0.0,0.0,0.0,0.0,0.0,0.0,0.0,0.0,0.0,0.0,0.0,0.0,0.0,0.0,0.0,0.0,0.0,0.0,0.0,0.0,0.0,0.0,0.0,0.0,0.0,0.0,0.0,0.0,0.0,0.0,0.0,0.0,0.0,0.0,0.0,0.0,0.0,0.0,0.0,0.0,0.0,0.0,1.5194,0.0,0.0,0.0,1.5194,0.0,0.0,0.0,0.0,0.0,0.0,0.0,0.0,0.0,0.0,0.0,0.0,0.0,0.0,0.0,0.0,0.0,0.0,0.0,0.0,0.0,0.0,0.0,0.0,0.0,0.0,0.0,0.0,0.0,0.0,0.0,0.0,0.0,0.0,0.0,0.0,0.0,0.0,0.0,0.0,0.0,0.0,0.0,0.0,0.0,0.0,0.0,0.0,0.0,0.0,0.0,0.0,0.0,0.0,0.0,0.0,0.0,0.0,0.0,0.0,0.0,0.0,0.0,0.0,0.0,0.0,0.0,0.0,0.0,0.0,0.0,0.0,0.0,0.0,0.0,0.0,0.0,0.0,0.0,0.0,0.0,0.0,0.0,0.0,0.0,0.0,0.0,0.0,0.0,0.0,0.0,0.0,0.0,0.0,0.0,0.0,0.0,0.0,0.0,0.0,0.0,0.0,0.0,0.0,0.0,0.0,0.0,0.0,0.0,0.0,1.5194,1.5194,1.5194,1.5194,1.5194,0.0,0.0,0.0,0.0,0.0,0.0,0.0,0.0,0.0,0.0,0.0,0.0,0.0,0.0,0.0,0.0,0.0,0.0,0.0,0.0,0.0,0.0,0.0,0.0,0.0,0.0,0.0,0.0,0.0,0.0,0.0,0.0,0.0,0.0,0.0,0.0,0.0,0.0,0.0,0.0,0.0,0.0,0.0,0.0,0.0,0.0,0.0,0.0,0.0,0.0,0.0,0.0,0.0,0.0,0.0,0.0,0.0,0.0,0.0,0.0,0.0,0.0,0.0,0.0,0.0,0.0,0.0,0.0,0.0,0.0,0.0,0.0,0.0,0.0,0.0,0.0,0.0,0.0,0.0,0.0,0.0,0.0,0.0,0.0,0.0,0.0,0.0,0.0,0.0,0.0,0.0,0.0,0.0,0.0,0.0,0.0,0.0,0.0,0.0,0.0,0.0,0.0,0.0,0.0,0.0,0.0,0.0,0.0,0.0,0.0,0.0,0.0,1.5194,1.5194,1.5194,0.0,0.0,0.0,0.0,0.0,0.0,0.0,0.0,0.0,0.0,0.0,0.0,0.0,0.0,0.0,0.0,0.0,0.0,0.0,0.0,0.0,0.0,0.0,0.0,0.0,0.0,0.0,0.0,0.0,0.0,0.0,0.0,0.0,0.0,0.0,0.0,0.0,0.0,0.0,0.0,0.0,0.0,0.0,0.0,0.0,0.0,0.0,0.0,0.0,0.0,0.0,0.0,0.0,0.0,0.0,0.0,0.0,0.0,0.0,0.0,0.0,0.0,0.0,0.0,0.0,0.0,0.0,0.0,0.0,0.0,0.0,0.0,0.0,0.0,0.0,0.0,0.0,0.0,0.0,0.0,0.0,0.0,0.0,0.0,0.0,0.0,0.0,0.0,0.0,0.0,0.0,0.0,0.0,0.0,0.0,0.0,0.0,0.0,0.0,0.0,0.0,0.0,0.0,0.0,0.0,0.0,0.0,0.0,0.0,0.0,1.5194,1.5194,1.5194,0.0,1.5194,0.0,0.0,0.0,0.0,0.0,0.0,0.0,0.0,0.0,0.0,0.0,0.0,0.0,0.0,0.0,0.0,0.0,0.0,0.0,0.0,0.0,0.0,0.0,0.0,0.0,0.0,0.0,0.0,0.0,0.0,0.0,0.0,0.0,0.0,0.0,0.0,0.0,0.0,0.0,0.0,0.0,0.0,0.0,0.0,0.0,0.0,0.0,0.0,0.0,0.0,0.0,0.0,0.0,0.0,0.0,0.0,0.0,0.0,0.0,0.0,0.0,0.0,0.0,0.0,0.0,0.0,0.0,0.0,0.0,0.0,0.0,0.0,0.0,0.0,0.0,0.0,0.0,0.0,0.0,0.0,0.0,0.0,0.0,0.0,0.0,0.0,0.0,0.0,0.0,0.0,0.0,0.0,0.0,0.0,0.0,0.0,0.0,0.0,0.0,0.0,0.0,0.0,0.0,0.0,0.0,0.0,0.0,0.0,0.0,0.0,1.6195,1.6659,1.6234,1.5734,0.0,0.0,0.0,0.0,0.0,0.0,0.0,0.0,0.0,0.0,0.0,0.0,0.0,0.0,0.0,0.0,0.0,0.0,0.0,0.0,0.0,0.0,0.0,0.0,0.0,0.0,0.0,0.0,0.0,0.0,0.0,0.0,0.0,0.0,0.0,0.0,0.0,0.0,0.0,0.0,0.0,0.0,0.0,0.0,0.0,0.0,0.0,0.0,0.0,0.0,0.0,0.0,0.0,0.0,0.0,0.0,0.0,0.0,0.0,0.0,0.0,0.0,0.0,0.0,0.0,0.0,0.0,0.0,0.0,0.0,0.0,0.0,0.0,0.0,0.0,0.0,0.0,0.0,0.0,0.0,0.0,0.0,0.0,0.0,0.0,0.0,0.0,0.0,0.0,0.0,0.0,0.0,0.0,0.0,0.0,0.0,0.0,0.0,0.0,0.0,0.0,0.0,0.0,0.0,0.0,0.0,0.0,0.0,0.0,0.0,1.6798,1.7115,1.7622,1.6928,1.6195,1.5578,0.0,0.0,0.0,0.0,0.0,0.0,0.0,0.0,0.0,0.0,0.0,0.0,0.0,0.0,0.0,0.0,0.0,0.0,0.0,0.0,0.0,0.0,0.0,0.0,0.0,0.0,0.0,0.0,0.0,0.0,0.0,0.0,0.0,0.0,0.0,0.0,0.0,0.0,0.0,0.0,0.0,0.0,0.0,0.0,0.0,0.0,0.0,0.0,0.0,0.0,0.0,0.0,0.0,0.0,0.0,0.0,0.0,0.0,0.0,0.0,0.0,0.0,0.0,0.0,0.0,0.0,0.0,0.0,0.0,0.0,0.0,0.0,0.0,0.0,0.0,0.0,0.0,0.0,0.0,0.0,0.0,0.0,0.0,0.0,0.0,0.0,0.0,0.0,0.0,0.0,0.0,0.0,0.0,0.0,0.0,0.0,0.0,0.0,0.0,0.0,0.0,0.0,0.0,0.0,0.0,0.0,0.0,0.0,1.7622,1.7664,1.7677,1.7699,1.693,1.6466,0.0,0.0,0.0,0.0,0.0,0.0,0.0,0.0,0.0,0.0,0.0,0.0,0.0,0.0,0.0,0.0,0.0,0.0,0.0,0.0,0.0,0.0,0.0,0.0,0.0,0.0,0.0,0.0,0.0,0.0,0.0,0.0,0.0,0.0,0.0,0.0,0.0,0.0,0.0,0.0,0.0,0.0,0.0,0.0,0.0,0.0,0.0,0.0,0.0,0.0,0.0,0.0,0.0,0.0,0.0,0.0,0.0,0.0,0.0,0.0,0.0,0.0,0.0,0.0,0.0,0.0,0.0,0.0,0.0,0.0,0.0,0.0,0.0,0.0,0.0,0.0,0.0,0.0,0.0,0.0,0.0,0.0,0.0,0.0,0.0,0.0,0.0,0.0,0.0,0.0,0.0,0.0,0.0,0.0,0.0,0.0,0.0,0.0,0.0,0.0,0.0,0.0,0.0,0.0,0.0,0.0,0.0,0.0,0.0,1.844,1.9,1.9027,1.8549,1.824,1.7585,0.0,0.0,0.0,0.0,0.0,0.0,0.0,0.0,0.0,0.0,0.0,0.0,0.0,0.0,0.0,0.0,0.0,0.0,0.0,0.0,0.0,0.0,0.0,0.0,0.0,0.0,0.0,0.0,0.0,0.0,0.0,0.0,0.0,0.0,0.0,0.0,0.0,0.0,0.0,0.0,0.0,0.0,0.0,0.0,0.0,0.0,0.0,0.0,0.0,0.0,0.0,0.0,0.0,0.0,0.0,0.0,0.0,0.0,0.0,0.0,0.0,0.0,0.0,0.0,0.0,0.0,0.0,0.0,0.0,0.0,0.0,0.0,0.0,0.0,0.0,0.0,0.0,0.0,0.0,0.0,0.0,0.0,0.0,0.0,0.0,0.0,0.0,0.0,0.0,0.0,0.0,0.0,0.0,0.0,0.0,0.0,0.0,0.0,0.0,0.0,0.0,0.0,0.0,0.0,0.0,0.0,0.0,0.0,0.0,1.9697,2.0578,2.0757,2.0239,1.97,1.8892,0.0,0.0,0.0,0.0,0.0,0.0,0.0,0.0,0.0,0.0,0.0,0.0,0.0,0.0,0.0,0.0,0.0,0.0,0.0,0.0,0.0,0.0,0.0,0.0,0.0,0.0,0.0,0.0,0.0,0.0,0.0,0.0,0.0,0.0,0.0,0.0,0.0,0.0,0.0,0.0,0.0,0.0,0.0,0.0,0.0,0.0,0.0,0.0,0.0,0.0,0.0,0.0,0.0,0.0,0.0,0.0,0.0,0.0,0.0,0.0,0.0,0.0,0.0,0.0,0.0,0.0,0.0,0.0,0.0,0.0,0.0,0.0,0.0,0.0,0.0,0.0,0.0,0.0,0.0,0.0,0.0,0.0,0.0,0.0,0.0,0.0,0.0,0.0,0.0,0.0,0.0,0.0,0.0,0.0,0.0,0.0,0.0,0.0,0.0,0.0,0.0,0.0,0.0,0.0,0.0,0.0,0.0,0.0,1.9862,2.1487,2.2349,2.279,2.2735,2.1235,2.0346,0.0,0.0,0.0,0.0,0.0,0.0,0.0,0.0,0.0,0.0,0.0,0.0,0.0,0.0,0.0,0.0,0.0,0.0,0.0,0.0,0.0,0.0,0.0,0.0,0.0,0.0,0.0,0.0,0.0,0.0,0.0,0.0,0.0,0.0,0.0,0.0,0.0,0.0,0.0,0.0,0.0,0.0,0.0,0.0,0.0,0.0,0.0,0.0,0.0,0.0,0.0,0.0,0.0,0.0,0.0,0.0,0.0,0.0,0.0,0.0,0.0,0.0,0.0,0.0,0.0,0.0,0.0,0.0,0.0,0.0,0.0,0.0,0.0,0.0,0.0,0.0,0.0,0.0,0.0,0.0,0.0,0.0,0.0,0.0,0.0,0.0,0.0,0.0,0.0,0.0,0.0,0.0,0.0,0.0,0.0,0.0,0.0,0.0,0.0,0.0,0.0,0.0,0.0,0.0,0.0,0.0,0.0,0.0,0.0,2.3247,2.4016,2.4195,2.3701,2.3201,2.2081,0.0,0.0,0.0,0.0,0.0,0.0,0.0,0.0,0.0,0.0,0.0,0.0,0.0,0.0,0.0,0.0,0.0,0.0,0.0,0.0,0.0,0.0,0.0,0.0,0.0,0.0,0.0,0.0,0.0,0.0,0.0,0.0,0.0,0.0,0.0,0.0,0.0,0.0,0.0,0.0,0.0,0.0,0.0,0.0,0.0,0.0,0.0,0.0,0.0,0.0,0.0,0.0,0.0,0.0,0.0,0.0,0.0,0.0,0.0,0.0,0.0,0.0,0.0,0.0,0.0,0.0,0.0,0.0,0.0,0.0,0.0,0.0,0.0,0.0,0.0,0.0,0.0,0.0,0.0,0.0,0.0,0.0,0.0,0.0,0.0,0.0,0.0,0.0,0.0,0.0,0.0,0.0,0.0,0.0,0.0,0.0,0.0,0.0,0.0,0.0,0.0,0.0,0.0,0.0,0.0,0.0,0.0,0.0,0.0,2.7348,2.7499,2.7218,2.6469,2.5818,2.4312,2.1763,0.0,0.0,0.0,0.0,0.0,0.0,0.0,0.0,0.0,0.0,0.0,0.0,0.0,0.0,0.0,0.0,0.0,0.0,0.0,0.0,0.0,0.0,0.0,0.0,0.0,0.0,0.0,0.0,0.0,0.0,0.0,0.0,0.0,0.0,0.0,0.0,0.0,0.0,0.0,0.0,0.0,0.0,0.0,0.0,0.0,0.0,0.0,0.0,0.0,0.0,0.0,0.0,0.0,0.0,0.0,0.0,0.0,0.0,0.0,0.0,0.0,0.0,0.0,0.0,0.0,0.0,0.0,0.0,0.0,0.0,0.0,0.0,0.0,0.0,0.0,0.0,0.0,0.0,0.0,0.0,0.0,0.0,0.0,0.0,0.0,0.0,0.0,0.0,0.0,0.0,0.0,0.0,0.0,0.0,0.0,0.0,0.0,0.0,0.0,0.0,0.0,0.0,0.0,0.0,0.0,0.0,0.0,0.0,3.3105,3.2453,3.1597,3.0577,2.897,2.6882,0.0,0.0,0.0,0.0,0.0,0.0,0.0,0.0,0.0,0.0,0.0,0.0,0.0,0.0,0.0,0.0,0.0,0.0,0.0,0.0,0.0,0.0,0.0,0.0,0.0,0.0,0.0,0.0,0.0,0.0,0.0,0.0,0.0,0.0,0.0,0.0,0.0,0.0,0.0,0.0,0.0,0.0,0.0,0.0,0.0,0.0,0.0,0.0,0.0,0.0,0.0,0.0,0.0,0.0,0.0,0.0,0.0,0.0,0.0,0.0,0.0,0.0,0.0,0.0,0.0,0.0,0.0,0.0,0.0,0.0,0.0,0.0,0.0,0.0,0.0,0.0,0.0,0.0,0.0,0.0,0.0,0.0,0.0,0.0,0.0,0.0,0.0,0.0,0.0,0.0,0.0,0.0,0.0,0.0,0.0,0.0,0.0,0.0,0.0,0.0,0.0,0.0,0.0,0.0,0.0,0.0,0.0,0.0,0.0,3.6516,3.7617,3.6576,3.3314,3.1583,2.9494,0.0,0.0,0.0,0.0,0.0,0.0,0.0,0.0,0.0,0.0,0.0,0.0,0.0,0.0,0.0,0.0,0.0,0.0,0.0,0.0,0.0,0.0,0.0,0.0,0.0,0.0,0.0,0.0,0.0,0.0,0.0,0.0,0.0,0.0,0.0,0.0,0.0,0.0,0.0,0.0,0.0,0.0,0.0,0.0,0.0,0.0,0.0,0.0,0.0,0.0,0.0,0.0,0.0,0.0,0.0,0.0,0.0,0.0,0.0,0.0,0.0,0.0,0.0,0.0,0.0,0.0,0.0,0.0,0.0,0.0,0.0,0.0,0.0,0.0,0.0,0.0,0.0,0.0,0.0,0.0,0.0,0.0,0.0,0.0,0.0,0.0,0.0,0.0,0.0,0.0,0.0,0.0,0.0,0.0,0.0,0.0,0.0,0.0,0.0,0.0,0.0,0.0,0.0,0.0,0.0,0.0,0.0,0.0,3.6807,3.8387,4.0482,4.0061,3.6937,3.4545,3.1722,0.0,0.0,0.0,0.0,0.0,0.0,0.0,0.0,0.0,0.0,0.0,0.0,0.0,0.0,0.0,0.0,0.0,0.0,0.0,0.0,0.0,0.0,0.0,0.0,0.0,0.0,0.0,0.0,0.0,0.0,0.0,0.0,0.0,0.0,0.0,0.0,0.0,0.0,0.0,0.0,0.0,0.0,0.0,0.0,0.0,0.0,0.0,0.0,0.0,0.0,0.0,0.0,0.0,0.0,0.0,0.0,0.0,0.0,0.0,0.0,0.0,0.0,0.0,0.0,0.0,0.0,0.0,0.0,0.0,0.0,0.0,0.0,0.0,0.0,0.0,0.0,0.0,0.0,0.0,0.0,0.0,0.0,0.0,0.0,0.0,0.0,0.0,0.0,0.0,0.0,0.0,0.0,0.0,0.0,0.0,0.0,0.0,0.0,0.0,0.0,0.0,0.0,0.0,0.0,0.0,0.0,0.0,0.0,3.9278,3.9542,4.198,4.2483,4.0781,3.7427,3.3746,0.0,0.0,0.0,0.0,0.0,0.0,0.0,0.0,0.0,0.0,0.0,0.0,0.0,0.0,0.0,0.0,0.0,0.0,0.0,0.0,0.0,0.0,0.0,0.0,0.0,0.0,0.0,0.0,0.0,0.0,0.0,0.0,0.0,0.0,0.0,0.0,0.0,0.0,0.0,0.0,0.0,0.0,0.0,0.0,0.0,0.0,0.0,0.0,0.0,0.0,0.0,0.0,0.0,0.0,0.0,0.0,0.0,0.0,0.0,0.0,0.0,0.0,0.0,0.0,0.0,0.0,0.0,0.0,0.0,0.0,0.0,0.0,0.0,0.0,0.0,0.0,0.0,0.0,0.0,0.0,0.0,0.0,0.0,0.0,0.0,0.0,0.0,0.0,0.0,0.0,0.0,0.0,0.0,0.0,0.0,0.0,0.0,0.0,0.0,0.0,0.0,0.0,0.0,0.0,0.0,0.0,0.0,0.0,4.0721,4.2164,4.3785,4.4001,4.2581,3.8593,3.5374,0.0,0.0,0.0,0.0,0.0,0.0,0.0,0.0,0.0,0.0,0.0,0.0,0.0,0.0,0.0,0.0,0.0,0.0,0.0,0.0,0.0,0.0,0.0,0.0,0.0,0.0,0.0,0.0,0.0,0.0,0.0,0.0,0.0,0.0,0.0,0.0,0.0,0.0,0.0,0.0,0.0,0.0,0.0,0.0,0.0,0.0,0.0,0.0,2.9219,0.0,0.0,0.0,0.0,0.0,0.0,0.0,0.0,0.0,0.0,0.0,0.0,0.0,0.0,0.0,0.0,0.0,0.0,0.0,0.0,0.0,0.0,0.0,0.0,0.0,0.0,0.0,0.0,0.0,0.0,0.0,0.0,0.0,0.0,0.0,0.0,0.0,0.0,0.0,0.0,0.0,0.0,0.0,0.0,0.0,0.0,0.0,0.0,0.0,0.0,0.0,0.0,0.0,0.0,0.0,0.0,0.0,0.0,0.0,4.2196,4.3645,4.4995,4.5055,4.3672,4.0753,3.7542,0.0,0.0,0.0,0.0,0.0,0.0,0.0,0.0,0.0,0.0,0.0,0.0,0.0,0.0,0.0,0.0,0.0,0.0,0.0,0.0,0.0,0.0,0.0,0.0,0.0,0.0,0.0,0.0,0.0,0.0,0.0,0.0,0.0,0.0,0.0,0.0,0.0,0.0,0.0,0.0,0.0,0.0,0.0,0.0,0.0,0.0,0.0,0.0,0.0,0.0,0.0,0.0,0.0,0.0,0.0,0.0,0.0,0.0,0.0,0.0,0.0,0.0,0.0,0.0,0.0,0.0,0.0,0.0,0.0,0.0,0.0,0.0,0.0,0.0,0.0,0.0,0.0,0.0,0.0,0.0,0.0,0.0,0.0,0.0,0.0,0.0,0.0,0.0,0.0,0.0,0.0,0.0,0.0,0.0,0.0,0.0,0.0,0.0,0.0,0.0,0.0,0.0,0.0,0.0,0.0,0.0,0.0,4.1269,4.376,4.4933,4.6092,4.6077,4.4814,4.3107,3.9828,3.4932,0.0,0.0,0.0,0.0,0.0,0.0,0.0,0.0,0.0,0.0,0.0,0.0,0.0,0.0,0.0,0.0,0.0,0.0,0.0,0.0,0.0,0.0,0.0,0.0,0.0,0.0,0.0,0.0,0.0,0.0,0.0,0.0,0.0,0.0,0.0,0.0,0.0,0.0,2.3744,2.6576,0.0,0.0,0.0,0.0,0.0,0.0,0.0,0.0,3.4344,0.0,0.0,0.0,0.0,0.0,0.0,0.0,0.0,0.0,0.0,0.0,0.0,0.0,0.0,0.0,0.0,0.0,0.0,0.0,0.0,0.0,0.0,0.0,0.0,0.0,0.0,0.0,0.0,0.0,0.0,0.0,0.0,0.0,0.0,0.0,0.0,0.0,0.0,0.0,0.0,0.0,0.0,0.0,0.0,0.0,0.0,0.0,0.0,0.0,0.0,0.0,0.0,0.0,0.0,0.0,0.0,3.9643,4.3138,4.5748,4.7437,4.8122,4.7848,4.6507,4.4489,4.1727,3.8178,0.0,0.0,0.0,0.0,0.0,0.0,0.0,0.0,0.0,0.0,0.0,0.0,0.0,0.0,0.0,0.0,0.0,0.0,0.0,0.0,0.0,0.0,0.0,0.0,0.0,0.0,0.0,0.0,0.0,0.0,0.0,0.0,0.0,0.0,0.0,0.0,0.0,0.0,0.0,3.0063,3.1641,0.0,0.0,0.0,0.0,0.0,0.0,0.0,0.0,3.631,0.0,0.0,0.0,0.0,0.0,0.0,0.0,0.0,0.0,0.0,0.0,0.0,0.0,0.0,0.0,0.0,0.0,0.0,0.0,0.0,0.0,0.0,0.0,0.0,0.0,0.0,0.0,0.0,0.0,0.0,0.0,0.0,0.0,0.0,0.0,0.0,0.0,0.0,0.0,0.0,0.0,0.0,0.0,0.0,0.0,0.0,0.0,0.0,0.0,0.0,0.0,0.0,0.0,0.0,0.0,4.1146,4.4824,4.7384,4.8791,4.9272,4.912,4.824,4.6411,4.3918,0.0,0.0,0.0,0.0,0.0,0.0,0.0,0.0,0.0,0.0,0.0,0.0,0.0,0.0,0.0,0.0,0.0,0.0,0.0,0.0,0.0,0.0,0.0,0.0,0.0,0.0,0.0,0.0,0.0,0.0,0.0,0.0,0.0,0.0,0.0,0.0,0.0,0.0,0.0,0.0,3.2485,3.4314,3.714,0.0,0.0,0.0,0.0,0.0,0.0,3.9541,3.8476,0.0,0.0,0.0,0.0,0.0,0.0,0.0,0.0,0.0,0.0,0.0,0.0,0.0,0.0,0.0,0.0,0.0,0.0,0.0,0.0,0.0,0.0,0.0,0.0,0.0,0.0,0.0,0.0,0.0,0.0,0.0,0.0,0.0,0.0,0.0,0.0,0.0,0.0,0.0,0.0,0.0,0.0,0.0,0.0,0.0,0.0,0.0,0.0,0.0,0.0,0.0,0.0,0.0,0.0,0.0,4.2748,4.656,4.9083,5.0185,5.0576,5.0583,5.0234,4.8245,4.5729,0.0,0.0,0.0,0.0,0.0,0.0,0.0,0.0,0.0,0.0,0.0,0.0,0.0,0.0,0.0,0.0,0.0,0.0,0.0,0.0,0.0,0.0,0.0,0.0,0.0,0.0,0.0,0.0,0.0,0.0,0.0,0.0,0.0,0.0,0.0,0.0,0.0,0.0,0.0,0.0,0.0,3.7176,4.0377,4.0341,0.0,0.0,0.0,0.0,4.258,4.1699,0.0,0.0,0.0,0.0,0.0,0.0,0.0,0.0,0.0,0.0,0.0,0.0,0.0,0.0,0.0,0.0,0.0,0.0,0.0,0.0,0.0,0.0,0.0,0.0,0.0,0.0,0.0,0.0,0.0,0.0,0.0,0.0,0.0,0.0,0.0,0.0,0.0,0.0,0.0,0.0,0.0,0.0,0.0,0.0,0.0,0.0,0.0,0.0,0.0,0.0,0.0,0.0,0.0,0.0,0.0,0.0,4.4957,4.8447,5.1041,5.2686,5.2794,5.2833,5.2719,4.9559,4.6549,0.0,0.0,0.0,0.0,0.0,0.0,0.0,0.0,0.0,0.0,0.0,0.0,0.0,0.0,0.0,0.0,0.0,0.0,0.0,0.0,0.0,0.0,0.0,0.0,0.0,0.0,0.0,0.0,0.0,0.0,0.0,0.0,0.0,0.0,0.0,0.0,0.0,0.0,0.0,0.0,0.0,4.0524,4.3709,4.4076,4.4076,0.0,0.0,4.4186,4.4406,4.4259,0.0,0.0,0.0,0.0,0.0,0.0,0.0,0.0,0.0,0.0,0.0,0.0,0.0,0.0,0.0,0.0,0.0,0.0,0.0,0.0,0.0,0.0,0.0,0.0,0.0,0.0,0.0,0.0,0.0,0.0,0.0,0.0,0.0,0.0,0.0,0.0,0.0,0.0,0.0,0.0,0.0,0.0,0.0,0.0,0.0,0.0,0.0,0.0,0.0,0.0,0.0,0.0,0.0,0.0,0.0,4.2703,4.6089,4.9982,5.2392,5.3159,5.3197,5.3197,5.3197,5.0701,4.7928,0.0,0.0,0.0,0.0,0.0,0.0,0.0,0.0,0.0,0.0,0.0,0.0,0.0,0.0,0.0,0.0,0.0,0.0,0.0,0.0,0.0,0.0,0.0,0.0,0.0,0.0,0.0,0.0,0.0,0.0,0.0,0.0,0.0,0.0,0.0,0.0,0.0,0.0,0.0,0.0,0.0,0.0,4.5128,4.58,0.0,0.0,0.0,4.536,4.5369,0.0,0.0,0.0,0.0,0.0,0.0,0.0,0.0,0.0,0.0,0.0,0.0,0.0,0.0,0.0,0.0,0.0,0.0,0.0,0.0,0.0,0.0,0.0,0.0,0.0,0.0,0.0,0.0,0.0,0.0,0.0,0.0,0.0,0.0,0.0,0.0,0.0,0.0,0.0,0.0,0.0,0.0,0.0,0.0,0.0,0.0,0.0,0.0,0.0,0.0,0.0,0.0,0.0,0.0,0.0,0.0,0.0,4.7249,5.1373,5.3626,5.3818,5.3813,5.3818,5.3774,5.2076,0.0,0.0,0.0,0.0,0.0,0.0,0.0,0.0,0.0,0.0,0.0,0.0,0.0,0.0,0.0,0.0,0.0,0.0,0.0,0.0,0.0,0.0,0.0,0.0,0.0,0.0,0.0,2.2404,0.0,0.0,0.0,0.0,0.0,0.0,0.0,0.0,0.0,0.0,0.0,0.0,0.0,0.0,4.3937,4.6394,4.7491,4.8223,0.0,0.0,4.6507,4.6507,4.6507,4.5975,0.0,0.0,0.0,0.0,0.0,0.0,0.0,0.0,0.0,0.0,0.0,0.0,0.0,0.0,0.0,0.0,0.0,0.0,0.0,0.0,0.0,0.0,0.0,0.0,0.0,0.0,0.0,0.0,0.0,0.0,0.0,0.0,0.0,0.0,0.0,0.0,0.0,0.0,0.0,0.0,0.0,0.0,0.0,0.0,0.0,0.0,0.0,0.0,0.0,0.0,0.0,0.0,0.0,0.0,4.4895,4.9053,5.2613,5.4785,5.5472,5.5511,5.5549,5.5511,5.3842,5.1282,0.0,0.0,0.0,0.0,0.0,0.0,0.0,0.0,0.0,0.0,0.0,0.0,0.0,0.0,0.0,0.0,0.0,0.0,0.0,0.0,0.0,0.0,0.0,0.0,0.0,0.0,0.0,0.0,0.0,0.0,0.0,0.0,0.0,0.0,0.0,0.0,0.0,0.0,0.0,0.0,0.0,4.5608,4.8089,4.9634,5.0545,0.0,4.9214,4.8159,4.8159,4.8113,4.7637,4.6157,0.0,0.0,0.0,0.0,0.0,0.0,0.0,0.0,0.0,0.0,0.0,0.0,0.0,0.0,0.0,0.0,0.0,0.0,0.0,0.0,0.0,0.0,0.0,0.0,0.0,0.0,0.0,0.0,0.0,0.0,0.0,0.0,0.0,0.0,0.0,0.0,0.0,0.0,0.0,0.0,0.0,0.0,0.0,0.0,0.0,0.0,0.0,0.0,0.0,0.0,0.0,0.0,0.0,4.5944,4.925,5.3194,5.5401,5.567,5.5708,5.5708,5.5708,5.454,5.2543,0.0,0.0,0.0,0.0,0.0,0.0,0.0,0.0,0.0,0.0,0.0,0.0,0.0,0.0,0.0,0.0,0.0,0.0,0.0,0.0,0.0,0.0,0.0,0.0,0.0,0.0,0.0,0.0,3.4348,3.5292,3.4381,0.0,0.0,0.0,0.0,0.0,0.0,0.0,0.0,0.0,0.0,4.6842,4.867,4.9757,0.0,0.0,4.9397,4.8692,4.9752,4.9572,4.9113,4.8649,4.7313,0.0,0.0,0.0,0.0,0.0,0.0,0.0,0.0,0.0,0.0,0.0,0.0,0.0,0.0,0.0,0.0,0.0,0.0,0.0,0.0,0.0,0.0,0.0,0.0,0.0,0.0,0.0,0.0,0.0,0.0,0.0,0.0,0.0,0.0,0.0,0.0,0.0,0.0,0.0,0.0,0.0,0.0,0.0,0.0,0.0,0.0,0.0,0.0,0.0,0.0,0.0,0.0,4.7004,4.9595,5.3622,5.5708,5.5708,5.5708,5.5708,5.567,5.5094,5.3727,0.0,0.0,0.0,0.0,0.0,0.0,0.0,0.0,0.0,0.0,0.0,0.0,0.0,0.0,0.0,0.0,0.0,0.0,0.0,0.0,0.0,0.0,0.0,0.0,0.0,0.0,0.0,0.0,3.7833,3.8182,3.6636,0.0,0.0,0.0,0.0,0.0,0.0,0.0,0.0,0.0,0.0,4.8625,4.9802,5.0779,5.1358,5.1356,5.0135,4.9675,5.0887,5.0676,5.0526,5.0968,0.0,0.0,0.0,0.0,0.0,0.0,0.0,0.0,0.0,0.0,0.0,0.0,0.0,0.0,0.0,0.0,0.0,0.0,0.0,0.0,0.0,0.0,0.0,0.0,0.0,0.0,0.0,2.7118,0.0,0.0,2.5751,0.0,0.0,0.0,0.0,0.0,0.0,0.0,0.0,0.0,0.0,0.0,0.0,0.0,0.0,0.0,0.0,0.0,0.0,0.0,0.0,0.0,0.0,4.7921,5.0483,5.3925,5.5708,5.5708,5.5708,5.5708,5.5708,5.5665,5.4836,5.2976,0.0,0.0,0.0,0.0,0.0,0.0,0.0,0.0,0.0,0.0,0.0,0.0,0.0,0.0,0.0,0.0,0.0,0.0,0.0,0.0,0.0,0.0,0.0,0.0,0.0,0.0,3.9126,4.0631,4.0857,0.0,0.0,0.0,0.0,0.0,0.0,0.0,0.0,0.0,4.4568,4.8409,5.1209,5.1949,5.3206,5.3709,5.2854,5.1935,5.1396,5.1615,5.1558,5.1838,0.0,0.0,0.0,0.0,0.0,0.0,0.0,0.0,0.0,0.0,0.0,0.0,0.0,0.0,0.0,0.0,0.0,0.0,0.0,0.0,0.0,0.0,0.0,0.0,0.0,0.0,0.0,3.3358,3.3286,0.0,0.0,0.0,0.0,0.0,0.0,0.0,0.0,0.0,0.0,0.0,4.5196,4.5239,0.0,0.0,0.0,0.0,0.0,0.0,0.0,0.0,0.0,0.0,0.0,0.0,4.8759,5.136,5.4232,5.5708,5.5708,5.5708,5.5708,5.5708,5.5708,5.4374,5.1516,0.0,0.0,0.0,0.0,0.0,0.0,0.0,0.0,0.0,0.0,0.0,0.0,0.0,0.0,0.0,0.0,0.0,0.0,0.0,0.0,0.0,0.0,0.0,0.0,0.0,4.0821,0.0,0.0,0.0,0.0,0.0,0.0,0.0,0.0,0.0,0.0,0.0,4.5595,4.9051,5.1132,5.2749,5.3895,5.4441,5.4897,0.0,0.0,0.0,0.0,0.0,0.0,0.0,0.0,0.0,0.0,0.0,0.0,0.0,0.0,4.786,4.4553,4.3952,4.4143,4.4599,0.0,0.0,0.0,0.0,0.0,0.0,0.0,0.0,0.0,0.0,0.0,0.0,0.0,0.0,3.9318,3.9051,3.8478,0.0,0.0,0.0,0.0,0.0,0.0,0.0,0.0,4.6965,4.8332,4.8771,4.8771,4.8508,0.0,4.7376,4.5204,0.0,0.0,0.0,0.0,0.0,0.0,0.0,0.0,4.9925,5.2231,5.4819,5.6285,5.6588,5.6588,5.6472,5.617,5.5862,5.4538,5.2046,5.0033,4.7108,0.0,0.0,0.0,0.0,0.0,0.0,0.0,0.0,0.0,0.0,0.0,0.0,0.0,0.0,0.0,0.0,0.0,0.0,0.0,0.0,0.0,0.0,0.0,4.4965,0.0,0.0,0.0,0.0,0.0,0.0,0.0,0.0,0.0,4.5284,4.703,4.9439,5.2308,5.4178,5.5567,5.6358,0.0,0.0,0.0,0.0,0.0,0.0,0.0,5.7803,5.8854,5.862,5.8543,5.9198,5.8546,5.7862,5.7787,0.0,0.0,4.9591,4.8519,4.854,4.9116,4.9572,5.0506,5.2495,5.3255,5.4084,0.0,0.0,0.0,0.0,0.0,0.0,0.0,0.0,4.5072,4.5048,0.0,4.4255,0.0,0.0,0.0,0.0,4.297,4.5436,0.0,0.0,5.1483,5.2292,5.0791,5.0791,5.0753,5.0671,4.9122,4.8675,4.9168,4.6845,0.0,0.0,0.0,0.0,0.0,0.0,5.143,5.3162,5.5682,5.7401,5.8083,5.8198,5.7819,5.694,5.6132,5.5324,5.4434,5.2046,4.9912,4.8179,4.4078,0.0,0.0,0.0,0.0,0.0,0.0,0.0,0.0,0.0,0.0,0.0,0.0,0.0,0.0,0.0,0.0,0.0,0.0,0.0,0.0,4.707,0.0,0.0,0.0,0.0,0.0,0.0,0.0,0.0,0.0,0.0,4.8575,5.0468,5.2626,5.4397,0.0,0.0,0.0,0.0,6.1468,6.0647,6.037,6.0348,6.0542,6.0511,6.0849,6.1843,0.0,0.0,6.2151,6.1403,6.0819,6.0774,6.0504,5.8774,5.4301,5.3305,5.3217,5.3558,5.459,5.5673,5.6845,5.8085,5.9016,4.7101,0.0,0.0,0.0,0.0,4.5898,4.7021,4.8693,4.9606,4.989,4.9621,4.9012,0.0,0.0,0.0,0.0,0.0,0.0,4.8452,4.991,5.2167,5.3274,5.3413,5.3956,5.4264,5.4187,5.371,5.3628,5.3776,5.3107,5.1326,4.8667,0.0,0.0,0.0,0.0,5.2921,5.4095,5.5995,5.6824,5.6478,5.7055,5.6978,5.6093,5.5824,5.5324,5.4511,5.3769,5.2282,4.9984,4.8073,0.0,0.0,0.0,0.0,0.0,0.0,0.0,0.0,0.0,0.0,0.0,0.0,0.0,0.0,0.0,0.0,0.0,0.0,0.0,4.5628,5.0084,5.2296,0.0,0.0,0.0,0.0,0.0,0.0,0.0,0.0,0.0,5.5992,5.628,5.7049,0.0,0.0,6.1757,6.2868,6.3418,6.4044,6.497,6.4524,0.0,6.4994,6.4576,6.4277,6.4615,6.5205,6.5628,6.5641,6.5923,6.6127,6.6082,6.5536,6.4496,6.2855,6.0274,5.9064,6.0069,6.0707,6.1281,6.2343,6.2917,6.3212,5.0819,5.0575,4.8163,4.7836,4.8902,4.8966,4.9967,5.1631,5.253,5.2536,5.1921,5.2085,5.1083,4.9207,4.8649,0.0,0.0,0.0,5.084,5.22,5.3226,5.3818,5.401,5.4472,5.4895,5.5208,5.5203,5.5549,5.6203,5.6209,5.5335,5.358,0.0,0.0,5.285,5.3684,5.471,5.5967,5.7308,5.7901,5.7742,5.7594,5.7093,5.6247,5.5862,5.5478,5.4977,5.467,5.3923,5.2667,5.1455,4.9475,0.0,0.0,0.0,0.0,0.0,0.0,0.0,0.0,0.0,0.0,0.0,3.674,3.9199,0.0,0.0,0.0,4.6562,4.7384,5.0492,5.3239,0.0,0.0,0.0,0.0,0.0,0.0,0.0,5.4776,5.7222,5.9361,6.073,6.1399,6.1935,6.2243,6.3326,6.4429,6.5391,0.0,6.6416,6.7409,6.7106,6.6946,6.744,6.7113,6.6792,6.6832,6.7256,6.759,6.7628,6.8045,6.8391,6.8314,6.7975,6.7646,6.7681,6.5834,6.4185,6.4269,6.4387,6.4817,6.5561,6.61,6.6445,5.3159,5.2923,4.9757,4.9363,5.0796,5.0753,5.1624,5.3274,5.4087,5.3582,5.2274,5.3857,5.2836,4.9826,4.9665,0.0,5.3206,5.3206,5.3661,5.4511,5.4626,5.428,5.3505,5.3587,5.4049,5.4818,5.4818,5.5588,5.7044,5.7088,5.7517,5.8198,5.589,5.4715,5.4748,5.5434,5.6648,5.8275,5.9044,5.9896,6.0627,5.9127,5.7896,5.7132,5.6324,5.5978,5.5978,5.5241,5.517,5.5895,5.443,5.3096,5.2185,0.0,0.0,0.0,0.0,0.0,0.0,0.0,0.0,0.0,0.0,0.0,0.0,0.0,0.0,5.1025,5.2686,0.0,5.6516,5.6275,0.0,0.0,0.0,5.6013,5.6084,5.6818,5.7624,5.85,0.0,0.0,6.354,6.575,6.6782,6.5282,6.6327,6.7212,6.7289,6.7968,6.8507,6.8622,6.8622,6.8584,6.8654,6.8615,6.857,6.8577,6.8584,6.8622,6.8622,6.866,6.8622,6.8699,6.8622,6.8808,6.9622,6.9518,6.905,6.6608,6.6514,6.6867,6.7192,6.8021,6.8613,5.2582,5.3121,5.2292,5.221,5.2528,5.1875,5.2226,5.3274,5.4126,5.428,5.3972,5.4977,5.4928,5.4149,5.3523,5.3561,5.4187,5.4149,5.4269,5.4587,5.5824,5.6291,5.6132,5.678,5.7198,5.7396,5.7396,5.7621,5.7967,5.8006,5.8088,5.828,5.7654,5.7379,5.7373,5.7566,5.7879,5.8275,5.9083,5.9588,5.9781,5.8819,5.8198,5.7973,5.7775,5.7973,5.855,5.7819,5.778,5.8511,5.7615,5.6374,5.4846,5.2766,0.0,0.0,0.0,0.0,0.0,0.0,0.0,0.0,0.0,4.6283,4.879,0.0,5.471,0.0,5.7928,5.7654,5.4434,5.7385,0.0,0.0,5.922,5.9733,6.0348,6.1147,6.2017,6.29,6.4686,6.6224,6.7064,6.8269,6.9167,6.9321,6.8629,6.8353,6.8975,6.9244,6.9629,7.0129,7.0244,7.0321,7.0283,7.0321,7.0321,7.0321,7.0321,7.0321,7.0321,7.0321,7.0321,7.0283,7.0321,7.0398,7.0591,7.0629,7.0473,6.9809,6.9769,6.9711,6.9451,6.9586,6.967,5.2774,5.3197,5.3197,5.3197,5.3159,5.2697,5.2736,5.3274,5.4126,5.428,5.3933,5.4395,5.5011,5.567,5.5241,5.5472,5.6165,5.6203,5.6203,5.6242,5.7132,5.7588,5.7588,5.8088,5.8665,5.9396,5.9011,5.9396,6.0429,5.9781,5.9781,6.0506,6.0165,6.0165,6.0467,5.939,5.9204,5.9973,6.005,5.9896,5.9511,5.905,5.8665,5.8313,5.8275,5.8506,5.8934,5.8544,5.866,5.9435,5.905,5.855,5.7973,5.6374,5.4248,0.0,0.0,0.0,0.0,0.0,0.0,0.0,0.0,0.0,0.0,0.0,5.8312,5.9279,6.0225,5.9935,5.789,6.0237,6.2,6.2271,6.2732,6.3187,6.3655,6.4443,6.5116,6.5615,6.7186,6.8436,6.893,6.9706,7.0398,7.0821,7.0129,6.9706,7.0129,7.0244,7.0398,7.0821,7.0898,7.1052,7.1398,7.1822,7.2052,7.2052,7.2052,7.2052,7.2052,7.2052,7.2052,7.2052,7.2045,7.2045,7.2052,7.2052,7.2052,7.2052,7.2052,7.1667,7.067,7.0463,7.0338,5.3587,5.3703,5.3813,5.3851,5.3851,5.3857,5.3621,5.3274,5.4241,5.4357,5.3851,5.3851,5.4664,5.6011,5.6011,5.6857,5.8275,5.839,5.8429,5.8467,5.8704,5.8781,5.8781,5.8896,5.9704,6.105,6.0358,6.1127,6.3198,6.182,6.1858,6.3237,6.2595,6.2672,6.3314,6.1166,6.0742,6.221,6.1518,6.0742,6.0012,5.9973,5.9665,5.8967,5.8929,5.9006,5.9121,5.9006,5.9313,6.0089,6.0044,6.0281,6.0902,5.9588,5.8011,0.0,5.4121,0.0,0.0,0.0,0.0,0.0,0.0,0.0,0.0,5.9363,6.1287,6.1281,6.1402,6.205,6.3506,6.3737,6.4391,6.5865,6.6167,6.6244,6.6397,6.7019,6.7481,6.7558,6.8936,6.986,7.0052,7.0629,7.1091,7.1321,7.1321,7.1283,7.1245,7.1168,7.1129,7.1206,7.1245,7.1668,7.2283,7.2976,7.3392,7.343,7.3353,7.3507,7.3392,7.3392,7.343,7.343,7.3392,7.3392,7.3507,7.343,7.343,7.3353,7.3353,7.2923,7.1724,7.1325,7.1245,5.5631,5.6362,5.7049,5.7313,5.7352,5.7352,5.5775,5.3313,5.4818,5.6165,5.7313,5.7319,5.7506,5.7813,5.7819,5.7967,5.8313,5.8967,5.9281,5.9358,6.0748,6.1402,6.1402,6.205,6.2506,6.2814,6.266,6.2814,6.3275,6.3006,6.2968,6.3275,6.316,6.3506,6.4243,0.0,0.0,0.0,6.2891,6.2737,6.2583,6.2583,6.2506,6.2352,6.2352,0.0,6.3358,6.2737,6.2737,6.3551,6.2968,0.0,0.0,0.0,0.0,0.0,0.0,0.0,0.0,0.0,0.0,0.0,5.9852,6.0429,5.9979,6.232,6.3897,6.3897,6.4519,6.5051,6.5359,6.6019,6.6519,6.6865,6.7513,6.8199,6.8898,6.9129,6.9436,7.0129,7.0475,7.0937,7.1591,7.186,7.2206,7.2783,7.2969,7.3007,7.2969,7.2399,7.2245,7.2853,7.2899,7.3046,7.3245,7.343,7.3661,7.3507,7.3507,7.3546,7.3584,7.3584,7.3546,7.3546,7.3507,7.3546,7.3546,7.3507,7.3584,7.3507,7.3507,7.3392,7.3046,7.3007,7.3007,5.7242,5.7665,5.8127,5.8275,0.0,5.8275,5.7313,5.5775,5.6626,5.7467,5.8275,5.8275,5.8506,5.8896,5.8896,5.9358,6.0204,6.0594,6.1012,6.1429,6.2281,6.2704,6.2704,6.3128,6.3506,6.3929,6.3506,6.3737,6.4512,6.3698,6.3737,6.4589,6.416,6.4397,6.5205,6.4782,6.416,6.3314,6.3314,6.3314,6.3314,6.3314,6.3314,6.3314,6.3314,0.0,0.0,0.0,0.0,0.0,0.0,0.0,0.0,0.0,0.0,6.205,6.1243,6.0973,6.1358,6.1012,6.1325,6.2589,6.4243,6.4666,6.3397,6.4859,6.6013,6.6429,6.6898,6.7321,6.7744,6.8129,6.8552,6.8943,6.936,6.9814,7.0244,7.0706,7.1091,7.1475,7.1937,7.2353,7.2783,7.2822,7.3014,7.343,7.3507,7.3661,7.393,7.336,7.3053,7.3469,7.3892,7.4084,7.4123,7.4507,7.4738,7.4745,7.4738,7.4745,7.4745,7.4745,7.4745,7.4745,7.4738,7.4745,7.4745,7.4745,7.4738,7.4738,7.4738,7.4738,7.4668,7.4084,7.3507,5.8511,5.855,5.8858,5.8973,5.8973,5.9121,5.916,5.916,0.0,0.0,0.0,5.8973,5.9435,6.016,6.0165,6.0973,6.2287,6.2326,6.2666,6.3314,6.3468,6.3545,6.3545,6.3698,6.4128,6.4782,6.4083,6.4506,6.582,6.4436,6.4474,6.5711,6.5166,6.5166,6.5859,6.5904,6.5205,6.3814,6.3775,6.3737,6.3775,6.3775,6.3775,6.3775,6.3775,6.3775,6.3775,6.3775,6.3775,6.3775,6.3891,6.3891,6.3775,6.4045,6.4468,6.4936,6.3903,6.3788,6.5128,6.3974,6.4095,6.6205,6.7782,6.7936,6.6244,6.7019,6.7859,6.8584,6.8776,6.9199,7.0052,7.0129,7.0475,7.1283,7.136,7.136,7.1398,7.1975,7.2406,7.2521,7.3014,7.3546,7.3661,7.3699,7.3776,7.393,7.4084,7.4238,7.4853,7.4507,7.4007,7.4161,7.4623,7.4938,7.5046,7.563,7.6169,7.6169,7.6322,7.6438,7.6438,7.6438,7.6438,7.6438,7.6438,7.6438,7.6438,7.6438,7.6438,7.6438,7.6438,7.6438,7.6322,7.5361,7.4476,5.9358,5.9473,6.0941,6.1556,6.1595,6.2281,6.2583,6.2391,6.0275,6.0165,6.1556,6.1556,6.2012,6.2775,6.2775,6.2891,6.3121,6.3121,6.3198,6.3352,6.4083,6.4436,6.4474,6.5205,6.559,6.5705,6.559,6.5667,6.582,6.5628,6.5667,6.5859,6.5782,6.575,6.5904,6.5904,6.5782,6.5551,6.5551,6.5513,6.5551,6.5513,6.5557,6.5551,6.5513,6.5557,6.5551,6.5513,6.5551,6.5551,6.6211,6.6244,6.5628,6.6853,6.743,6.6865,6.7205,6.7622,6.7814,6.7622,6.766,6.8045,6.8968,6.8783,6.7173,6.8398,6.9398,6.9552,7.0167,7.0898,7.1745,7.1822,7.2129,7.2937,7.3122,7.3122,7.3046,7.3199,7.3315,7.3315,7.3392,7.3853,7.4507,7.4584,7.4892,7.5438,7.5668,7.5938,7.6476,7.6207,7.5707,7.5668,7.5707,7.5822,7.5976,7.6553,7.7053,7.7138,7.7676,7.7946,7.7946,7.7946,7.7946,7.8099,7.7984,7.8023,7.8061,7.8138,7.8023,7.7946,7.7946,7.7984,7.7946,7.7638,7.7176,6.0473,6.0973,6.1749,6.2364,6.2781,6.316,6.3314,6.3198,6.2083,6.1968,6.2704,6.2743,6.2974,6.3275,6.3314,6.3583,6.4006,6.4006,6.4282,6.4705,6.5128,6.532,6.5359,6.5711,6.5904,6.5904,6.5904,6.5904,6.5904,6.5904,6.5904,6.5904,6.5904,6.5904,6.5904,6.5904,6.5904,6.5904,6.5904,6.5904,6.5904,6.5904,6.5904,6.5904,6.5904,6.5904,6.5904,6.5904,6.6096,6.6558,6.6904,6.7128,6.7282,6.8007,6.843,6.8513,6.843,6.8622,6.909,6.9507,6.9552,6.9199,7.0776,7.1245,6.9982,7.0591,7.1245,7.1706,7.2129,7.2469,7.286,7.2899,7.3053,7.3469,7.3507,7.3507,7.3546,7.393,7.4123,7.4199,7.4546,7.5168,7.6015,7.613,7.6438,7.7169,7.7361,7.7522,7.7869,7.763,7.7369,7.7361,7.7361,7.7369,7.7361,7.7676,7.7907,7.7946,7.8253,7.8484,7.8484,7.8523,7.8523,7.8484,7.8523,7.8484,7.8523,7.8484,7.8484,7.8484,7.8484,7.8484,7.8484,7.8484,7.8215,6.1749,6.2364,6.2595,6.3128,6.3852,6.3891,6.3897,6.3891,6.3891,6.3891,6.3852,6.3698,6.3698,6.3891,6.3891,6.4243,6.482,6.4897,6.5243,6.582,6.5904,6.5904,6.5904,6.5904,6.5904,6.5904,6.5904,6.5904,6.5904,6.5904,6.5904,6.5904,6.5904,6.5904,6.5904,6.5904,6.5904,6.5904,6.5904,6.5904,6.5904,6.5904,6.5904,6.5904,6.5904,6.5904,6.5904,6.5904,6.6211,6.6789,6.6981,6.7404,6.8045,6.8276,6.8776,6.9545,6.9237,6.9353,7.0206,7.0821,7.0898,7.036,7.1898,7.286,7.2783,7.2591,7.2745,7.3392,7.3392,7.3507,7.3738,7.3776,7.3853,7.4007,7.4046,7.4238,7.4399,7.493,7.5399,7.5553,7.6169,7.6823,7.7369,7.7561,7.7753,7.8253,7.8484,7.8523,7.8715,7.8784,7.883,7.8946,7.8792,7.8407,7.8523,7.8715,7.8784,7.8792,7.9023,7.9215,7.9215,7.9138,7.91,7.9215,7.9177,7.9254,7.9138,7.9138,7.9215,7.9254,7.9292,7.9215,7.9254,7.9254,7.8907,6.3083,6.3314,6.3968,6.4859,6.5551,6.559,6.559,6.559,6.5628,6.5667,6.5474,6.482,6.4897,6.559,6.5596,6.5628,6.5743,6.5782,6.582,6.5859,6.5904,6.5904,6.5904,6.5904,6.5904,6.5904,6.5904,6.5904,6.5904,6.5904,6.5904,6.5904,6.5904,6.5904,6.5904,6.5904,6.5904,6.5904,6.5904,6.5904,6.5904,6.5904,6.5904,6.5904,6.5904,6.5904,6.5904,6.5904,6.5942,6.6051,6.6789,6.7173,6.7366,6.7975,6.8814,6.9661,7.0283,7.1052,7.1828,7.2021,7.1982,7.1944,7.1475,7.2206,7.4046,7.3776,7.3392,7.3584,7.3546,7.393,7.4469,7.4623,7.4969,7.5592,7.5745,7.6092,7.6669,7.7022,7.733,7.8099,7.7984,7.833,7.8369,7.8446,7.8484,7.8754,7.883,7.9023,7.9554,7.9669,7.99,8.0285,7.9638,7.8715,7.8754,7.9208,7.9592,7.9738,8.0323,8.0554,8.0554,8.0631,8.0823,8.0362,8.0631,8.0592,8.0669,8.0823,8.0708,8.0477,8.0554,8.0746,8.0823,8.0708,8.0169,6.3583,6.4122,6.4436,6.5089,6.582,6.5904,6.5904,6.5904,6.5904,6.5904,6.5859,6.5519,6.559,6.5904,6.5904,6.5904,6.5904,6.5904,6.5904,6.5904,6.5904,6.5904,6.5904,6.5904,6.5904,6.5904,6.5904,6.5904,6.5904,6.5904,6.5904,6.5904,6.5904,6.5904,6.5904,6.5904,6.5904,6.5904,6.5904,6.5904,6.5904,6.5904,6.5904,6.5904,6.5904,6.5904,6.5936,6.6365,6.6859,6.7359,6.8167,6.8859,6.9321,6.9706,7.0014,7.0398,7.0706,7.1052,7.1405,7.1905,7.2213,7.2213,7.236,7.2937,7.3853,7.4123,7.4392,7.4899,7.4969,7.513,7.5476,7.5938,7.6399,7.6746,7.7176,7.7599,7.7946,7.8023,7.8176,7.8446,7.8484,7.8715,7.9208,7.9708,7.9977,8.0015,8.0015,8.0131,8.0516,8.0592,8.0708,8.0939,8.0439,8.0131,8.0015,8.0285,8.0516,8.0631,8.0823,8.1093,8.117,8.1093,8.1093,8.1131,8.1208,8.1208,8.1016,8.1093,8.1093,8.117,8.1131,8.1093,8.1093,8.1093,8.0669,6.4397,6.4897,6.4974,6.532,6.5904,6.5904,6.5904,6.5904,6.5904,6.5904,6.5904,6.5904,6.5904,6.5904,6.5904,6.5904,6.5904,6.5904,6.5904,6.5904,6.5904,6.5904,6.5904,6.5904,6.5904,6.5904,6.5904,6.5904,6.5904,6.5904,6.5904,6.5904,6.5904,6.5904,6.5904,6.5904,6.6019,6.6211,6.625,6.632,6.6551,6.659,6.6474,6.6288,6.6474,6.659,6.659,6.7128,6.7744,6.8353,6.9007,6.9629,7.0167,7.0206,7.0437,7.0898,7.1129,7.1245,7.1283,7.1867,7.2213,7.2213,7.2629,7.3084,7.3738,7.4161,7.4853,7.5822,7.5976,7.6053,7.6746,7.7246,7.7522,7.7407,7.8023,7.8484,7.8484,7.8484,7.8677,7.91,7.9138,7.9054,7.9746,8.0439,8.09,8.0631,8.0862,8.1093,8.1093,8.1054,8.1054,8.1093,8.1246,8.1285,8.117,8.1016,8.1131,8.14,8.1477,8.1593,8.167,8.1785,8.1785,8.2247,8.19,8.1823,8.2093,8.1939,8.1747,8.1785,8.1747,8.1785,8.1977,8.1708,8.1593,6.582,6.582,6.582,6.582,6.5904,6.5904,6.5904,6.5904,6.5904,6.5904,6.5904,6.5904,6.5904,6.5904,6.5904,6.5904,6.5904,6.5904,6.5904,6.5904,6.5904,6.5904,6.5904,6.5904,6.5904,6.5904,6.5904,6.5936,6.5942,6.5942,6.5904,6.5974,6.6051,6.5981,6.6058,6.6058,6.6327,6.6981,6.7051,6.7398,6.8122,6.8237,6.7853,6.7289,6.7821,6.816,6.8199,6.8314,6.8391,6.8391,6.8584,6.8622,6.8622,6.866,6.9398,7.0744,7.1629,7.2098,7.2021,7.2136,7.2213,7.2136,7.1745,7.2091,7.4123,7.4046,7.4469,7.5861,7.6053,7.6669,7.7946,7.8099,7.7946,7.7445,7.8023,7.8446,7.8484,7.8484,7.9292,8.0208,7.9939,7.9554,7.9746,8.0554,8.0592,8.0323,8.0592,8.1093,8.1093,8.1093,8.1093,8.1323,8.167,8.1977,8.1323,8.1477,8.1708,8.1977,8.2324,8.2439,8.3062,8.3486,8.3409,8.3332,8.3139,8.3139,8.337,8.3409,8.3255,8.3178,8.3101,8.3101,8.287,8.2601,8.2516,6.5904,6.5904,6.5904,6.5904,6.5904,6.5904,6.5904,6.5904,6.5904,6.5904,6.5904,6.5904,6.5904,6.5904,6.5904,6.5904,6.5904,6.5904,6.5904,6.5904,6.5904,6.5904,6.5904,6.5904,6.5904,6.5904,6.5904,6.6173,6.6635,6.6673,6.6974,6.743,6.7513,6.7513,6.7513,6.7475,6.7667,6.7898,6.7936,6.809,6.8468,6.893,6.9052,6.8783,6.8507,6.8391,6.8391,6.893,6.9237,6.9244,6.9706,7.0014,7.0014,7.0007,7.0244,7.0821,7.1206,7.136,7.1398,7.1898,7.2213,7.2213,7.2476,7.2853,7.3738,7.4161,7.4745,7.5784,7.6553,7.7369,7.8061,7.8061,7.7638,7.7484,7.7984,7.8484,7.8484,7.8484,7.8792,7.9254,7.9138,7.8977,7.9169,7.9708,8.0092,7.9931,8.0516,8.0977,8.1093,8.1093,8.1246,8.1747,8.2093,8.2401,8.2793,8.2716,8.2832,8.2986,8.3178,8.3216,8.3593,8.3793,8.3717,8.3832,8.387,8.387,8.3947,8.3909,8.3901,8.387,8.3832,8.3939,8.3563,8.3362,8.337,6.5904,6.5904,6.5904,6.5904,6.5904,6.5904,6.5904,6.5904,6.5904,6.5904,6.5904,6.5904,6.5904,6.5904,6.5904,6.5904,6.5904,6.5904,6.5904,6.5904,6.5904,6.5904,6.5904,6.5904,6.6051,6.6327,6.659,6.6859,6.7096,6.7398,6.7821,6.8353,6.8391,6.8391,6.8391,6.8391,6.8507,6.8737,6.8821,6.893,6.9237,6.9783,7.009,7.0014,6.9507,6.9199,6.9237,6.9783,7.009,7.0167,7.0629,7.0898,7.0898,7.0898,7.0898,7.0937,7.1206,7.1321,7.1444,7.2129,7.2629,7.2629,7.3129,7.3584,7.3853,7.4392,7.5084,7.5899,7.6476,7.7169,7.7445,7.7176,7.6976,7.733,7.8023,7.8369,7.8176,7.8099,7.8099,7.8176,7.8446,7.8407,7.8253,7.89,7.9131,7.9054,7.9708,8.0285,8.0592,8.0977,8.14,8.217,8.2862,8.3401,8.3862,8.4093,8.3978,8.4093,8.4063,8.4055,8.417,8.4255,8.4294,8.4332,8.4371,8.4362,8.4401,8.4401,8.4362,8.4332,8.4632,8.4901,8.4555,8.4247,8.4286,6.5904,6.5904,6.5904,6.5904,6.5904,6.5904,6.5904,6.5904,6.5904,6.5904,6.5904,6.5904,6.5904,6.5904,6.5904,6.5904,6.5904,6.5904,6.5904,6.5904,6.5904,6.5904,6.5904,6.6019,6.6442,6.7128,6.7936,6.7898,6.7404,6.8045,6.8468,6.8507,6.866,6.8737,6.8507,6.8699,6.8968,6.9507,6.9706,7.0052,7.0783,7.0783,7.0783,7.0821,7.0744,7.0706,7.0783,7.0821,7.0783,7.0821,7.086,7.0898,7.0975,7.1014,7.0975,7.1245,7.179,7.2175,7.2283,7.3014,7.3507,7.3546,7.3584,7.4046,7.4623,7.4815,7.5161,7.5822,7.6053,7.613,7.6169,7.6169,7.6399,7.7169,7.7792,7.7869,7.7484,7.7292,7.7292,7.7369,7.7792,7.8061,7.7676,7.7984,7.8292,7.8061,7.8477,7.9323,8.0131,8.0862,8.1477,8.2401,8.3478,8.4362,8.4931,8.5431,8.5286,8.5132,8.5016,8.4939,8.5286,8.5401,8.5324,8.5363,8.5324,8.5324,8.5324,8.5324,8.544,8.5478,8.5747,8.567,8.5401,8.517,8.5286,6.5904,6.5904,6.5904,6.5904,6.5904,6.5904,6.5904,6.5904,6.5904,6.5904,6.5904,6.5904,6.5904,6.5904,6.5904,6.5904,6.5904,6.5904,6.5904,6.5942,6.5904,6.5942,6.6058,6.6481,6.7167,6.7936,6.8244,6.8584,6.8859,6.9167,6.9552,7.0007,7.0084,7.0129,7.0052,7.0129,7.0321,7.0475,7.0552,7.0667,7.0898,7.0898,7.0898,7.0898,7.0898,7.0898,7.0898,7.0898,7.0898,7.0937,7.0898,7.1168,7.1668,7.179,7.2052,7.2622,7.293,7.3091,7.3161,7.3822,7.4315,7.443,7.4822,7.5284,7.5553,7.5553,7.5668,7.5976,7.5976,7.5976,7.5976,7.5976,7.613,7.6361,7.663,7.6784,7.6553,7.6438,7.6399,7.6438,7.663,7.663,7.6669,7.7207,7.7869,7.8176,7.8784,7.9592,8.0516,8.1285,8.2208,8.3139,8.4247,8.5124,8.5547,8.5778,8.5709,8.5593,8.5555,8.5517,8.5901,8.6094,8.6094,8.6094,8.6094,8.6094,8.6094,8.6094,8.6094,8.6094,8.5978,8.5978,8.6055,8.6017,8.5901,6.5904,6.5904,6.5904,6.5904,6.5904,6.5904,6.5904,6.5904,6.5904,6.5904,6.5904,6.5904,6.5904,6.5981,6.6211,6.6365,6.6397,6.6667,6.6821,6.6744,6.6442,6.6519,6.6898,6.7667,6.809,6.8468,6.9045,6.943,6.9706,7.0014,7.0398,7.0821,7.0898,7.086,7.0898,7.0898,7.0898,7.0898,7.0898,7.0898,7.0898,7.0898,7.0898,7.0898,7.0898,7.0898,7.0937,7.1168,7.136,7.1437,7.1668,7.2129,7.2629,7.2706,7.2937,7.3392,7.3776,7.393,7.4046,7.4707,7.5207,7.5315,7.5707,7.5976,7.5976,7.5976,7.5976,7.5976,7.5976,7.5976,7.5976,7.5976,7.5976,7.5976,7.6053,7.5976,7.5976,7.5976,7.6015,7.613,7.6361,7.6438,7.663,7.7207,7.7907,7.8523,7.8984,7.9631,8.0554,8.1593,8.2524,8.3609,8.4709,8.544,8.594,8.6055,8.6055,8.6017,8.5978,8.594,8.6055,8.6094,8.6094,8.6094,8.6094,8.6094,8.6094,8.6094,8.6094,8.6094,8.6094,8.6094,8.6094,8.6094,8.6017,6.5904,6.5904,6.5904,6.5904,6.5904,6.5904,6.5904,6.5904,6.5904,6.5904,6.5904,6.5904,6.5942,6.6134,6.6712,6.7019,6.7289,6.7821,6.8237,6.8122,6.7744,6.7705,6.8391,6.9052,6.9161,6.9045,7.009,7.0398,6.9975,7.0475,7.0898,7.0898,7.0898,7.0898,7.0898,7.0898,7.0898,7.0898,7.0898,7.0898,7.0898,7.0898,7.0975,7.1014,7.1052,7.1129,7.1398,7.2052,7.236,7.236,7.2937,7.3315,7.3507,7.3546,7.3584,7.3853,7.4392,7.47,7.4938,7.5399,7.5861,7.5861,7.5899,7.5976,7.5976,7.5976,7.5976,7.5976,7.5976,7.5976,7.5976,7.6041,7.6024,7.6024,7.6072,7.6083,7.6139,7.622,7.641,7.6531,7.691,7.7417,7.747,7.8118,7.8458,7.8767,7.8896,7.9419,8.0205,8.1499,8.2571,8.3694,8.4794,8.5517,8.5978,8.6094,8.6094,8.6094,8.6094,8.6094,8.6094,8.6094,8.6094,8.6094,8.6094,8.6094,8.6094,8.6094,8.6094,8.6094,8.6094,8.6094,8.6094,8.6094,8.6094,6.5904,6.5904,6.5904,6.5904,6.5904,6.5904,6.5904,6.5904,6.5904,6.5942,6.5904,6.5904,6.6288,6.6789,6.7019,6.7436,6.8013,6.8359,6.8814,6.9283,6.9167,6.909,6.9314,6.959,6.9898,7.0206,7.0591,7.0783,7.0591,7.0783,7.0898,7.0898,7.0898,7.0898,7.0898,7.0898,7.0898,7.0898,7.0898,7.0898,7.0898,7.0898,7.1245,7.1828,7.1822,7.2168,7.2776,7.3584,7.3738,7.3206,7.3353,7.3776,7.4315,7.4392,7.4623,7.5168,7.5438,7.563,7.5668,7.5861,7.5976,7.5976,7.5976,7.5976,7.5976,7.5976,7.5976,7.5976,7.5976,7.5991,7.6027,7.6115,7.6244,7.6391,7.6327,7.651,7.7079,7.7432,7.7626,7.8252,7.8466,7.8641,7.8709,7.8942,7.9292,7.9713,7.9926,8.0079,8.0844,8.1659,8.2838,8.3518,8.4464,8.5294,8.5863,8.6017,8.6094,8.6094,8.6094,8.6094,8.6094,8.6094,8.6094,8.6094,8.6094,8.6094,8.6094,8.6094,8.6094,8.6094,8.6094,8.6094,8.6094,8.6094,8.6094,6.5904,6.5904,6.5904,6.5904,6.5904,6.5904,6.5904,6.5981,6.6282,6.6397,6.6474,6.6821,6.7205,6.7667,6.8052,6.8475,6.8936,6.9321,6.9744,7.009,7.0167,7.0206,7.0206,7.0206,7.0475,7.0821,7.0898,7.0898,7.086,7.0898,7.0898,7.0898,7.0898,7.0898,7.0898,7.0898,7.0898,7.0898,7.0898,7.0898,7.0898,7.0898,7.1398,7.2021,7.2252,7.2706,7.3853,7.4469,7.4469,7.4161,7.4353,7.4784,7.5161,7.5245,7.5476,7.5976,7.5976,7.5976,7.5976,7.5976,7.5976,7.5976,7.5976,7.5976,7.5976,7.5976,7.5976,7.5976,7.6072,7.6121,7.6147,7.6306,7.6484,7.6677,7.66,7.6786,7.7336,7.7622,7.8068,7.866,7.9243,7.9714,7.9753,7.999,8.0415,8.0781,8.0909,8.1122,8.1505,8.229,8.3042,8.3728,8.4539,8.5456,8.6067,8.631,8.6259,8.6261,8.6145,8.6129,8.6094,8.6094,8.6094,8.6094,8.6094,8.6094,8.6094,8.6094,8.6094,8.6094,8.6094,8.6094,8.6094,8.6094,8.6094,6.5904,6.5904,6.5904,6.5904,6.5904,6.5974,6.6096,6.6211,6.6898,6.7244,6.7359,6.8045,6.8276,6.8584,6.9129,6.9706,6.986,7.036,7.0667,7.0783,7.0783,7.0783,7.0744,7.0744,7.0783,7.0898,7.0898,7.0898,7.0898,7.0898,7.0898,7.0898,7.0898,7.0898,7.0898,7.0898,7.0898,7.0898,7.0898,7.1014,7.1129,7.1245,7.1745,7.2668,7.3021,7.3591,7.4507,7.493,7.4853,7.4861,7.5592,7.5822,7.5938,7.5976,7.5976,7.5976,7.5976,7.5976,7.5976,7.5976,7.5976,7.5976,7.5976,7.6012,7.6062,7.6059,7.6093,7.6147,7.6237,7.6304,7.6405,7.656,7.6838,7.7102,7.7123,7.7001,7.7113,7.7618,7.8128,7.8404,7.9812,8.0429,8.0776,8.1211,8.176,8.1482,8.1613,8.1658,8.1916,8.2493,8.3259,8.3989,8.484,8.5749,8.6224,8.6643,8.6541,8.6449,8.6281,8.62,8.6118,8.6094,8.6094,8.6094,8.6094,8.6094,8.6094,8.6094,8.6094,8.6094,8.6094,8.6094,8.6094,8.6094,8.6094,6.5904,6.5904,6.5904,6.5904,6.5981,6.6551,6.6827,6.6942,6.7744,6.8122,6.816,6.8353,6.8853,6.9436,6.9706,7.0014,7.0514,7.0821,7.0898,7.0898,7.0898,7.0898,7.0898,7.0898,7.0898,7.0898,7.0898,7.0898,7.0898,7.0898,7.0898,7.0898,7.0898,7.0898,7.0898,7.0898,7.0898,7.0898,7.0898,7.1321,7.179,7.1944,7.2591,7.3899,7.4668,7.5207,7.5553,7.5707,7.5707,7.5784,7.5861,7.5976,7.5976,7.5976,7.5976,7.5976,7.5976,7.5976,7.5984,7.6012,7.5991,7.6048,7.6052,7.6066,7.6225,7.6231,7.6311,7.6424,7.6496,7.6621,7.6738,7.6785,7.7163,7.7679,7.8008,7.8281,7.8867,7.918,7.9765,8.082,8.1445,8.1875,8.1875,8.1875,8.2148,8.2187,8.2148,8.207,8.2344,8.2695,8.329,8.3948,8.4796,8.563,8.6302,8.6634,8.6661,8.6565,8.6396,8.6253,8.6137,8.6094,8.6094,8.6094,8.6094,8.6094,8.6094,8.6094,8.6094,8.6094,8.6094,8.6094,8.6094,8.6094,8.6094,6.5904,6.5904,6.5904,6.6128,6.6481,6.6936,6.7321,6.7821,6.8622,6.9007,6.9122,6.9353,6.986,7.0244,7.0283,7.0552,7.0783,7.0898,7.0898,7.0898,7.0898,7.0898,7.0898,7.0898,7.0898,7.0898,7.0898,7.0898,7.0898,7.0898,7.0898,7.0898,7.0898,7.0898,7.0898,7.0937,7.0898,7.1014,7.1321,7.1745,7.2136,7.2629,7.3322,7.4584,7.5515,7.5976,7.5976,7.5976,7.5976,7.5976,7.5976,7.5976,7.5976,7.5976,7.5976,7.5976,7.5976,7.6052,7.6101,7.6167,7.6197,7.6283,7.63,7.6348,7.641,7.6443,7.6493,7.6571,7.6702,7.6836,7.7002,7.7011,7.7422,7.7773,7.8281,7.8672,7.918,7.9805,8.0586,8.1562,8.1875,8.2148,8.2304,8.2304,8.2304,8.2226,8.2226,8.2187,8.2187,8.2578,8.3047,8.3741,8.4624,8.5434,8.6244,8.6638,8.6769,8.662,8.6449,8.6288,8.6129,8.6118,8.6094,8.6094,8.6094,8.6094,8.6094,8.6094,8.6094,8.6094,8.6094,8.6094,8.6094,8.6094,8.6094,6.5981,6.609,6.6096,6.6558,6.725,6.7481,6.7975,6.8667,6.9507,6.9853,6.9975,7.0629,7.0706,7.086,7.0821,7.0898,7.0898,7.0898,7.0898,7.0898,7.0898,7.0898,7.0898,7.0898,7.0898,7.0898,7.0898,7.0898,7.0898,7.0898,7.0898,7.0898,7.0898,7.0898,7.0898,7.1091,7.1206,7.1321,7.2014,7.2552,7.2783,7.3399,7.4084,7.4976,7.5553,7.5976,7.5976,7.5976,7.5976,7.5976,7.5976,7.5976,7.5976,7.5976,7.5976,7.5984,7.6055,7.6147,7.6254,7.6322,7.641,7.6614,7.6606,7.6632,7.665,7.667,7.6699,7.6755,7.6862,7.7,7.7148,7.7187,7.7344,7.7773,7.8359,7.8672,7.914,8.0273,8.1094,8.1133,8.1797,8.2265,8.2304,8.2304,8.2304,8.2304,8.2304,8.2304,8.2304,8.2617,8.3164,8.3984,8.4961,8.5859,8.664,8.6878,8.7005,8.6817,8.6616,8.6429,8.6231,8.6151,8.6118,8.6094,8.6094,8.6094,8.6094,8.6094,8.6094,8.6094,8.6094,8.6094,8.6094,8.6094,8.6094,6.6288,6.6904,6.6904,6.7404,6.8244,6.8943,6.9296,6.9584,7.0321,7.0667,7.0706,7.0821,7.0898,7.0898,7.0898,7.0898,7.0898,7.0898,7.0898,7.0898,7.0898,7.0898,7.0898,7.0898,7.0898,7.0898,7.0898,7.0898,7.0898,7.0898,7.0898,7.0898,7.0898,7.0898,7.1168,7.1552,7.1898,7.2091,7.2822,7.3507,7.3969,7.4353,7.4861,7.5553,7.5899,7.5976,7.5976,7.5976,7.5976,7.5976,7.5976,7.5976,7.5991,7.5991,7.602,7.6038,7.6141,7.6266,7.6346,7.6488,7.6568,7.6614,7.6657,7.6727,7.6788,7.6856,7.6921,7.7031,7.7109,7.7187,7.7187,7.7226,7.793,7.8711,7.9219,7.957,8.0273,8.1015,8.1406,8.0976,8.164,8.2304,8.2304,8.2304,8.2304,8.2304,8.2304,8.2304,8.2304,8.2812,8.3515,8.4453,8.5469,8.6367,8.7226,8.7265,8.7318,8.7016,8.6806,8.6643,8.6436,8.6215,8.6151,8.6118,8.6094,8.6094,8.6094,8.6094,8.6094,8.6094,8.6094,8.6094,8.6094,8.6094,8.6094,6.7255,6.7912,6.8016,6.8442,6.9079,6.9589,7.0015,7.0373,7.0744,7.0898,7.0898,7.0898,7.0898,7.0898,7.0898,7.0898,7.0898,7.0898,7.0898,7.0898,7.0898,7.0898,7.0898,7.0898,7.0898,7.0898,7.0898,7.0937,7.0898,7.0898,7.0937,7.0898,7.0898,7.1091,7.1552,7.1975,7.2476,7.2899,7.3699,7.4315,7.4738,7.5053,7.563,7.5861,7.5976,7.5976,7.5976,7.5976,7.5976,7.5976,7.5976,7.5976,7.6034,7.6113,7.6147,7.6185,7.6239,7.6415,7.6545,7.6727,7.6783,7.6922,7.6914,7.6941,7.7006,7.7055,7.7109,7.7187,7.7226,7.7226,7.7226,7.7226,7.7851,7.8711,7.914,7.9375,7.9805,8.0547,8.0664,8.0664,8.1445,8.2031,8.2304,8.2304,8.2304,8.2304,8.2304,8.2304,8.2304,8.2734,8.3398,8.4023,8.4922,8.5976,8.6836,8.7187,8.7383,8.7223,8.7008,8.6837,8.6632,8.6403,8.6208,8.6126,8.611,8.6094,8.6094,8.6094,8.6094,8.6094,8.6094,8.6094,8.6094,8.6094,8.6094,6.8337,6.901,6.9105,6.9515,7.0037,7.016,7.0527,7.0931,7.0966,7.0985,7.0953,7.0932,7.0898,7.0898,7.0898,7.0898,7.0898,7.0898,7.0898,7.0898,7.0898,7.0898,7.0937,7.1091,7.1245,7.1321,7.1629,7.1206,7.0975,7.1168,7.1206,7.136,7.1321,7.1706,7.236,7.2822,7.3161,7.3738,7.4507,7.493,7.5161,7.5592,7.5976,7.5976,7.5976,7.5976,7.5976,7.5976,7.5976,7.5976,7.5984,7.602,7.6086,7.6201,7.6343,7.64,7.6415,7.6593,7.6775,7.6942,7.7004,7.7109,7.7187,7.7187,7.7187,7.7187,7.7187,7.7226,7.7226,7.7226,7.7226,7.7226,7.7773,7.8594,7.8867,7.8906,7.9453,7.9961,8.0195,8.0547,8.1289,8.1797,8.2148,8.2304,8.2304,8.2304,8.2304,8.2304,8.2304,8.2304,8.2812,8.3281,8.4101,8.5273,8.6133,8.6797,8.7109,8.7328,8.7153,8.6968,8.6774,8.6582,8.6371,8.6138,8.6102,8.6094,8.6094,8.6094,8.6094,8.6094,8.6094,8.6094,8.6094,8.6094,8.6094,6.927,7.0028,7.0055,7.053,7.1175,7.124,7.1318,7.1373,7.1218,7.1169,7.1153,7.0991,7.092,7.0934,7.0927,7.0932,7.0984,7.1075,7.1159,7.1255,7.1235,7.1208,7.1129,7.1745,7.1982,7.2129,7.2706,7.2206,7.1629,7.1822,7.2014,7.2175,7.2629,7.3245,7.3315,7.3776,7.4437,7.4707,7.5399,7.5784,7.5784,7.5899,7.5976,7.5976,7.5976,7.5976,7.5991,7.6012,7.6034,7.6027,7.6012,7.6081,7.6231,7.6261,7.6523,7.6715,7.6843,7.6854,7.6936,7.7052,7.7148,7.7187,7.7226,7.7226,7.7226,7.7305,7.7344,7.7226,7.7305,7.7461,7.7539,7.7344,7.8086,7.8867,7.9453,7.9883,8.0312,7.9805,8.0,8.0195,8.0898,8.1523,8.2031,8.2187,8.2304,8.2304,8.2304,8.2304,8.2304,8.2304,8.2383,8.289,8.3554,8.4648,8.5273,8.5976,8.6445,8.6953,8.6875,8.6758,8.6472,8.6159,8.6339,8.6139,8.6105,8.5991,8.5907,8.5937,8.6049,8.6094,8.6094,8.6094,8.6094,8.6094,8.6094,7.0824,7.1046,7.1143,7.1289,7.1505,7.158,7.1569,7.1478,7.1393,7.1387,7.1374,7.129,7.1233,7.1285,7.1233,7.1552,7.1858,7.1959,7.2191,7.2416,7.2458,7.2411,7.251,7.2745,7.2937,7.307,7.3245,7.3161,7.2636,7.2689,7.2937,7.3014,7.3353,7.3738,7.4123,7.4507,7.4976,7.5361,7.5822,7.5976,7.5976,7.5984,7.5991,7.5991,7.5998,7.6012,7.6048,7.6128,7.6154,7.621,7.6272,7.6356,7.6493,7.6595,7.6744,7.6854,7.7002,7.7054,7.7099,7.7187,7.7187,7.7226,7.7226,7.7226,7.7265,7.7656,7.793,7.7969,7.8398,7.8515,7.8555,7.8633,7.9297,7.9922,8.0,8.039,8.0703,8.0273,8.0078,8.0234,8.0469,8.1172,8.1679,8.1719,8.1953,8.2304,8.2304,8.2304,8.2304,8.2304,8.2422,8.2617,8.332,8.414,8.4492,8.4961,8.539,8.5781,8.5781,8.5703,8.5664,8.5618,8.5737,8.59,8.5867,8.5771,8.5692,8.5861,8.6072,8.6094,8.6094,8.6094,8.6094,8.6094,8.6094,7.1908,7.1803,7.1911,7.185,7.1653,7.1735,7.1727,7.1609,7.1563,7.1546,7.1611,7.1732,7.1941,7.2107,7.2242,7.2577,7.3034,7.309,7.3395,7.3712,7.3835,7.3666,7.3612,7.3712,7.3977,7.3966,7.4417,7.4411,7.4381,7.43,7.4237,7.3836,7.4238,7.4514,7.4899,7.5137,7.5435,7.5927,7.6043,7.6128,7.6166,7.6179,7.6172,7.616,7.6173,7.6135,7.6172,7.6261,7.6356,7.64,7.6497,7.6556,7.669,7.6765,7.6915,7.6996,7.7104,7.7187,7.7187,7.7187,7.7226,7.7265,7.7461,7.7656,7.7695,7.8281,7.8828,7.8789,7.914,7.9531,7.9687,7.9609,8.0,8.0273,8.0469,8.0781,8.0976,8.0664,8.0429,8.0469,8.0664,8.0859,8.1211,8.1172,8.1523,8.2148,8.2304,8.2304,8.2304,8.2304,8.2383,8.25,8.2773,8.3515,8.3945,8.4258,8.457,8.4726,8.4726,8.4883,8.5,8.5078,8.5147,8.5327,8.5442,8.5202,8.485,8.5489,8.6094,8.6094,8.6094,8.6094,8.6094,8.6055,8.6055,7.1992,7.1992,7.1992,7.1992,7.1953,7.1953,7.1953,7.1905,7.1788,7.1799,7.2059,7.2401,7.3136,7.3552,7.3619,7.373,7.3935,7.3918,7.4113,7.4145,7.4003,7.4242,7.4416,7.4826,7.5171,7.5248,7.5551,7.5992,7.6237,7.584,7.5426,7.4851,7.5253,7.567,7.5838,7.5799,7.5896,7.6254,7.6261,7.6379,7.6457,7.6514,7.6518,7.6531,7.6556,7.6537,7.6537,7.6548,7.6564,7.6567,7.6635,7.6744,7.6862,7.6928,7.7002,7.7103,7.7148,7.7226,7.7226,7.7226,7.7226,7.7461,7.789,7.8398,7.8437,7.914,7.957,7.9687,8.0,8.0039,7.9961,7.9844,8.0547,8.0859,8.1133,8.1367,8.1484,8.1289,8.1054,8.0859,8.0937,8.1211,8.1328,8.1445,8.1601,8.2187,8.2304,8.2304,8.2304,8.2304,8.2304,8.2344,8.2344,8.2812,8.3437,8.3711,8.3789,8.3984,8.414,8.4336,8.457,8.4609,8.457,8.4496,8.4507,8.4275,8.4216,8.4855,8.5459,8.5889,8.5978,8.5517,8.5555,8.5632,8.5747,7.1992,7.1992,7.1992,7.1992,7.1992,7.1992,7.1992,7.2109,7.2495,7.3037,7.3476,7.3789,7.4062,7.4336,7.4414,7.4686,7.5078,7.5156,7.5358,7.5666,7.5762,7.5713,7.5827,7.5829,7.6112,7.6133,7.6476,7.6621,7.6529,7.666,7.6459,7.6124,7.6239,7.6283,7.6356,7.6338,7.6395,7.6448,7.6497,7.6521,7.6583,7.6621,7.6621,7.6621,7.6621,7.6621,7.659,7.6732,7.676,7.6829,7.6876,7.6992,7.7031,7.707,7.7148,7.7265,7.7305,7.7305,7.7344,7.7344,7.7422,7.8125,7.8711,7.9219,7.9297,8.0039,8.039,8.0625,8.0937,8.1054,8.1289,8.1328,8.1601,8.1719,8.1836,8.1992,8.1953,8.1719,8.164,8.1484,8.1562,8.1797,8.1836,8.1875,8.2031,8.2265,8.2265,8.2304,8.2304,8.2304,8.2304,8.2304,8.2304,8.2304,8.289,8.2969,8.2969,8.3242,8.3515,8.3633,8.3789,8.3984,8.3906,8.3789,8.3801,8.381,8.3978,8.4343,8.4687,8.495,8.4781,8.4439,8.467,8.5093,8.5247,7.1992,7.2031,7.2265,7.2383,7.2383,7.2383,7.2539,7.2851,7.3437,7.418,7.4961,7.5,7.5156,7.5312,7.543,7.5664,7.6133,7.6289,7.6562,7.6736,7.6832,7.688,7.6797,7.6744,7.6689,7.6758,7.6758,7.6785,7.6836,7.6814,7.6739,7.6739,7.6763,7.6735,7.6556,7.6625,7.6607,7.669,7.6702,7.6741,7.6763,7.678,7.6824,7.6829,7.6834,7.6836,7.6854,7.6936,7.6993,7.7045,7.707,7.7187,7.7187,7.7226,7.7344,7.75,7.7578,7.7656,7.7851,7.7773,7.8008,7.8789,7.9609,8.0,8.0273,8.0859,8.1328,8.1406,8.1914,8.2304,8.2304,8.2109,8.2031,8.207,8.2109,8.2187,8.2226,8.207,8.2148,8.2109,8.2187,8.2109,8.2109,8.2109,8.2148,8.2265,8.2304,8.2304,8.2304,8.2304,8.2304,8.2304,8.2304,8.2304,8.2344,8.2539,8.2656,8.2656,8.2851,8.2695,8.2812,8.3086,8.3203,8.3008,8.3103,8.339,8.342,8.3353,8.3524,8.381,8.3718,8.3717,8.3947,8.4362,8.4439,7.2031,7.2109,7.293,7.3281,7.3359,7.3281,7.3711,7.4258,7.4492,7.5039,7.582,7.5898,7.625,7.6758,7.6719,7.6797,7.6914,7.7031,7.7109,7.7109,7.7148,7.7148,7.7148,7.7109,7.707,7.7187,7.7109,7.707,7.7148,7.7109,7.7109,7.7109,7.707,7.6948,7.666,7.6636,7.6718,7.686,7.6915,7.6995,7.707,7.7109,7.7109,7.7109,7.707,7.707,7.707,7.7109,7.7148,7.7148,7.7187,7.7265,7.7422,7.7383,7.7734,7.8398,7.8437,7.8828,7.9453,7.8867,7.9062,7.9648,8.0469,8.0937,8.1133,8.164,8.2109,8.1992,8.2226,8.2304,8.2304,8.2304,8.2304,8.2304,8.2304,8.2304,8.2304,8.2304,8.2304,8.2304,8.2304,8.2304,8.2304,8.2304,8.2265,8.2304,8.2304,8.2304,8.2304,8.2304,8.2304,8.2304,8.2304,8.2304,8.2304,8.2304,8.2344,8.2304,8.2304,8.2304,8.2304,8.2578,8.2539,8.2304,8.2498,8.2837,8.2498,8.2134,8.2547,8.3003,8.3193,8.3255,8.3486,8.3563,8.3593,7.289,7.293,7.3789,7.4492,7.4883,7.4375,7.4336,7.4687,7.5234,7.5937,7.664,7.6758,7.6875,7.7148,7.7226,7.7226,7.7226,7.7226,7.7226,7.7226,7.7226,7.7226,7.7226,7.7226,7.7226,7.7226,7.7226,7.7226,7.7187,7.7226,7.7226,7.7226,7.7187,7.7109,7.7048,7.6999,7.7053,7.7099,7.7102,7.7148,7.7187,7.7226,7.7226,7.7226,7.7226,7.7226,7.7226,7.7226,7.7344,7.7344,7.7344,7.7617,7.793,7.8047,7.8476,7.9101,7.9297,7.9687,8.0273,8.0273,8.0273,8.0742,8.125,8.1758,8.1953,8.207,8.2265,8.2304,8.2304,8.2304,8.2304,8.2304,8.2304,8.2304,8.2304,8.2304,8.2304,8.2304,8.2304,8.2304,8.2304,8.2304,8.2304,8.2304,8.2304,8.2304,8.2304,8.2304,8.2304,8.2304,8.2304,8.2304,8.2304,8.2304,8.2304,8.2304,8.2304,8.2304,8.2304,8.2304,8.2304,8.2304,8.2304,8.2304,8.2304,8.2265,8.2174,8.2093,8.1994,8.2202,8.2432,8.2378,8.2285,8.2477,8.2747,7.375,7.3828,7.4687,7.539,7.5781,7.5273,7.5195,7.5547,7.6094,7.668,7.7109,7.7187,7.7187,7.7187,7.7226,7.7226,7.7226,7.7226,7.7226,7.7226,7.7226,7.7226,7.7226,7.7226,7.7226,7.7226,7.7226,7.7226,7.7226,7.7226,7.7226,7.7226,7.7226,7.7187,7.7187,7.7187,7.7187,7.7187,7.7187,7.7187,7.7226,7.7226,7.7226,7.7226,7.7226,7.7226,7.7305,7.7461,7.7656,7.7695,7.7969,7.8281,7.875,7.9023,7.9336,7.9883,8.0547,8.0859,8.1289,8.1445,8.1367,8.1484,8.2031,8.2265,8.2304,8.2304,8.2304,8.2304,8.2304,8.2304,8.2304,8.2304,8.2304,8.2304,8.2304,8.2304,8.2304,8.2304,8.2304,8.2304,8.2304,8.2304,8.2304,8.2304,8.2304,8.2304,8.2304,8.2304,8.2304,8.2304,8.2304,8.2304,8.2304,8.2304,8.2304,8.2304,8.2304,8.2304,8.2304,8.2304,8.2304,8.2304,8.2304,8.2304,8.2304,8.2265,8.2226,8.2153,8.2076,8.1873,8.1697,8.1548,8.1169,8.1477,8.1977,7.4648,7.4765,7.5586,7.5937,7.5937,7.5976,7.6406,7.7109,7.7148,7.7148,7.7226,7.7226,7.7226,7.7226,7.7226,7.7226,7.7226,7.7226,7.7226,7.7226,7.7226,7.7226,7.7226,7.7226,7.7226,7.7226,7.7226,7.7226,7.7226,7.7226,7.7226,7.7226,7.7226,7.7226,7.7226,7.7226,7.7226,7.7226,7.7226,7.7226,7.7226,7.7226,7.7344,7.7383,7.75,7.7578,7.7773,7.8164,7.8437,7.8711,7.914,7.9492,7.9726,7.9726,8.0273,8.0976,8.1797,8.1992,8.2109,8.207,8.2109,8.207,8.2187,8.2304,8.2304,8.2304,8.2304,8.2304,8.2304,8.2304,8.2304,8.2304,8.2304,8.2304,8.2304,8.2304,8.2304,8.2304,8.2304,8.2304,8.2304,8.2304,8.2304,8.2304,8.2304,8.2304,8.2304,8.2304,8.2304,8.2304,8.2304,8.2304,8.2304,8.2304,8.2304,8.2304,8.2304,8.2304,8.2304,8.2304,8.2304,8.2304,8.2304,8.2304,8.2304,8.2304,8.2265,8.2226,8.2207,8.1948,8.1947,8.1635,8.1562,8.1193,8.1439,7.5508,7.5625,7.6445,7.6836,7.6836,7.6836,7.6992,7.7187,7.7226,7.7226,7.7226,7.7226,7.7226,7.7226,7.7226,7.7226,7.7226,7.7226,7.7226,7.7265,7.7422,7.7265,7.7265,7.7344,7.7265,7.7265,7.7305,7.7422,7.7305,7.7265,7.7305,7.7226,7.7461,7.7383,7.7344,7.7265,7.7344,7.7344,7.7383,7.7383,7.7383,7.7422,7.7656,7.7969,7.8125,7.832,7.8789,7.9101,7.9336,7.9492,7.9609,7.9883,8.0625,8.0664,8.1015,8.1797,8.2187,8.2304,8.2304,8.2304,8.2304,8.2304,8.2304,8.2304,8.2304,8.2304,8.2304,8.2304,8.2304,8.2304,8.2304,8.2304,8.2304,8.2304,8.2304,8.2304,8.2304,8.2304,8.2304,8.2304,8.2304,8.2304,8.2304,8.2304,8.2304,8.2304,8.2304,8.2304,8.2304,8.2304,8.2304,8.2304,8.2304,8.2304,8.2304,8.2304,8.2304,8.2304,8.2304,8.2304,8.2304,8.2304,8.2304,8.2304,8.2304,8.2304,8.2304,8.2383,8.2695,8.2754,8.2719,8.231,8.1956,8.1735,8.1609,7.6406,7.6484,7.6992,7.7226,7.7226,7.7226,7.7226,7.7226,7.7226,7.7226,7.7226,7.7226,7.7226,7.7226,7.7226,7.7226,7.7226,7.7656,7.7812,7.7851,7.7969,7.8242,7.8203,7.8125,7.8281,7.8164,7.8164,7.8398,7.8125,7.8164,7.8242,7.8281,7.8203,7.8164,7.8281,7.8359,7.832,7.8164,7.8047,7.7969,7.8008,7.8125,7.8555,7.8828,7.8984,7.9336,7.9726,7.9961,8.0195,8.0351,8.039,8.0937,8.1484,8.1523,8.1601,8.2226,8.2265,8.2304,8.2304,8.2304,8.2304,8.2304,8.2304,8.2304,8.2304,8.2304,8.2304,8.2304,8.2304,8.2304,8.2304,8.2304,8.2304,8.2304,8.2304,8.2304,8.2304,8.2304,8.2304,8.2304,8.2304,8.2304,8.2304,8.2304,8.2304,8.2304,8.2304,8.2304,8.2304,8.2304,8.2304,8.2304,8.2304,8.2304,8.2304,8.2304,8.2304,8.2304,8.2304,8.2304,8.2304,8.2304,8.2304,8.2304,8.2304,8.2422,8.2695,8.3086,8.3395,8.3494,8.3646,8.3465,8.3154,8.2846,8.2757,7.7187,7.7187,7.7226,7.7226,7.7226,7.7305,7.7383,7.7305,7.75,7.7383,7.7383,7.7344,7.7461,7.7734,7.7773,7.7734,7.793,7.832,7.8555,7.8633,7.9023,7.9297,7.9375,7.9648,7.9219,7.9531,7.957,7.918,7.9531,7.9414,7.9297,7.9687,7.9531,7.9375,7.9297,7.9297,7.9336,7.9492,7.918,7.9023,7.9336,7.9609,7.9726,7.9765,7.9805,7.9922,8.0195,8.0586,8.1094,8.1406,8.1679,8.2148,8.2148,8.2187,8.2226,8.2265,8.2304,8.2304,8.2304,8.2304,8.2304,8.2304,8.2304,8.2304,8.2304,8.2304,8.2304,8.2304,8.2304,8.2304,8.2304,8.2304,8.2304,8.2304,8.2304,8.2304,8.2304,8.2304,8.2304,8.2304,8.2304,8.2304,8.2304,8.2304,8.2304,8.2304,8.2304,8.2304,8.2304,8.2304,8.2304,8.2304,8.2304,8.2304,8.2304,8.2304,8.2304,8.2304,8.2304,8.2304,8.2304,8.2304,8.2304,8.2383,8.25,8.2929,8.3281,8.3828,8.4297,8.4451,8.4583,8.4624,8.4433,8.4072,8.3889,7.7226,7.7226,7.7226,7.7226,7.7305,7.793,7.8203,7.8281,7.8867,7.8711,7.8281,7.8242,7.8515,7.8867,7.8906,7.8906,7.9062,7.918,7.9375,7.9453,7.9805,8.0078,7.9844,8.0039,7.9883,7.9726,7.9726,7.9922,8.0,7.9922,7.9765,7.9765,7.9883,8.0,7.9961,7.9961,8.0156,8.0625,8.0508,8.0039,7.9922,7.9922,7.9883,8.039,8.0703,8.1015,8.1328,8.1719,8.1953,8.2109,8.2148,8.2265,8.2304,8.2304,8.2304,8.2304,8.2304,8.2304,8.2304,8.2304,8.2304,8.2304,8.2304,8.2304,8.2304,8.2304,8.2304,8.2304,8.2304,8.2304,8.2304,8.2304,8.2304,8.2304,8.2304,8.2304,8.2304,8.2304,8.2304,8.2304,8.2304,8.2304,8.2304,8.2304,8.2304,8.2304,8.2304,8.2304,8.2304,8.2304,8.2304,8.2304,8.2304,8.2304,8.2304,8.2304,8.2304,8.2304,8.2304,8.2304,8.2304,8.25,8.2617,8.2656,8.2773,8.3437,8.4179,8.4961,8.5351,8.5429,8.566,8.5813,8.5713,8.5416,8.514,7.7226,7.7226,7.7617,7.7773,7.793,7.8672,7.9023,7.9101,7.9531,7.9687,7.9531,7.9258,7.9297,7.9726,7.9726,7.9805,7.9883,8.0156,8.0234,8.0312,8.0586,8.0937,8.0859,8.0742,8.0976,8.0859,8.0859,8.0937,8.0742,8.0898,8.0937,8.0781,8.0781,8.0781,8.0781,8.0859,8.1015,8.1562,8.1523,8.1211,8.0742,8.0859,8.0976,8.1523,8.1679,8.1953,8.2031,8.2304,8.2304,8.2304,8.2304,8.2304,8.2304,8.2304,8.2304,8.2304,8.2304,8.2304,8.2304,8.2304,8.2304,8.2304,8.2304,8.2304,8.2304,8.2304,8.2304,8.2304,8.2304,8.2304,8.2304,8.2304,8.2304,8.2304,8.2304,8.2304,8.2304,8.2304,8.2304,8.2304,8.2304,8.2304,8.2304,8.2304,8.2304,8.2304,8.2304,8.2304,8.2304,8.2304,8.2304,8.2304,8.2304,8.2304,8.2304,8.2304,8.2304,8.2304,8.2304,8.2304,8.2344,8.2734,8.2969,8.3047,8.3476,8.4336,8.5078,8.5742,8.6289,8.6445,8.6758,8.7058,8.6835,8.6458,8.6022,7.7265,7.7461,7.8281,7.8633,7.8789,7.9531,7.9883,7.9883,8.0,8.0508,8.0937,8.0351,8.0078,8.0039,8.0039,8.0039,8.0273,8.0937,8.1133,8.1367,8.1836,8.1797,8.1914,8.2109,8.1992,8.1953,8.1992,8.2031,8.1992,8.1992,8.1953,8.2265,8.2304,8.2265,8.2304,8.2265,8.2187,8.2109,8.2109,8.2226,8.2265,8.2304,8.2187,8.2226,8.2304,8.2304,8.2304,8.2304,8.2304,8.2304,8.2304,8.2304,8.2304,8.2304,8.2304,8.2304,8.2304,8.2304,8.2304,8.2304,8.2304,8.2304,8.2304,8.2304,8.2304,8.2304,8.2304,8.2304,8.2304,8.2304,8.2304,8.2304,8.2304,8.2304,8.2304,8.2304,8.2304,8.2304,8.2304,8.2304,8.2304,8.2304,8.2304,8.2304,8.2304,8.2304,8.2304,8.2304,8.2304,8.2304,8.2304,8.2304,8.2304,8.2304,8.2304,8.2304,8.2304,8.2304,8.2304,8.2304,8.2422,8.289,8.3281,8.3594,8.414,8.5078,8.5703,8.625,8.6758,8.7187,8.7265,8.7344,8.7136,8.6809,8.6569,7.7617,7.832,7.914,7.9453,7.9609,8.039,8.0742,8.0859,8.1484,8.1914,8.1875,8.1953,8.1797,8.1797,8.1797,8.1679,8.1445,8.1875,8.1992,8.2187,8.2187,8.2265,8.2304,8.2304,8.2304,8.2304,8.2304,8.2304,8.2304,8.2304,8.2304,8.2304,8.2304,8.2304,8.2304,8.2304,8.2304,8.2304,8.2304,8.2304,8.2304,8.2304,8.2304,8.2304,8.2304,8.2304,8.2304,8.2304,8.2304,8.2304,8.2304,8.2304,8.2304,8.2304,8.2304,8.2304,8.2304,8.2304,8.2304,8.2304,8.2304,8.2304,8.2304,8.2304,8.2304,8.2304,8.2304,8.2304,8.2304,8.2304,8.2304,8.2304,8.2304,8.2304,8.2304,8.2304,8.2304,8.2304,8.2304,8.2304,8.2304,8.2304,8.2304,8.2304,8.2304,8.2304,8.2304,8.2304,8.2344,8.2304,8.2422,8.2461,8.25,8.2304,8.2304,8.2304,8.2304,8.2304,8.25,8.2812,8.3047,8.3164,8.3554,8.4219,8.5,8.5937,8.6445,8.6758,8.7031,8.7383,8.7422,8.7422,8.7265,8.7028,8.671]}]]